[[{"header":{"parameterUnit":"m.s-1","parameterCategory":1,"la1":30.6,"la2":28.766,"lo1":-90.7593,"lo2":-88.6598,"dx":0.0162,"dy":0.0183,"nx":116,"ny":114,"refTime":"2022-12-07T06:00:00:Z","depth":0,"parameterNumber":2,"parameterNumberName":"U-component_of_WINDS"},"data":[0.0,0.0,0.0,0.0,0.0,0.0,0.0,0.0,0.0,0.0,0.0,0.0,0.0,0.0,0.0,0.0,0.0,0.0,0.0,0.0,0.0,0.0,0.0,0.0,0.0,0.0,0.0,0.0,0.0,0.0,0.0,0.0,0.0,0.0,0.0,0.0,0.0,0.0,0.0,0.0,0.0,0.0,0.0,0.0,0.0,0.0,0.0,0.0,0.0,0.0,0.0,0.0,0.0,0.0,0.0,0.0,0.0,0.0,0.0,0.0,0.0,0.0,0.0,0.0,0.0,0.0,0.0,0.0,0.0,0.0,0.0,0.0,0.0,0.0,0.0,0.0,0.0,0.0,0.0,0.0,0.0,0.0,0.0,0.0,0.0,0.0,0.0,0.0,0.0,0.0,0.0,0.0,0.0,0.0,0.0,0.0,0.0,0.0,0.0,0.0,0.0,0.0,0.0,0.0,0.0,0.0,0.0,0.0,0.0,0.0,0.0,0.0,0.0,0.0,0.0,0.0,0.0,0.0,0.0,0.0,0.0,0.0,0.0,0.0,0.0,0.0,0.0,0.0,0.0,0.0,0.0,0.0,0.0,0.0,0.0,0.0,0.0,0.0,0.0,0.0,0.0,0.0,0.0,0.0,0.0,0.0,0.0,0.0,0.0,0.0,0.0,0.0,0.0,0.0,0.0,0.0,0.0,0.0,0.0,0.0,0.0,0.0,0.0,0.0,0.0,0.0,0.0,0.0,0.0,0.0,0.0,0.0,0.0,0.0,0.0,0.0,0.0,0.0,0.0,0.0,0.0,0.0,0.0,0.0,0.0,0.0,0.0,0.0,0.0,0.0,0.0,0.0,0.0,0.0,0.0,0.0,0.0,0.0,0.0,0.0,0.0,0.0,0.0,0.0,0.0,0.0,0.0,0.0,0.0,0.0,0.0,0.0,0.0,0.0,0.0,0.0,0.0,0.0,0.0,0.0,0.0,0.0,0.0,0.0,0.0,0.0,0.0,0.0,0.0,0.0,0.0,0.0,0.0,0.0,0.0,0.0,0.0,0.0,0.0,0.0,0.0,0.0,0.0,0.0,0.0,0.0,0.0,0.0,0.0,0.0,0.0,0.0,0.0,0.0,0.0,0.0,0.0,0.0,0.0,0.0,0.0,0.0,0.0,0.0,0.0,0.0,0.0,0.0,0.0,0.0,0.0,0.0,0.0,0.0,0.0,0.0,0.0,0.0,0.0,0.0,0.0,0.0,0.0,0.0,0.0,0.0,0.0,0.0,0.0,0.0,0.0,0.0,0.0,0.0,0.0,0.0,0.0,0.0,0.0,0.0,0.0,0.0,0.0,0.0,0.0,0.0,0.0,0.0,0.0,0.0,0.0,0.0,0.0,0.0,0.0,0.0,0.0,0.0,0.0,0.0,0.0,0.0,0.0,0.0,0.0,0.0,0.0,0.0,0.0,0.0,0.0,0.0,0.0,0.0,0.0,0.0,0.0,0.0,0.0,0.0,0.0,0.0,0.0,0.0,0.0,0.0,0.0,0.0,0.0,0.0,0.0,0.0,0.0,0.0,0.0,0.0,0.0,0.0,0.0,0.0,0.0,0.0,0.0,0.0,0.0,0.0,0.0,0.0,0.0,0.0,0.0,0.0,0.0,0.0,0.0,0.0,0.0,0.0,0.0,0.0,0.0,0.0,0.0,0.0,0.0,0.0,0.0,0.0,0.0,0.0,0.0,0.0,0.0,0.0,0.0,0.0,0.0,0.0,0.0,0.0,0.0,0.0,0.0,0.0,0.0,0.0,0.0,0.0,0.0,0.0,0.0,0.0,0.0,0.0,0.0,0.0,0.0,0.0,0.0,0.0,0.0,0.0,0.0,0.0,0.0,0.0,0.0,0.0,0.0,0.0,0.0,0.0,0.0,0.0,0.0,0.0,0.0,0.0,0.0,0.0,0.0,0.0,0.0,0.0,0.0,0.0,0.0,0.0,0.0,0.0,0.0,0.0,0.0,0.0,0.0,0.0,0.0,0.0,0.0,0.0,0.0,0.0,0.0,0.0,0.0,0.0,0.0,0.0,0.0,0.0,0.0,0.0,0.0,0.0,0.0,0.0,0.0,0.0,0.0,0.0,0.0,0.0,0.0,0.0,0.0,0.0,0.0,0.0,0.0,0.0,0.0,0.0,0.0,0.0,0.0,0.0,0.0,0.0,0.0,0.0,0.0,0.0,0.0,0.0,0.0,0.0,0.0,0.0,0.0,0.0,0.0,0.0,0.0,0.0,0.0,0.0,0.0,0.0,0.0,0.0,0.0,0.0,0.0,0.0,0.0,0.0,0.0,0.0,0.0,0.0,0.0,0.0,0.0,0.0,0.0,0.0,0.0,0.0,0.0,0.0,0.0,0.0,0.0,0.0,0.0,0.0,0.0,0.0,0.0,0.0,0.0,0.0,0.0,0.0,0.0,0.0,0.0,0.0,0.0,0.0,0.0,0.0,0.0,0.0,0.0,0.0,0.0,0.0,0.0,0.0,0.0,0.0,0.0,0.0,0.0,0.0,0.0,0.0,0.0,0.0,0.0,0.0,0.0,0.0,0.0,0.0,0.0,0.0,0.0,0.0,0.0,0.0,0.0,0.0,0.0,0.0,0.0,0.0,0.0,0.0,0.0,0.0,0.0,0.0,0.0,0.0,0.0,0.0,0.0,0.0,0.0,0.0,0.0,0.0,0.0,0.0,0.0,0.0,0.0,0.0,0.0,0.0,0.0,0.0,0.0,0.0,0.0,0.0,0.0,0.0,0.0,0.0,0.0,0.0,0.0,0.0,0.0,0.0,0.0,0.0,0.0,0.0,0.0,0.0,0.0,0.0,0.0,0.0,0.0,0.0,0.0,0.0,0.0,0.0,0.0,0.0,0.0,0.0,0.0,0.0,0.0,0.0,0.0,0.0,0.0,0.0,0.0,0.0,0.0,0.0,0.0,0.0,0.0,0.0,0.0,0.0,0.0,0.0,0.0,0.0,0.0,0.0,0.0,0.0,0.0,0.0,0.0,0.0,0.0,0.0,0.0,0.0,0.0,0.0,0.0,0.0,0.0,0.0,0.0,0.0,0.0,0.0,0.0,0.0,0.0,0.0,0.0,0.0,0.0,0.0,0.0,0.0,0.0,0.0,0.0,0.0,0.0,0.0,0.0,0.0,0.0,0.0,0.0,0.0,0.0,0.0,0.0,0.0,0.0,0.0,0.0,0.0,0.0,0.0,0.0,0.0,0.0,0.0,0.0,0.0,0.0,0.0,0.0,0.0,0.0,0.0,0.0,0.0,0.0,0.0,0.0,0.0,0.0,0.0,0.0,0.0,0.0,0.0,0.0,0.0,0.0,0.0,0.0,0.0,0.0,0.0,0.0,0.0,0.0,0.0,0.0,0.0,0.0,0.0,0.0,0.0,0.0,0.0,0.0,0.0,0.0,0.0,0.0,0.0,0.0,0.0,0.0,0.0,0.0,0.0,0.0,0.0,0.0,0.0,0.0,0.0,0.0,0.0,0.0,0.0,0.0,0.0,0.0,0.0,0.0,0.0,0.0,0.0,0.0,0.0,0.0,0.0,0.0,0.0,0.0,0.0,0.0,0.0,0.0,0.0,0.0,0.0,0.0,0.0,0.0,0.0,0.0,0.0,0.0,0.0,0.0,0.0,0.0,0.0,0.0,0.0,0.0,0.0,0.0,0.0,0.0,0.0,0.0,0.0,0.0,0.0,0.0,0.0,0.0,0.0,0.0,0.0,0.0,0.0,0.0,0.0,0.0,0.0,0.0,0.0,0.0,0.0,0.0,0.0,0.0,0.0,0.0,0.0,0.0,0.0,0.0,0.0,0.0,0.0,0.0,0.0,0.0,0.0,0.0,0.0,0.0,0.0,0.0,0.0,0.0,0.0,0.0,0.0,0.0,0.0,0.0,0.0,0.0,0.0,0.0,0.0,0.0,0.0,0.0,0.0,0.0,0.0,0.0,0.0,0.0,0.0,0.0,0.0,0.0,0.0,0.0,0.0,0.0,0.0,0.0,0.0,0.0,0.0,0.0,0.0,0.0,0.0,0.0,0.0,0.0,0.0,0.0,0.0,0.0,0.0,0.0,0.0,0.0,0.0,0.0,0.0,0.0,0.0,0.0,0.0,0.0,0.0,0.0,0.0,0.0,0.0,0.0,0.0,0.0,0.0,0.0,0.0,0.0,0.0,0.0,0.0,0.0,0.0,0.0,0.0,0.0,0.0,0.0,0.0,0.0,0.0,0.0,0.0,0.0,0.0,0.0,0.0,0.0,0.0,0.0,0.0,0.0,0.0,0.0,0.0,0.0,0.0,0.0,0.0,0.0,0.0,0.0,0.0,0.0,0.0,0.0,0.0,0.0,0.0,0.0,0.0,0.0,0.0,0.0,0.0,0.0,0.0,0.0,0.0,0.0,0.0,0.0,0.0,0.0,0.0,0.0,0.0,0.0,0.0,0.0,0.0,0.0,0.0,0.0,0.0,0.0,0.0,0.0,0.0,0.0,0.0,0.0,0.0,0.0,0.0,0.0,0.0,0.0,0.0,0.0,0.0,0.0,0.0,0.0,0.0,0.0,0.0,0.0,0.0,0.0,0.0,0.0,0.0,0.0,0.0,0.0,0.0,0.0,0.0,0.0,0.0,0.0,0.0,0.0,0.0,0.0,0.0,0.0,0.0,0.0,0.0,0.0,0.0,0.0,0.0,0.0,0.0,0.0,0.0,0.0,0.0,0.0,0.0,0.0,0.0,0.0,0.0,0.0,0.0,0.0,0.0,0.0,0.0,0.0,0.0,0.0,0.0,0.0,0.0,0.0,0.0,0.0,0.0,0.0,0.0,0.0,0.0,0.0,0.0,0.0,0.0,0.0,0.0,0.0,0.0,0.0,0.0,0.0,0.0,0.0,0.0,0.0,0.0,0.0,0.0,0.0,0.0,0.0,0.0,0.0,0.0,0.0,0.0,0.0,0.0,0.0,0.0,0.0,0.0,0.0,0.0,0.0,0.0,0.0,0.0,0.0,0.0,0.0,0.0,0.0,0.0,0.0,0.0,0.0,0.0,0.0,0.0,0.0,0.0,0.0,0.0,0.0,0.0,0.0,0.0,0.0,0.0,0.0,0.0,0.0,0.0,0.0,0.0,0.0,0.0,0.0,0.0,0.0,0.0,0.0,0.0,0.0,0.0,0.0,0.0,0.0,0.0,0.0,0.0,0.0,0.0,0.0,0.0,0.0,0.0,0.0,0.0,0.0,0.0,0.0,0.0,0.0,0.0,0.0,0.0,0.0,0.0,0.0,0.0,0.0,0.0,0.0,0.0,0.0,0.0,0.0,0.0,0.0,0.0,0.0,0.0,0.0,0.0,0.0,0.0,0.0,0.0,0.0,0.0,0.0,0.0,0.0,0.0,0.0,0.0,0.0,0.0,0.0,0.0,0.0,0.0,0.0,0.0,0.0,0.0,0.0,0.0,0.0,0.0,0.0,0.0,0.0,0.0,0.0,0.0,0.0,0.0,0.0,0.0,0.0,0.0,0.0,0.0,0.0,0.0,0.0,0.0,0.0,0.0,0.0,0.0,0.0,0.0,0.0,0.0,0.0,0.0,0.0,0.0,0.0,0.0,0.0,0.0,0.0,0.0,0.0,0.0,0.0,0.0,0.0,0.0,0.0,0.0,0.0,0.0,0.0,0.0,0.0,0.0,0.0,0.0,0.0,0.0,0.0,0.0,0.0,0.0,0.0,0.0,0.0,0.0,0.0,0.0,0.0,0.0,0.0,0.0,0.0,0.0,0.0,0.0,0.0,0.0,0.0,0.0,0.0,0.0,0.0,0.0,0.0,0.0,0.0,0.0,0.0,0.0,0.0,0.0,0.0,0.0,0.0,0.0,0.0,0.0,0.0,0.0,0.0,0.0,0.0,0.0,0.0,0.0,0.0,0.0,0.0,0.0,0.0,0.0,0.0,0.0,0.0,0.0,0.0,0.0,0.0,0.0,0.0,0.0,0.0,0.0,0.0,0.0,0.0,0.0,0.0,0.0,0.0,0.0,0.0,0.0,0.0,0.0,0.0,0.0,0.0,0.0,-0.1995,-0.1285,0.0,0.0,0.0,0.0,0.0,0.0,0.0,0.0,0.0,0.0,0.0,0.0,0.0,0.0,0.0,0.0,0.0,0.0,0.0,0.0,0.0,0.0,0.0,0.4976,0.5012,0.4812,0.5058,0.0,0.0,0.0,0.0,0.0,0.0,0.0,0.0,0.0,0.6283,0.6583,0.7363,0.8395,0.969,0.9754,0.8726,0.6785,0.0,0.0,0.0,0.0,0.0,0.0,0.0,0.0,0.0,0.0,0.0,0.0,0.0,0.0,0.0,0.0,0.0,0.0,0.0,0.0,0.0,0.0,0.0,0.0,0.0,0.0,0.0,0.0,0.0,0.0,0.0,0.0,0.0,0.0,0.0,0.0,0.0,0.0,0.0,0.0,0.0,0.0,0.0,0.0,0.0,0.0,0.0,0.0,0.0,0.0,0.0,0.0,0.0,0.0,0.0,0.0,0.0,0.0,0.0,0.0,0.0,0.0,0.0,0.0,0.0,0.0,0.0,0.0,0.0,0.0,-0.2673,-0.2132,0.0,0.0,0.0,0.0,0.0,0.0,0.0,0.0,0.0,0.0,0.0,0.0,0.0,0.0,0.0,0.0,0.0,0.0,0.0,0.0,0.0,0.4589,0.4821,0.514,0.5258,0.502,0.5421,0.5498,0.5093,0.5432,0.0,0.0,0.0,0.0,0.5929,0.6382,0.683,0.7256,0.9162,1.0967,1.2668,1.3261,1.1456,0.7753,0.7732,0.0,0.0,0.0,0.0,0.0,0.0,0.0,0.0,0.0,0.0,0.0,0.0,0.0,0.0,0.0,0.0,0.0,0.0,0.0,0.0,0.0,0.0,0.0,0.0,0.0,0.0,0.0,0.0,0.0,0.0,0.0,0.0,0.0,0.0,0.0,0.0,0.0,0.0,0.0,0.0,0.0,0.0,0.0,0.0,0.0,0.0,0.0,0.0,0.0,0.0,0.0,0.0,0.0,0.0,0.0,0.0,0.0,0.0,0.0,0.0,0.0,0.0,0.0,-0.3174,-0.3245,-0.3339,-0.3405,-0.3463,-0.3505,-0.3218,-0.2992,-0.2759,-0.2026,0.0,0.0,0.0,0.0,0.0,0.0,0.0,0.0,0.0,0.0,0.0,0.0,0.0,0.0,0.0,0.0,0.0,0.0,0.0,0.4646,0.5023,0.5098,0.5336,0.579,0.5654,0.5691,0.6072,0.6155,0.0,0.0,0.0,0.6411,0.6411,0.6818,0.7832,0.9488,1.1474,1.2304,1.202,1.2285,1.1692,1.0421,1.0821,0.9532,0.7081,0.0,0.0,0.0,0.0,0.0,0.0,0.0,0.0,0.0,0.0,0.0,0.0,0.0,0.0,0.0,0.0,0.0,0.0,0.0,0.0,0.0,0.0,0.0,0.0,0.0,0.0,0.0,0.0,0.0,0.0,0.0,0.0,0.0,0.0,0.0,0.0,0.0,0.0,0.0,0.0,0.0,-0.2203,-0.2156,0.0,0.0,0.0,0.0,0.0,0.0,0.0,0.0,0.0,0.0,0.0,0.0,0.0,-0.3309,-0.3309,-0.3396,-0.3425,-0.3439,-0.3413,-0.352,-0.3817,-0.3665,-0.3755,-0.4007,-0.3671,0.0,-0.3249,-0.2579,0.0,0.0,0.0,0.0,0.0,0.0,0.0,0.0,0.0,0.0,0.0,0.0,0.0,0.0,0.0,0.0,0.0,0.0,0.0,0.0,0.0,0.6416,0.7281,0.7501,0.853,0.8732,0.7716,0.7755,0.0,0.0,0.6673,0.6828,0.6828,0.8486,1.0566,1.3105,1.4098,1.479,1.5215,1.5065,1.4525,1.3628,1.3404,1.1669,0.8826,0.7669,0.0,0.0,0.0,0.0,0.0,0.0,0.0,0.0,0.0,0.0,0.0,0.0,0.0,0.0,0.0,0.0,0.0,0.0,0.0,0.0,0.0,0.0,0.0,0.0,0.0,0.0,0.0,0.0,0.0,0.0,0.0,0.0,0.0,0.0,0.0,0.0,0.0,0.0,0.0,-0.0437,-0.1443,-0.1899,-0.1444,-0.112,0.0,0.0,0.0,0.0,0.0,0.0,0.0,0.0,0.0,-0.3489,-0.3417,-0.3386,-0.347,-0.3399,-0.3725,-0.4431,-0.3752,-0.383,-0.4618,-0.3862,-0.3587,-0.3686,-0.359,-0.3495,-0.3365,-0.2974,-0.2611,-0.2264,0.0,0.0,0.0,0.0,-0.0267,0.0203,0.0,0.0,0.0,0.0,0.0,0.0,0.0,0.0,0.0,0.0,0.0,0.0,0.5568,0.7659,0.9078,0.9331,1.1015,1.1247,0.9284,0.9315,0.8585,0.6758,0.7173,0.7516,0.7613,1.0275,1.2965,1.5702,1.588,1.6437,1.7283,1.6802,1.6077,1.5097,1.4536,1.2854,1.0263,0.8727,0.8059,0.7873,0.0,0.0,0.0,0.0,0.0,0.0,0.0,0.0,0.0,0.0,0.0,0.0,0.0,0.0,0.0,0.0,0.0,0.0,0.0,0.0,0.0,0.0,0.0,0.0,0.0,0.0,0.0,0.0,0.0,0.0,0.0,0.0,0.0,0.0,0.0,0.0,0.0,-0.0091,-0.1168,-0.2048,-0.1796,-0.1668,0.0,0.0,0.0,0.0,0.0,0.0,-0.3252,-0.3366,-0.3458,-0.3518,-0.3422,-0.3418,-0.3536,-0.3456,-0.3895,-0.4837,-0.3981,-0.3987,-0.4812,-0.3965,-0.3567,-0.3529,-0.3553,-0.3534,-0.345,-0.3263,-0.2985,-0.2599,-0.2299,-0.1916,-0.1517,-0.1517,-0.0807,0.0082,0.0,0.0,0.0,0.0,0.0,0.0,0.0,0.0,0.0,0.0,0.0,0.5882,0.6305,0.8273,0.996,1.0991,1.177,1.1681,1.0494,1.0417,0.9617,0.7808,0.8172,0.8616,0.8986,1.1679,1.4048,1.5978,1.6062,1.6051,1.5991,1.5263,1.4314,1.3249,1.3377,1.2347,1.0511,1.0667,0.9741,0.807,0.6738,0.0,0.0,0.0,0.0,0.0,0.0,0.0,0.0,0.0,0.0,0.0,0.0,0.0,0.0,0.0,0.0,0.0,0.0,0.0,0.0,0.0,0.0,0.0,0.0,0.0,0.0,0.0,0.0,0.0,0.0,0.0,0.0,0.0,0.0,0.0,0.0,0.0,0.0,-0.3613,-0.3513,0.0,0.0,0.0,0.0,-0.1656,-0.2223,-0.2618,-0.2658,-0.3173,-0.3496,-0.3499,-0.3517,-0.3551,-0.3614,-0.3741,-0.3836,-0.3956,-0.3891,-0.3918,-0.3982,-0.3927,-0.3899,-0.3894,-0.3838,-0.3722,-0.3689,-0.3516,-0.3462,-0.3374,-0.2728,-0.2472,-0.243,-0.243,-0.1677,-0.0757,0.0,0.0,0.0,0.2615,0.2691,0.2776,0.2874,0.2956,0.317,0.3579,0.4827,0.5846,0.6282,0.9299,1.1642,1.2475,1.4274,1.496,1.4044,1.2813,1.1575,1.0346,0.9182,0.9629,1.1891,1.3785,1.5133,1.5922,1.5919,1.5558,1.4899,1.3195,1.2296,1.2023,1.0486,0.9469,0.8965,0.9019,0.8638,0.7889,0.667,0.5835,0.0,0.0,0.0,0.0,0.0,0.0,0.0,0.0,0.0,0.0,0.0,0.0,0.0,0.0,0.0,0.0,0.0,0.0,0.0,0.0,0.0,0.0,0.0,0.0,0.0,0.0,0.0,0.0,0.0,0.0,0.0,0.0,0.0,0.0,0.0,0.0,0.0,-0.2979,-0.302,0.0,-0.3382,-0.2808,-0.2559,-0.2867,-0.3051,-0.3197,-0.3281,-0.3456,-0.3611,-0.3734,-0.3694,-0.37,-0.3822,-0.3824,-0.4189,-0.492,-0.4178,-0.4249,-0.4903,-0.4211,-0.3899,-0.3863,-0.388,-0.3852,-0.3783,-0.3687,-0.3628,-0.3545,-0.3303,-0.3216,-0.3216,-0.3216,-0.2486,-0.1428,0.0,0.0,0.0,0.2366,0.244,0.255,0.2687,0.277,0.3138,0.3992,0.5301,0.6479,0.7344,1.0492,1.3,1.4007,1.5929,1.654,1.5184,1.4108,1.2658,1.0755,1.0051,1.1177,1.4218,1.524,1.5848,1.6126,1.5705,1.5086,1.4102,1.1989,1.1033,1.1034,0.8954,0.7898,0.7661,0.7342,0.741,0.7708,0.6437,0.5461,0.4861,0.0,0.0,0.0,0.0,0.0,0.0,0.0,0.0,0.0,0.0,0.0,0.0,0.0,0.0,0.0,0.0,0.0,0.0,0.0,0.0,0.0,0.0,0.0,0.0,0.0,0.0,0.0,0.0,0.0,0.0,0.0,0.0,0.0,0.0,-0.0751,-0.1952,-0.2588,-0.2914,-0.3246,-0.3602,-0.3326,-0.3249,-0.3595,-0.3598,-0.3671,-0.3758,-0.3703,-0.3736,-0.3916,-0.388,-0.3839,-0.3918,-0.3899,-0.4273,-0.5111,-0.4318,-0.4379,-0.5053,-0.4362,-0.3989,-0.3951,-0.3973,-0.397,-0.3948,-0.3929,-0.3886,-0.3818,-0.3698,-0.3649,-0.3651,-0.3673,-0.2678,-0.1068,0.0,0.0,0.2095,0.2095,0.2311,0.2527,0.266,0.2902,0.3563,0.4903,0.6328,0.7847,0.9517,1.1841,1.3899,1.5474,1.6509,1.6073,1.3725,1.414,1.2714,0.8844,1.0902,1.3292,1.5737,1.5965,1.6199,1.6441,1.549,1.456,1.3634,1.1599,1.0534,1.0272,0.8934,0.7722,0.6662,0.5881,0.629,0.733,0.6116,0.5281,0.4805,0.0,0.0,0.0,0.0,0.0,0.0,0.0,0.0,0.0,0.0,0.0,0.0,0.0,0.0,0.0,0.0,0.0,0.0,0.0,0.0,0.0,0.0,0.0,0.0,0.0,0.0,0.0,0.0,0.0,0.0,0.0,0.0,0.0,-0.0745,-0.1107,-0.181,-0.2693,-0.3344,-0.369,-0.3697,-0.3824,-0.3831,-0.3639,-0.3819,-0.3921,-0.3927,-0.3927,-0.393,-0.3935,-0.3932,-0.3988,-0.3978,-0.4162,-0.4251,-0.4308,-0.4375,-0.4375,-0.4311,-0.4313,-0.4313,-0.4311,-0.4251,-0.4259,-0.4308,-0.4248,-0.4259,-0.4278,-0.3924,-0.3785,-0.3849,-0.391,-0.2235,0.0424,0.1806,0.185,0.1876,0.1876,0.1949,0.2069,0.2301,0.2519,0.3175,0.4626,0.619,0.7797,0.932,1.139,1.3326,1.5028,1.574,1.5919,1.5565,1.437,1.2663,1.0374,1.3499,1.5312,1.5345,1.6876,1.6876,1.5345,1.5457,1.4677,1.2994,1.0268,0.9017,0.8808,0.6224,0.4837,0.4509,0.4166,0.4188,0.4526,0.5181,0.4851,0.4064,0.0,0.0,0.0,0.0,0.0,0.0,0.0,0.0,0.0,0.0,0.0,0.0,0.0,0.0,0.0,0.0,0.0,0.0,0.0,0.0,0.0,0.0,0.0,0.0,0.0,0.0,0.0,0.0,0.0,0.0,0.0,-0.0693,-0.1537,-0.1366,-0.2191,-0.2941,-0.3251,-0.3493,-0.3662,-0.3754,-0.3836,-0.3905,-0.3841,-0.3891,-0.3897,-0.3981,-0.3986,-0.4046,-0.418,-0.5104,-0.5185,-0.4232,-0.6223,-0.6264,-0.4308,-0.5309,-0.5339,-0.4373,-0.442,-0.4439,-0.4433,-0.4417,-0.442,-0.4433,-0.4417,-0.442,-0.4417,-0.4232,-0.4134,-0.4095,-0.4112,-0.2314,0.0193,0.1806,0.1806,0.1806,0.1806,0.1806,0.1886,0.2164,0.2375,0.3193,0.5112,0.6349,0.7907,1.0121,1.1485,1.3049,1.5101,1.4937,1.4832,1.5073,1.3492,1.2773,1.3332,1.5301,1.6389,1.6519,1.7804,1.7434,1.5247,1.5666,1.4592,1.2042,0.953,0.8125,0.7486,0.4886,0.3703,0.367,0.354,0.3168,0.2715,0.3524,0.3559,0.3362,0.4657,0.4424,0.35,0.4003,0.4041,0.3812,0.3768,0.0,0.0,0.0,0.0,0.0,0.0,0.0,0.0,0.0,0.0,0.0,0.0,0.0,0.0,0.0,0.0,0.0,0.0,0.0,0.0,0.0,0.0,0.0,0.0,-0.1434,-0.2316,-0.2219,-0.2934,-0.3506,-0.351,-0.3632,-0.3719,-0.3824,-0.3869,-0.3935,-0.3935,-0.3981,-0.4302,-0.4978,-0.4955,-0.5011,-0.5171,-0.5895,-0.5973,-0.5285,-0.6297,-0.6333,-0.5378,-0.5615,-0.5308,-0.4512,-0.4572,-0.46,-0.4597,-0.4597,-0.461,-0.4632,-0.4608,-0.461,-0.4619,0.0,0.0,0.0,0.0,-0.2395,-0.0825,0.1806,0.1806,0.1806,0.1806,0.182,0.1906,0.2164,0.2388,0.3448,0.5972,0.6638,0.8105,1.1248,1.1778,1.282,1.524,1.4134,1.3279,1.3307,1.2173,1.3013,1.637,1.6345,1.6947,1.8335,1.8716,1.7888,1.5761,1.6102,1.4574,1.1306,0.9388,0.7822,0.6661,0.4722,0.3691,0.3519,0.3449,0.2698,0.1601,0.1597,0.1972,0.2639,0.3138,0.3248,0.3238,0.3683,0.3745,0.3604,0.3648,0.0,0.0,0.0,0.0,0.0,0.0,0.0,0.0,0.0,0.0,0.0,0.0,0.0,0.0,0.0,0.0,0.0,0.0,0.0,0.0,0.0,0.0,0.0,0.0,-0.1893,-0.289,-0.2711,-0.3072,-0.339,-0.3562,-0.3707,-0.385,-0.3804,-0.3887,-0.3983,-0.3991,-0.4155,-0.4772,-0.612,-0.6117,0.0,0.0,0.0,-0.6392,-0.6477,-0.5517,-0.5524,-0.6674,-0.5528,-0.4906,-0.4698,-0.4758,-0.4859,-0.4859,-0.4859,-0.4815,-0.4785,-0.4807,-0.4742,-0.4691,-0.4605,-0.4512,-0.4377,-0.2995,-0.2523,-0.2037,0.186,0.1806,0.1806,0.1806,0.1886,0.2016,0.2184,0.2555,0.3672,0.5984,0.6618,0.7913,1.0812,1.101,1.1756,1.3678,1.3081,1.2638,1.2691,1.2373,1.3104,1.5176,1.6313,1.7474,1.8686,1.9324,1.8464,1.609,1.6614,1.5508,1.2916,1.007,0.8564,0.8196,0.5241,0.3355,0.2382,0.2224,0.145,0.0442,0.1282,0.1676,0.177,0.2015,0.256,0.3167,0.348,0.3559,0.3513,0.3461,0.3454,0.3411,0.3303,0.2906,0.0,0.0,0.0,0.0,0.0,0.0,0.0,0.0,0.0,0.0,0.0,0.0,0.0,0.0,0.0,0.0,0.0,0.0,0.0,0.0713,0.0297,-0.0111,-0.0343,-0.0995,-0.1902,-0.321,-0.3517,-0.3699,-0.3919,-0.3804,-0.3806,-0.4112,-0.4204,-0.4397,-0.4783,-0.4777,-0.4824,-0.4941,-0.6114,-0.6155,-0.5114,-0.7056,-0.7079,-0.5239,-0.6145,0.0,-0.4886,-0.4943,-0.497,-0.497,-0.497,-0.4976,-0.4986,-0.4973,-0.4587,-0.4039,-0.4553,-0.4776,-0.4624,-0.3569,-0.2909,-0.2037,0.2034,0.1979,0.192,0.181,0.1906,0.2049,0.2177,0.2541,0.346,0.5267,0.571,0.6757,0.9077,0.9255,0.9888,1.1609,1.1688,1.1608,1.1497,1.2025,1.3107,1.4825,1.5673,1.6523,1.7341,1.7782,1.7152,1.5478,1.5898,1.4443,1.1308,0.958,0.8033,0.6508,0.4032,0.2599,0.2021,0.1218,0.0226,-0.0827,-0.0215,-0.0052,0.01,0.1954,0.3015,0.3521,0.3601,0.355,0.346,0.3417,0.3368,0.3272,0.2977,0.2835,0.2717,0.0,0.0,0.0,0.0,0.0,0.0,0.0,0.0,0.0,0.0,0.0,0.0,0.0,0.0,0.2829,0.2501,0.0,0.1515,0.1325,0.0903,0.058,0.0659,-0.0368,-0.1429,-0.2222,-0.2876,-0.3354,-0.3506,-0.3618,-0.3726,-0.395,-0.4113,-0.465,-0.5463,-0.5507,-0.5598,-0.5746,-0.644,-0.6554,-0.5937,-0.6567,-0.6627,-0.6025,-0.5985,-0.564,-0.4978,-0.5008,-0.5022,-0.5022,-0.5022,-0.5022,-0.4941,-0.4552,-0.3925,-0.3212,-0.3538,-0.3666,-0.3587,-0.311,-0.2724,-0.2042,0.2321,0.2311,0.2233,0.2027,0.2105,0.2229,0.2343,0.2624,0.329,0.4531,0.4791,0.5525,0.734,0.7513,0.8054,0.9389,1.0196,1.0563,1.0381,1.146,1.288,1.4636,1.4824,1.5155,1.5745,1.6066,1.5684,1.4684,1.4952,1.3178,0.9587,0.8985,0.7175,0.4334,0.2993,0.1925,0.1229,0.0351,-0.0799,-0.2027,-0.1723,-0.1538,-0.1043,0.2011,0.3257,0.3464,0.3597,0.3502,0.3269,0.3334,0.3169,0.2918,0.2563,0.273,0.2863,0.1953,0.2289,0.0,0.0,0.0,0.0,0.0,0.0,0.0,0.0,0.3109,0.3395,0.2989,0.3126,0.3125,0.2471,0.2182,0.2036,0.1897,0.146,0.1191,0.1318,0.0128,-0.09,-0.115,-0.2254,-0.3045,-0.3109,-0.3404,-0.363,-0.3718,-0.4104,-0.4875,-0.6215,-0.6301,-0.6417,-0.6493,-0.6511,-0.6619,-0.6751,-0.5839,-0.5874,-0.6792,-0.577,-0.5097,-0.4787,-0.4787,-0.4706,-0.4549,-0.4549,-0.4549,-0.4471,-0.4003,-0.3219,-0.2276,-0.2196,-0.1882,-0.1569,-0.2119,-0.2196,-0.1568,0.2738,0.2874,0.2931,0.2727,0.2796,0.2898,0.2908,0.3142,0.3657,0.4571,0.467,0.5208,0.6737,0.6854,0.6972,0.7407,0.8863,0.9826,0.9961,1.0804,1.2176,1.3992,1.3852,1.4185,1.5251,1.5927,1.5619,1.4245,1.4686,1.3479,1.0686,0.9155,0.6993,0.4356,0.3841,0.1756,-0.1209,-0.0288,-0.1251,-0.3291,-0.2138,-0.1141,-0.0108,0.1357,0.1868,0.1909,0.3125,0.3184,0.2728,0.3041,0.2905,0.2687,0.2928,0.2723,0.2397,0.2405,0.2145,0.199,0.2506,0.2546,0.2127,0.0801,0.1382,0.1972,0.0,0.1696,0.2362,0.0725,0.1248,0.1651,0.0534,0.1667,0.2799,0.2766,0.3447,0.3645,0.2499,0.1672,0.0715,-0.0466,-0.1788,-0.2762,-0.3091,-0.3163,-0.3397,-0.3823,-0.4223,-0.461,-0.5008,-0.5006,-0.5071,-0.5143,-0.5197,-0.5203,-0.5157,-0.653,-0.6566,-0.5243,-0.5867,-0.5405,-0.3925,-0.3925,-0.3532,-0.2746,-0.2746,-0.2746,-0.2825,-0.3532,-0.2826,-0.1413,-0.0941,0.0313,0.1645,-0.0628,-0.0941,0.0235,0.3295,0.3398,0.3489,0.3595,0.344,0.3301,0.3301,0.3449,0.3735,0.4174,0.4204,0.4552,0.5523,0.5882,0.6043,0.6042,0.7865,0.9012,0.8985,1.0139,1.1136,1.1754,1.1779,1.2152,1.288,1.3541,1.3642,1.3142,1.3164,1.1946,0.9398,0.8284,0.6032,0.2934,0.1999,0.035,-0.1722,-0.1932,-0.2634,-0.3474,-0.2927,-0.2032,-0.0898,0.0154,0.0946,0.1586,0.2539,0.2655,0.0,0.2573,0.2536,0.2485,0.2962,0.2743,0.2318,0.2444,0.2325,0.222,0.2516,0.1695,0.0769,0.0591,0.0452,0.0467,0.0959,0.1767,0.2177,0.1406,0.2182,0.2672,0.1557,0.2455,0.354,0.3758,0.4074,0.3917,0.2994,0.1905,0.0796,-0.0336,-0.1607,-0.2403,-0.2537,-0.2957,-0.3324,-0.357,-0.4233,-0.4638,-0.4824,-0.4848,-0.529,-0.6232,-0.5881,-0.6015,-0.685,-0.7189,-0.698,-0.6295,-0.667,-0.5928,-0.4347,-0.4347,-0.3663,-0.2511,-0.2511,-0.2267,-0.1864,-0.2176,-0.1626,-0.0539,-0.0307,0.0307,0.1,0.0703,0.0941,0.1645,0.3746,0.3844,0.3941,0.4307,0.4087,0.3827,0.3705,0.3787,0.3856,0.3902,0.3911,0.4122,0.4733,0.5061,0.5277,0.5387,0.715,0.8294,0.8309,0.9605,1.0281,1.0058,1.0319,1.0538,1.0753,1.1415,1.1773,1.1808,1.1511,1.0247,0.7959,0.7201,0.4942,0.1441,0.0806,-0.0457,-0.2193,-0.2721,-0.3129,-0.3415,-0.2983,-0.2204,-0.1139,-0.0102,0.0881,0.1712,0.2381,0.2461,0.2288,0.2358,0.2247,0.2194,0.2575,0.2536,0.2335,0.2276,0.2302,0.2278,0.2053,0.0888,-0.0238,0.0088,-0.0228,-0.0279,0.1107,0.2045,0.2494,0.2078,0.3012,0.3517,0.2401,0.3097,0.3968,0.4324,0.3957,0.3373,0.2641,0.1335,0.0134,-0.0875,-0.175,-0.236,-0.2369,-0.2938,-0.3302,-0.3314,-0.4228,-0.4929,-0.5416,-0.5325,-0.5922,-0.7494,-0.6812,-0.6937,-0.7999,-0.7924,-0.7628,-0.7176,-0.7398,-0.6459,-0.4465,-0.3773,-0.3014,-0.2176,-0.1943,-0.1469,-0.0998,-0.1228,-0.0764,0.0,0.0151,0.0378,0.0835,0.2091,0.2808,0.3198,0.4064,0.4194,0.4307,0.4704,0.4768,0.4628,0.4231,0.4183,0.4114,0.3919,0.3911,0.4122,0.4733,0.4521,0.4676,0.5508,0.6788,0.777,0.8277,0.9268,0.9775,0.9699,0.9901,0.9922,0.9655,1.0479,1.0735,1.0365,1.0019,0.8864,0.6915,0.6103,0.3763,0.0219,0.1313,-0.0108,-0.326,-0.1867,-0.208,-0.3302,-0.1934,-0.0882,0.0,0.1192,0.1887,0.2353,0.2956,0.2793,0.2323,0.2441,0.2144,0.1695,0.165,0.2053,0.2394,0.1883,0.1784,0.1677,0.096,0.0227,-0.0497,-0.1403,-0.0546,0.0532,0.0542,0.2093,0.3235,0.2068,0.2834,0.3329,0.2123,0.3008,0.3897,0.4016,0.319,0.2212,0.1271,-0.0134,-0.1345,-0.2087,-0.2492,-0.2707,-0.2745,-0.3092,-0.3314,-0.3359,-0.4286,-0.5419,-0.6969,-0.638,-0.6735,-0.8229,-0.7553,-0.718,-0.7252,-0.883,-0.883,-0.7176,-0.799,-0.6675,-0.354,-0.1233,-0.0613,-0.1289,-0.0455,-0.0076,-0.0076,-0.0985,-0.0758,0.0076,0.0454,0.1361,0.2575,0.3835,0.4545,0.4935,0.4463,0.4592,0.464,0.478,0.4796,0.4764,0.4624,0.4592,0.4578,0.451,0.4655,0.0,0.0,0.0,0.0,0.0,0.6822,0.7743,0.8129,0.9023,0.9475,0.9308,0.9583,0.9622,0.9357,0.9754,0.9979,0.9966,0.8886,0.7842,0.6856,0.5001,0.2762,0.0311,0.0052,-0.1084,-0.2773,-0.2435,-0.2423,-0.2723,-0.2404,-0.1298,0.0199,0.0047,0.0947,0.2354,0.0,0.2342,0.1927,0.2417,0.246,0.2362,0.2699,0.27,0.2475,0.1935,0.2135,0.2162,0.0425,0.0254,0.0231,-0.1049,-0.0521,0.0535,0.1251,0.2083,0.2596,0.2178,0.3285,0.3826,0.2072,0.3314,0.4399,0.3726,0.3009,0.2098,0.0794,-0.0534,-0.1815,-0.2758,-0.2759,-0.2641,-0.2403,-0.2978,-0.3291,-0.3051,-0.46,-0.5493,-0.5487,-0.633,-0.7477,-0.9012,-0.8276,-0.839,-0.9343,-0.9421,-0.9129,-0.8543,-0.6825,-0.5376,-0.4204,-0.129,-0.0152,-0.0454,-0.0151,0.0,0.0,-0.0299,-0.0298,0.0,0.0148,0.0445,0.1047,0.2552,0.3247,0.3357,0.4656,0.4796,0.4796,0.4796,0.4796,0.0,0.0,0.0,0.0,0.0,0.0,0.0,0.0,0.0,0.0,0.0,0.0,0.7353,0.779,0.8516,0.8828,0.8586,0.8942,0.8969,0.8597,0.8725,0.8793,0.8771,0.74,0.6526,0.5979,0.385,0.1971,0.0349,-0.0549,-0.1492,-0.2423,-0.244,-0.2562,-0.2637,-0.2033,-0.1165,-0.0183,-0.0043,0.0732,0.0,0.2359,0.2022,0.1488,0.2343,0.2337,0.2049,0.2411,0.2262,0.2014,0.2111,0.2296,0.2213,0.0937,0.0778,0.0729,-0.0211,0.0161,0.1025,0.1811,0.2588,0.3093,0.3017,0.3781,0.4041,0.2762,0.3326,0.3866,0.3233,0.2478,0.155,0.0384,-0.0972,-0.2169,-0.3086,-0.2827,-0.2645,-0.2971,-0.3263,-0.3363,-0.3284,-0.5049,-0.6145,-0.633,-0.7154,-0.8276,-0.9776,-0.9045,-0.9087,-1.0023,-0.959,-0.9302,-0.9307,-0.6697,-0.525,-0.464,-0.2018,-0.0525,0.0,0.0,0.0,0.0,0.0,0.0,0.0,0.0,0.0,0.0225,0.1878,0.2571,0.2745,0.4668,0.4796,0.4796,0.0,0.0,0.0,0.0,0.0,0.0,0.0,0.0,0.0,0.0,0.0,0.0,0.0,0.0,0.0,0.7204,0.7767,0.7937,0.7626,0.8026,0.8015,0.7522,0.7531,0.7317,0.6873,0.5694,0.4904,0.4444,0.2779,0.1402,0.0338,-0.0387,-0.1293,-0.231,-0.2073,-0.2423,-0.3007,-0.0919,-0.0546,-0.1047,0.0785,0.1172,0.087,0.2085,0.1789,0.1043,0.2292,0.1911,0.0908,0.0884,0.0934,0.1194,0.2327,0.2239,0.1852,0.2198,0.1676,0.1033,0.0967,0.148,0.2091,0.2293,0.3477,0.4536,0.4522,0.4287,0.4021,0.0,0.3138,0.2449,0.259,0.1604,0.0612,-0.0122,-0.1422,-0.2529,-0.3074,-0.2622,-0.2853,-0.4257,-0.3801,-0.3605,-0.4129,-0.562,-0.7357,-0.9069,-0.8596,-0.8904,-1.0383,-0.9663,-0.9302,-0.9302,-0.9302,-0.9302,-0.9307,-0.7728,-0.6253,-0.4732,-0.3169,-0.1548,-0.0146,-0.0146,-0.0073,0.0,0.0,0.0,0.0,0.0,0.0,0.0228,0.1841,0.2694,0.3156,0.0,0.0,0.0,0.0,0.0,0.0,0.0,0.0,0.0,0.0,0.0,0.0,0.0,0.0,0.0,0.0,0.0,0.0,0.6612,0.7178,0.7549,0.7669,0.7701,0.7626,0.7422,0.6818,0.651,0.6536,0.4747,0.3899,0.3921,0.1804,0.0436,-0.0316,-0.1227,-0.1935,-0.2473,-0.2594,-0.266,-0.2604,-0.1804,-0.1136,-0.0594,-0.0239,0.0257,0.0825,0.1213,0.0864,0.0482,0.2154,0.2056,0.1203,0.0865,0.1346,0.1855,0.1049,0.1944,0.278,0.0881,0.1671,0.277,0.1948,0.2888,0.4047,0.4122,0.4775,0.523,0.5022,0.4673,0.4186,0.3358,0.3735,0.3587,0.1786,0.1353,0.0857,-0.0317,-0.1674,-0.2488,-0.2482,-0.2758,-0.3113,-0.351,-0.4604,-0.5453,-0.5894,-0.6994,-0.7554,-0.7447,-0.841,-0.9189,-0.959,-0.9374,-0.9302,-0.9302,-0.9302,-0.9302,-0.9302,-0.7729,-0.6785,-0.6326,-0.4816,-0.3212,-0.1748,-0.1748,-0.1026,0.0,0.0,0.0,0.0,0.0,0.0152,0.0537,0.0915,0.1377,0.2004,0.0,0.0,0.0,0.0,0.0,0.0,0.0,0.0,0.0,0.0,0.0,0.0,0.0,0.0,0.0,0.0,0.0,0.0,0.0,0.6485,0.6855,0.712,0.7177,0.7114,0.6983,0.6276,0.5791,0.5516,0.4143,0.3359,0.3098,0.1487,0.0422,-0.0141,-0.1316,-0.1885,-0.2042,-0.2456,-0.2682,0.0,0.0,-0.1388,-0.1035,-0.0561,-0.0056,0.0496,0.0802,0.0617,0.0294,0.0851,0.0,0.0724,0.0224,0.0742,0.139,0.0809,0.1823,0.2892,0.1717,0.2522,0.3602,0.3274,0.3978,0.4681,0.4491,0.5029,0.5431,0.4892,0.4398,0.3898,0.3368,0.2987,0.2418,0.0,0.0,0.0645,-0.0311,-0.1072,-0.1738,0.0,-0.2556,-0.3042,-0.3629,-0.4978,-0.6009,-0.6781,-0.765,-0.8086,-0.7842,-0.8688,-0.9253,-0.9302,-0.9302,-0.9302,-0.9302,-0.9302,-0.923,-0.9013,-0.8145,-0.7272,-0.6471,-0.5746,-0.4584,-0.3057,-0.2563,-0.1844,-0.0967,-0.0299,0.0,0.0,0.0,0.0154,0.0388,0.054,0.0928,0.14,0.0,0.0,0.0,0.0,0.0,0.0,0.0,0.0,0.0,0.5809,0.5687,0.5602,0.0,0.0,0.0,0.0,0.0,0.0,0.0,0.0,0.6052,0.6274,0.6482,0.6475,0.6271,0.5782,0.5129,0.4351,0.3745,0.3037,0.2196,0.1411,0.0748,0.0163,-0.1067,-0.1563,-0.1594,-0.2167,-0.2651,-0.2923,-0.1653,-0.1473,-0.1798,0.0,0.0,0.0071,0.0596,0.0619,0.0228,-0.0731,-0.0619,-0.0159,-0.0749,-0.0283,0.0595,0.0965,0.1857,0.282,0.3387,0.3656,0.3921,0.4733,0.4897,0.4765,0.4271,0.4998,0.5504,0.4429,0.3802,0.3457,0.3467,0.1771,0.0585,0.1203,0.0,0.0426,-0.006,-0.0303,-0.081,-0.1932,-0.2351,-0.304,-0.4373,-0.5204,-0.6069,-0.7106,-0.7897,-0.8563,-0.8959,-0.9057,-0.9188,-0.9302,-0.9302,-0.9302,-0.9302,-0.9302,-0.9163,-0.8801,-0.8801,-0.7928,-0.6253,-0.662,-0.5963,-0.4439,-0.3393,-0.2821,-0.2457,-0.0981,-0.0306,-0.0232,-0.0077,0.0,0.0157,0.0471,0.0942,0.1414,0.0,0.0,0.0,0.0,0.0,0.0,0.0,0.0,0.0,0.0,0.6149,0.5602,0.0,0.0,0.0,0.0,0.0,0.0,0.0,0.0,0.0,0.5736,0.5572,0.5494,0.548,0.4862,0.442,0.4157,0.3169,0.2355,0.1708,0.1056,0.024,-0.0693,-0.1313,-0.1874,-0.2344,-0.2839,-0.3091,-0.3083,-0.195,-0.1571,-0.1545,-0.0436,0.0,0.0,0.0123,-0.0028,-0.0318,-0.0727,-0.0921,-0.1082,-0.1572,-0.0379,0.1007,0.0201,0.17,0.3537,0.3371,0.3942,0.4733,0.5572,0.6042,0.6121,0.5347,0.5919,0.0,0.0,0.3762,0.3387,0.2547,0.2124,0.1624,0.0774,0.1111,0.1225,0.0425,-0.0628,-0.1351,0.0,-0.307,-0.4574,-0.5188,-0.6116,-0.6924,-0.7416,-0.7922,-0.8306,-0.8483,-0.8867,-0.9188,-0.9302,-0.9302,-0.9302,-0.9302,-0.9302,-0.923,-0.9163,-0.9163,-0.9013,-0.8724,-0.8796,-0.7923,-0.6475,-0.6411,-0.5444,-0.3771,-0.2597,-0.1857,-0.1486,-0.0391,0.0235,0.0471,0.055,0.1099,0.1807,0.0,0.0,0.0,0.0,0.0,0.0,0.0,0.6927,0.706,0.7182,0.6756,0.638,0.6246,0.6141,0.5965,0.0,0.0,0.0,0.0,0.0,0.0,0.0,0.0,0.0,0.0,0.493,0.4472,0.3885,0.0,0.2627,0.1692,0.1225,0.0579,-0.0201,-0.1094,-0.1634,-0.1917,-0.2642,-0.2903,-0.2777,-0.2002,-0.1603,0.0,0.0,0.0,0.0,0.0,-0.0082,-0.0313,-0.0374,-0.0658,-0.1148,-0.1582,-0.0343,0.1237,0.0933,0.2482,0.4189,0.3813,0.4529,0.5408,0.5739,0.6399,0.6647,0.5318,0.0,0.0,0.0,0.2816,0.2586,0.2168,0.16,0.0,0.0927,0.106,0.1134,0.0873,-0.0308,-0.1093,-0.1117,-0.3266,-0.4906,-0.5041,-0.634,-0.7133,-0.6987,-0.765,-0.8148,-0.8377,-0.8697,-0.8888,-0.9013,-0.9018,-0.909,-0.9302,-0.9302,-0.9157,-0.9018,-0.9018,-0.8874,-0.8657,-0.8936,-0.8669,-0.7943,-0.7493,-0.6672,-0.5724,-0.4328,-0.3198,-0.2117,-0.1569,-0.0628,0.0314,0.055,0.1021,0.1571,0.0,0.0,0.0,0.0,0.0,0.0,0.0,0.7121,0.7303,0.734,0.7352,0.7194,0.6813,0.6661,0.6465,0.0,0.0,0.0,0.0,0.0,0.0,0.0,0.0,0.0,0.0,0.0,0.0,0.3641,0.3641,0.0,0.0,0.0,0.0,0.0,-0.0733,-0.1216,-0.1217,-0.2078,-0.2407,0.0,0.0,-0.1458,0.0,0.0,0.0,0.0,0.0,0.0079,-0.006,-0.0032,-0.0289,-0.0751,-0.1051,-0.0095,0.1311,0.1885,0.3313,0.4631,0.4675,0.5374,0.6077,0.6022,0.6621,0.6807,0.5036,0.4969,0.0,0.2311,0.1859,0.1856,0.1847,0.0,0.0561,0.0,0.1012,0.095,0.1309,0.0,-0.113,0.0,-0.3583,0.0,-0.5218,-0.6423,-0.7074,-0.6685,-0.7474,-0.8107,-0.8372,-0.8601,-0.8729,-0.8801,-0.8801,-0.9018,-0.9302,-0.9302,-0.9101,-0.8765,-0.8812,-0.8609,-0.8148,-0.8651,-0.8839,-0.8721,-0.792,-0.7612,-0.7463,-0.5923,-0.4307,-0.2899,-0.2507,-0.1412,0.0,0.0393,0.0785,0.1178,0.0,0.0,0.0,0.0,0.0,0.0,0.0,0.7388,0.7618,0.782,0.7829,0.7538,0.6799,0.6742,0.6659,0.0,0.0,0.0,0.0,0.0,0.0,0.0,0.0,0.0,0.0,0.0,0.0,0.343,0.343,0.0,0.0,0.0,0.0,0.0,0.0,-0.0769,-0.0785,-0.1298,0.0,0.0,0.0,0.0,0.0,0.0,0.0,0.0,0.0,0.0271,0.0317,0.0,0.0,0.0034,0.0232,0.0509,0.0999,0.2275,0.0,0.0,0.6093,0.6652,0.6926,0.7315,0.7427,0.6854,0.4822,0.0,0.427,0.1563,0.1566,0.1852,0.1128,0.0976,0.0965,0.1084,0.1206,0.1324,0.1641,-0.0555,-0.2144,-0.2112,0.0,0.0,-0.6596,-0.6788,-0.6981,-0.7182,-0.7902,-0.8352,-0.8387,-0.8601,-0.8874,-0.923,-0.923,-0.923,-0.9302,-0.9302,-0.9144,-0.8882,-0.9138,-0.8904,-0.8351,-0.8716,-0.8731,-0.845,-0.8493,-0.8463,-0.8396,-0.6781,-0.5402,-0.4073,-0.2587,-0.1177,0.0,0.0079,0.0314,0.0628,0.0,0.0,0.0,0.0,0.0,0.0,0.669,0.7306,0.7559,0.6956,0.7192,0.716,0.6468,0.6603,0.6586,0.6259,0.0,0.0,0.0,0.0,0.0,0.0,0.0,0.0,0.0,0.0,0.4726,0.4307,0.3938,0.0,0.0,0.0,0.0,0.0,0.0,-0.0308,-0.0601,-0.1031,0.0,0.0,0.0,0.0,0.0,0.0,0.0,0.0,0.0,0.0,0.0519,0.0479,0.0,0.0,0.0983,0.1118,0.0,0.0,0.417,0.4767,0.5352,0.6245,0.6744,0.5267,0.584,0.6166,0.3867,0.0,0.3184,0.1282,0.1149,0.1269,0.0946,0.0926,0.0959,0.0971,0.1109,0.1127,0.0832,-0.0848,-0.2277,-0.2924,-0.4916,-0.6458,0.0,-0.7062,-0.7335,-0.7528,-0.7564,-0.7764,-0.8035,-0.825,-0.844,-0.8584,-0.8584,-0.876,-0.905,-0.9195,-0.9149,-0.8897,-0.8998,-0.895,-0.8671,-0.868,-0.8668,-0.8559,-0.8669,-0.8871,-0.9026,-0.8132,-0.7205,-0.6183,-0.5011,-0.3292,-0.149,-0.1255,-0.0392,0.055,0.0,0.0,0.0,0.0,0.0,0.7002,0.6388,0.7081,0.73,0.6317,0.6561,0.6669,0.6236,0.6503,0.6493,0.5995,0.6106,0.0,0.0,0.0,0.0,0.0,0.0,0.0,0.0,0.0,0.5118,0.4688,0.4224,0.3728,0.0,0.0,0.1824,0.1468,0.0,0.0,0.0,0.0,0.0,0.0,0.0,0.0,0.0,0.0,0.0,0.0,0.0,0.0,0.0,0.0,0.0,0.0566,0.1638,0.158,0.152,0.3634,0.461,0.4981,0.4712,0.5859,0.6458,0.409,0.4617,0.5177,0.0,0.0,0.2354,0.1161,0.0766,0.0657,0.0638,0.0586,0.0572,0.0612,0.0737,0.0708,0.0273,-0.1138,-0.2523,-0.3534,0.0,-0.6538,-0.7077,-0.7414,-0.7699,-0.7816,-0.7632,-0.7562,-0.7874,-0.7983,-0.8092,-0.8125,-0.8153,-0.8352,-0.8726,-0.894,-0.8955,-0.8775,-0.8741,-0.876,-0.883,-0.8721,-0.8559,-0.852,-0.859,-0.8778,-0.9007,-0.8667,-0.8028,-0.7166,-0.6544,-0.4909,-0.2886,-0.2193,-0.1177,-0.0157,0.0,0.0,0.0,0.0,0.0,0.0,0.6388,0.6772,0.6896,0.629,0.6209,0.6209,0.6209,0.6503,0.6405,0.5677,0.6102,0.0,0.0,0.0,0.0,0.0,0.0,0.0,0.0,0.0,0.513,0.4195,0.4071,0.3563,0.2701,0.2214,0.1999,0.196,0.0,0.0,0.0,0.0,0.0,0.0,0.0,0.0,0.0,0.0,0.0,0.0,0.0,0.0,0.0,0.0,0.0,0.0,0.0,0.1809,0.127,0.3067,0.4545,0.5457,0.478,0.5616,0.6312,0.4774,0.4338,0.3995,0.0,0.0,0.1966,0.1068,0.0466,0.0077,0.0026,-0.016,-0.0218,-0.0029,0.0,0.007,0.0194,-0.1428,-0.2951,0.0,-0.539,-0.6725,-0.7773,-0.7875,-0.7934,-0.8112,-0.826,-0.8298,-0.7988,-0.8093,-0.8198,-0.8298,-0.8328,-0.838,-0.8384,-0.838,-0.8512,-0.8617,-0.8431,-0.8569,-0.8769,-0.8669,-0.8447,-0.8237,-0.8237,-0.8237,-0.8228,-0.8052,-0.7467,-0.6692,-0.6236,-0.5314,-0.4011,-0.2499,-0.1882,-0.1726,0.0,0.0,0.0,0.0,0.0,0.0,0.0,0.5863,0.6039,0.5156,0.5363,0.5445,0.5089,0.5386,0.543,0.5014,0.6014,0.0,0.0,0.0,0.0,0.0,0.0,0.0,0.0,0.0,0.6088,0.5987,0.5301,0.4779,0.4398,0.3407,0.2516,0.1708,0.1439,0.0916,0.0,0.0,0.0,0.0,0.0,0.0,0.0,0.0,0.0,0.0,0.0,0.0,0.0,0.0,0.0,0.0,0.0,0.0,0.0,0.2923,0.3228,0.3463,0.3922,0.4345,0.4212,0.2444,0.2487,0.2663,0.1572,0.119,0.0969,0.073,0.022,-0.0196,-0.0255,-0.0333,-0.045,-0.0637,-0.054,-0.0642,-0.1341,0.0,0.0,-0.4411,-0.5942,-0.7219,-0.8046,-0.8135,-0.8177,-0.844,-0.8053,-0.7872,-0.7983,-0.7652,-0.7681,-0.8298,-0.8044,-0.8053,-0.8564,-0.8651,-0.867,-0.8621,-0.8812,-0.8831,-0.8669,-0.8402,-0.8128,-0.7686,-0.7686,-0.792,-0.8154,-0.7808,-0.7873,-0.8028,-0.7325,-0.6467,-0.5456,-0.3836,-0.2667,-0.1726,0.0,0.0,0.0,0.0,0.0,0.0,0.0,0.518,0.5285,0.4496,0.4673,0.4834,0.4754,0.4948,0.4988,0.4719,0.5652,0.0,0.0,0.0,0.0,0.0,0.0,0.0,0.5344,0.6141,0.6606,0.6696,0.5832,0.5258,0.4997,0.3916,0.2884,0.192,0.1702,0.1112,0.0,0.0,0.0,0.0,0.0,0.0,0.0327,0.0,0.0,0.0,0.0,0.0,0.0,0.0,0.0,0.0,0.0,0.0,0.0,0.0,0.2667,0.2102,0.3006,0.3473,0.3284,0.1617,0.1493,0.1601,0.0975,0.0576,0.0328,0.0361,-0.0071,-0.052,-0.0699,-0.0715,-0.0799,-0.106,-0.1066,-0.1235,-0.1914,0.0,0.0,-0.5321,-0.6666,-0.7609,-0.8095,-0.8135,-0.8186,-0.8236,-0.8015,-0.7946,-0.7983,-0.8112,-0.8217,-0.8298,-0.7763,-0.7691,-0.8103,-0.8398,-0.8474,-0.8331,-0.8602,-0.8674,-0.8559,-0.8247,-0.7911,-0.7709,-0.7709,-0.7808,0.0,-0.7726,-0.8019,-0.8411,-0.7864,-0.7395,-0.6774,-0.5086,-0.3999,-0.3058,0.0,0.0,0.0,0.0,0.0,0.0,0.0,0.4662,0.4682,0.4238,0.418,0.4409,0.4966,0.5001,0.4914,0.4658,0.0,0.0,0.0,0.0,0.0,0.0,0.0,0.0,0.5402,0.6304,0.6707,0.6517,0.581,0.5204,0.4716,0.3843,0.3114,0.2501,0.1878,0.1268,0.0,0.0,0.0,0.0,0.0111,0.0262,0.0,0.0,0.0,0.0,0.0,0.0,0.0,0.0,0.0,0.0,0.0,0.0,0.0,0.0,0.0,0.0,0.0,0.2945,0.3154,0.1983,0.129,0.089,0.0896,0.0416,0.0,-0.0024,-0.0393,-0.0853,-0.1219,-0.1277,-0.127,-0.1331,-0.1591,-0.1802,0.0,-0.3008,0.0,0.0,-0.7448,-0.79,-0.8022,-0.8065,-0.8035,-0.7733,-0.8114,-0.8228,-0.7988,-0.9258,-0.9435,-0.8283,-0.7713,-0.7469,-0.7415,-0.7794,-0.8022,-0.7938,-0.8031,-0.8255,-0.8459,-0.8163,-0.7987,-0.7999,-0.8008,-0.7825,-0.7509,-0.7821,-0.794,-0.7932,-0.794,-0.7936,-0.7787,-0.6163,-0.5564,-0.5251,0.0,0.0,0.0,0.0,0.0,0.0,0.0,0.0,0.0,0.0,0.4051,0.4095,0.4246,0.4157,0.4081,0.0,0.0,0.0,0.0,0.0,0.0,0.0,0.0,0.0,0.5402,0.6277,0.6701,0.6654,0.6217,0.5659,0.4992,0.422,0.3468,0.2776,0.208,0.1206,0.0,0.0,0.0,0.0,0.0249,0.0345,0.0,0.0,0.0,0.0,0.0697,0.0697,0.0,0.0,0.0,0.0,0.0,0.0,0.0,0.0,0.2623,0.2111,0.2817,0.0,0.1758,0.147,0.1081,0.0781,0.0,0.0285,-0.027,-0.0185,-0.0601,-0.1071,-0.1275,-0.1488,-0.1686,-0.1741,-0.2256,-0.2697,-0.2908,0.0,0.0,-0.687,-0.7294,-0.7648,-0.828,-0.8404,-0.837,-0.8083,-0.7981,-0.7809,-0.7567,-0.8626,-0.8688,-0.7379,-0.8415,-0.8795,-0.8234,-0.8253,-0.8258,-0.8389,-0.9016,-0.9016,-0.8535,-0.869,-0.8403,-0.7822,-0.7977,-0.7791,-0.7423,-0.755,-0.7606,-0.7552,-0.7623,-0.7606,-0.7399,-0.6085,-0.5564,-0.5251,0.0,0.0,0.0,0.0,0.0,0.0,0.0,0.0,0.0,0.0,0.0,0.3599,0.3599,0.353,0.0,0.0,0.0,0.0,0.0,0.0,0.0,0.0,0.0,0.5485,0.5255,0.5935,0.6368,0.6568,0.6138,0.5709,0.5318,0.4565,0.3789,0.2961,0.192,0.1007,0.0,0.0,0.0,0.0351,0.0343,0.0,0.0,0.0,0.0,0.0,0.0697,0.0697,0.0,0.0697,0.0697,0.0763,0.0,0.0,0.0,0.0,0.2332,0.1935,0.24,0.1994,0.141,0.1251,0.0883,0.0529,0.0458,-0.0101,-0.0573,-0.0479,-0.0723,-0.1169,-0.1809,-0.1989,-0.2245,-0.2942,-0.3167,0.0,0.0,0.0,-0.6308,-0.7317,-0.7511,-0.7801,-0.8465,-0.8419,-0.8215,-0.7878,-0.7819,-0.7905,-0.8258,-0.8916,-0.9193,-0.9057,-0.9264,-0.8811,-0.7799,-0.8307,-0.8381,-0.8095,-0.8963,-0.8889,-0.8095,-0.8469,-0.8202,-0.7497,-0.7924,-0.7822,-0.7333,-0.7536,-0.7604,-0.7566,-0.7663,-0.7642,-0.7498,-0.7011,-0.6619,-0.6025,0.0,0.0,0.0,0.0,0.0,0.0,0.0,0.0,0.0,0.0,0.0,0.0,0.0,0.0,0.0,0.0,0.0,0.0,0.0,0.0,0.0,0.0,0.0,0.5149,0.5103,0.5545,0.5928,0.6263,0.5839,0.5595,0.5478,0.481,0.3949,0.2929,0.1769,0.0893,0.0,0.0,0.0357,0.0435,0.0433,0.0,0.0,0.0,0.0,0.0,0.0,0.0,0.0,0.0697,0.072,0.0831,0.1336,0.0,0.0,0.0,0.0,0.0,0.1627,0.163,0.1497,0.1097,0.0661,0.0229,-0.0051,-0.0483,-0.0814,-0.0814,-0.0893,-0.1334,-0.2449,-0.2619,-0.297,-0.4121,-0.4035,0.0,-0.5572,-0.6432,-0.7199,-0.7968,-0.8064,-0.8228,-0.8442,-0.8312,-0.7989,-0.7459,-0.7839,-0.8454,-0.9166,-0.9781,-1.0487,-1.142,-1.008,-0.8723,-0.7327,-0.8231,-0.8309,-0.7638,-0.846,-0.8455,-0.7638,-0.8005,-0.7833,-0.7326,-0.8003,-0.7909,-0.7394,-0.7707,-0.7778,-0.7699,-0.7888,-0.787,-0.7809,-0.7757,-0.7411,-0.669,0.0,0.0,0.0,0.0,0.0,0.0,0.0,0.0,0.0,0.0,0.0,0.0,0.0,0.0,0.0,0.0,0.0,0.0,0.0,0.0,0.0,0.408,0.4636,0.4985,0.5086,0.5451,0.5669,0.5727,0.575,0.5502,0.4998,0.466,0.3715,0.2317,0.2132,0.148,0.0522,0.0419,0.0479,0.0643,0.0535,0.0,0.0,0.0,0.0,0.0,0.0,0.0,0.0,0.0697,0.0765,0.0895,0.1056,0.0,0.0,0.0,0.0,0.0,0.1558,0.1561,0.1366,0.075,0.0238,-0.0132,-0.0185,-0.0555,-0.0872,-0.0872,-0.1377,-0.1924,-0.2283,-0.3206,-0.3895,-0.3815,-0.4254,-0.518,-0.6808,-0.7399,-0.7987,-0.8767,-0.8961,-0.873,-0.8089,-0.8331,-0.8123,-0.7121,-0.8579,-0.9257,-0.8826,-1.1097,-1.1991,-1.1069,-1.1089,-1.0341,-0.8718,-0.8117,-0.7724,-0.7638,-0.8382,-0.8309,-0.7638,-0.8295,-0.8377,-0.7961,-0.8191,-0.8016,-0.7669,-0.7752,-0.7589,-0.7236,-0.7401,-0.7642,-0.7725,-0.6142,-0.5698,-0.552,0.0,0.0,0.0,0.0,0.0,0.0,0.0,0.0,0.0,0.0,0.0,0.0,0.0,0.0,0.0,0.0,0.0,0.0,0.0,0.0,0.0,0.3138,0.3492,0.4052,0.4758,0.4995,0.5137,0.5225,0.5349,0.5275,0.4995,0.4647,0.3743,0.2369,0.2336,0.1669,0.0601,0.057,0.0624,0.0694,0.0,0.0,0.0,0.0,0.0,0.0,0.0,0.0,0.0,0.0,0.0796,0.0877,0.1002,0.0,0.0,0.0,0.0,0.0,0.0973,0.0778,0.0402,-0.0342,-0.04,-0.0295,-0.0466,-0.107,-0.1615,-0.1917,-0.2172,-0.2795,-0.4292,-0.4339,-0.4203,-0.4335,-0.5511,-0.6702,-0.7489,-0.8785,-0.9802,-1.0339,-1.0044,-0.961,-0.921,-0.9168,-0.8889,-0.8289,-0.9455,-1.0365,-1.0743,-1.1368,-1.1835,-1.2044,-1.0833,-0.976,-0.8975,-0.7877,-0.7349,-0.7638,-0.815,-0.8222,-0.786,-0.8222,-0.815,-0.786,-0.8052,-0.7856,-0.7348,-0.7759,-0.775,-0.743,-0.7713,-0.7862,-0.7486,-0.559,-0.4068,-0.2888,0.0,0.0,0.0,0.0,0.0,0.0,0.0,0.0,0.0,0.0,0.0,0.0,0.0,0.0,0.0,0.0,0.0,0.0,0.0,0.0,0.2392,0.2392,0.2589,0.3206,0.427,0.4445,0.4654,0.4887,0.5063,0.5117,0.5042,0.4603,0.3713,0.2536,0.232,0.1642,0.0652,0.0704,0.0713,0.0706,0.0,0.0,0.0,0.0,0.0,0.0,0.0,0.0,0.0,0.0,0.0,0.0,0.0,0.0,0.0,0.1264,0.1056,0.0713,0.0463,0.0167,-0.0238,-0.0946,-0.0835,-0.0647,-0.1005,-0.1581,-0.2183,-0.2645,-0.2952,-0.375,-0.57,-0.5309,-0.4915,-0.5584,-0.6912,-0.8034,-0.8637,-1.0147,-1.1414,-1.1861,-1.1339,-1.0806,-1.0612,-1.0058,-0.9563,-0.9163,-1.0175,-1.1169,-1.2022,-1.1806,-1.203,-1.2882,-1.0694,-0.9301,-0.8975,-0.7661,-0.7131,-0.7494,-0.7788,-0.7933,-0.786,-0.7933,-0.786,-0.7638,-0.786,-0.7643,-0.7208,-0.786,-0.786,-0.7502,-0.7966,-0.7443,-0.621,-0.4457,-0.2216,-0.0149,0.0,0.0,0.0,0.0,0.0,0.0,0.0,0.0,0.0,0.0,0.0,0.0,0.0,0.0,0.0,0.0,0.0,0.0,0.0,0.0,0.2392,0.2392,0.2589,0.3016,0.3655,0.3918,0.4327,0.4887,0.5203,0.5203,0.4901,0.4296,0.3559,0.2647,0.2021,0.1381,0.0779,0.0799,0.0768,0.0692,0.0707,0.0,0.0,0.0,0.0,0.0,0.0,0.0,0.0,0.0,0.0,0.0,0.0,0.0,0.1204,0.1287,0.1028,0.0665,0.046,0.0368,0.0247,-0.0164,-0.0759,-0.1358,-0.187,-0.1973,-0.1986,-0.2187,-0.3643,-0.4798,-0.4733,-0.5664,-0.6767,-0.7791,-0.7962,-0.8679,-1.0777,-1.1415,-1.196,-1.2725,-1.276,-1.2366,-1.1406,-1.0674,-0.9823,-0.8751,-1.0558,-1.1424,-1.0868,-1.321,-1.4112,-1.2949,-1.1556,-1.0253,-0.9046,-0.7661,-0.699,-0.7063,-0.7421,-0.7421,-0.7063,-0.7494,-0.7638,-0.7566,-0.7638,-0.7638,-0.7566,-0.7933,-0.7715,-0.7071,-0.753,-0.5779,-0.2741,-0.1556,0.0295,0.2046,0.0,0.0,0.0,0.0,0.0,0.0,0.0,0.0,0.0,0.0,0.0,0.0,0.0,0.0,0.0,0.0,0.0,0.0,0.0,0.1304,0.1409,0.1409,0.1512,0.1874,0.246,0.3066,0.3691,0.4333,0.4596,0.4558,0.4211,0.363,0.3125,0.2679,0.2041,0.1411,0.0781,0.0497,0.0333,0.0246,0.0,-0.0103,0.0,0.0,0.0,0.0,0.0,0.0,0.0,0.0,0.0393,0.0374,0.0891,0.1012,0.094,0.093,0.0702,0.0397,0.0114,-0.0351,-0.0841,-0.136,-0.2123,-0.2618,-0.2124,-0.3017,-0.3918,-0.3797,-0.503,-0.6092,-0.6006,-0.7562,-0.8635,-0.793,-0.8757,-0.9981,-1.1457,-1.2397,-1.3283,-1.414,-1.3585,-1.3046,-1.2876,-1.2451,-1.1865,-1.1199,-1.2653,-1.3388,-1.2931,-1.328,-1.2946,-1.1733,-1.0442,-0.9106,-0.7796,-0.7259,-0.699,-0.699,-0.7131,-0.7276,-0.7349,-0.7276,-0.7498,-0.786,-0.7421,-0.7349,-0.7638,-0.7711,-0.7498,-0.6918,-0.6144,-0.4397,-0.22,-0.0807,0.0805,0.2333,0.0,0.0,0.0,0.0,0.0,0.0,0.0,0.0,0.0,0.0,0.0,0.0,0.0,0.0,0.0,0.0,0.0,0.0,0.0337,0.0314,0.0453,0.0782,0.0675,0.0897,0.1511,0.2068,0.2772,0.3691,0.3878,0.3808,0.3534,0.2983,0.2621,0.24,0.179,0.1159,0.0555,0.0227,-0.0024,-0.0245,-0.0504,-0.0606,0.0,0.0,0.0,0.0,0.0,0.0,0.0,0.0,0.005,0.0017,0.0639,0.0733,0.0607,0.058,0.0184,-0.0283,-0.0489,-0.1259,-0.2064,-0.2314,-0.3307,-0.3997,-0.308,-0.421,-0.5457,-0.5553,-0.6528,-0.751,-0.7966,-0.9055,-0.9602,-0.8786,-0.9761,-1.1041,-1.2214,-1.3081,-1.3975,-1.4986,-1.4231,-1.3786,-1.4173,-1.3713,-1.3172,-1.2786,-1.3667,-1.4079,-1.3807,-1.3257,-1.2268,-1.0995,-0.9759,-0.8394,-0.6905,-0.6905,-0.6921,-0.6945,-0.6945,-0.7106,-0.7421,-0.7276,-0.7498,-0.7933,-0.7425,-0.7349,-0.7566,-0.7566,-0.7131,-0.6257,-0.4729,-0.3057,-0.1384,0.0073,0.1239,0.2114,0.0,0.0,0.0,0.0,0.0,0.0,0.0,0.0,0.0,0.0,0.0,0.0,0.0,0.0,0.0,0.0,0.0,0.0,-0.0022,-0.0506,-0.0327,0.0757,0.027,0.028,0.0897,0.0898,0.1584,0.2983,0.3128,0.3124,0.2983,0.2369,0.1997,0.1762,0.1149,0.0593,0.0101,0.0076,-0.0217,-0.071,-0.0631,-0.0609,-0.0602,0.0,0.0,0.0,0.0,0.0,0.0,0.0,-0.0101,-0.0067,0.0218,0.0245,0.0202,0.0271,-0.0501,-0.1374,-0.1314,-0.2295,-0.3204,-0.2741,-0.4122,-0.5474,-0.4949,-0.5435,-0.6307,-0.7282,-0.8086,-0.9071,-1.0542,-0.9868,-0.9518,-1.0776,-1.1084,-1.162,-1.3217,-1.344,-1.382,-1.4976,-1.4781,-1.4696,-1.5224,-1.4224,-1.3332,-1.2865,-1.3144,-1.3144,-1.2816,-1.3253,-1.2673,-1.0914,-0.9898,-0.8521,-0.6725,-0.6725,-0.677,-0.6923,-0.6923,-0.69,-0.699,-0.7421,-0.7638,-0.7638,-0.7638,-0.7638,-0.7638,-0.7566,-0.6616,-0.5017,-0.3494,-0.1675,0.0146,0.1384,0.1822,0.1822,0.0,0.0,0.0,0.0,0.0,0.0,0.0,0.0,0.0,0.0,0.0,0.0,0.0,0.0,0.0,0.0,0.0,0.0,-0.0783,-0.0753,-0.0416,0.0277,-0.0264,-0.0109,0.0869,0.0898,0.1136,0.1603,0.2165,0.2324,0.2145,0.155,0.1225,0.1146,0.0532,-0.0027,-0.0555,-0.0883,-0.1068,-0.115,-0.1406,-0.1459,-0.1367,0.0,0.0,0.0,0.0,0.0,0.0,0.0,0.0,0.0,0.0067,0.0161,-0.0019,-0.0039,-0.0299,-0.0729,-0.1515,-0.2539,-0.3545,-0.4195,-0.5556,-0.692,-0.7798,-0.7503,-0.7383,-0.8467,-0.9103,-0.9739,-1.0612,-1.1124,-1.1407,-1.1349,-1.1855,-1.2635,-1.3709,-1.3809,-1.4163,-1.5193,-1.4951,-1.4798,-1.514,-1.4778,-1.4345,-1.4078,-1.4261,-1.4409,-1.4392,-1.2921,-1.221,-1.2665,-0.9829,-0.8248,-0.8179,-0.7488,-0.7017,-0.6766,-0.6766,-0.6985,-0.7421,-0.7566,-0.7856,-0.8362,-0.7856,-0.7928,-0.8218,-0.6616,-0.5525,-0.4581,-0.1893,-0.051,0.0146,0.1384,0.1968,0.2114,0.0,0.0,0.0,0.0,0.0,0.0,0.0,0.0,0.0,0.0,-0.1386,-0.1657,0.0,0.0,0.0,-0.1768,-0.1572,-0.1398,-0.1223,-0.1336,-0.1057,-0.0246,-0.0767,-0.0663,0.0192,0.0224,0.023,0.0238,0.1188,0.1579,0.1442,0.106,0.0781,0.0532,0.0168,-0.0405,-0.1109,-0.1387,-0.1533,-0.1588,-0.1816,-0.1825,-0.1699,0.0,0.0,0.0,0.0,0.0,0.0,0.0,0.0,0.0,-0.0225,-0.0121,-0.0355,-0.0851,-0.1309,-0.19,-0.3006,-0.4094,-0.5067,-0.5615,-0.675,-0.8002,-0.8942,-0.9127,-0.9294,-0.9919,-1.0288,-1.0691,-1.1159,-1.1808,-1.2144,-1.1894,-1.2455,-1.3226,-1.3895,-1.4059,-1.4419,-1.5287,-1.5052,-1.4896,-1.5111,-1.5003,-1.4819,-1.4761,-1.48,-1.5005,-1.5267,-1.346,-1.2842,-1.3635,-1.0493,-0.9114,-0.9739,-0.8591,-0.8207,-0.8523,-0.802,-0.8128,-0.8796,-0.8083,-0.8035,-0.844,-0.8005,-0.8078,-0.8295,-0.6253,-0.4872,-0.3782,-0.1529,-0.0073,0.0729,0.1166,0.1459,0.1532,0.0,0.0,0.0,0.0,0.0,0.0,0.0,0.0,0.0,-0.1478,-0.1876,-0.2162,0.0,0.0,0.0,-0.2488,-0.2203,-0.187,-0.1514,-0.2123,-0.1957,-0.0832,-0.1186,-0.1256,-0.0873,-0.0821,-0.0808,-0.089,0.0267,0.0784,0.0733,0.0733,0.0404,-0.0168,-0.0168,-0.0701,-0.1588,-0.1588,-0.1742,-0.1976,-0.1915,-0.1821,-0.1687,-0.1612,0.0,0.0,0.0,0.0,0.0,0.0,0.0,0.0,-0.0603,-0.0514,-0.0721,-0.1813,-0.2939,-0.4035,-0.5068,-0.6268,-0.7207,-0.6874,-0.7781,-0.8806,-0.9063,-1.0387,-1.1498,-1.1316,-1.1483,-1.1682,-1.2001,-1.2055,-1.211,-1.2382,-1.2827,-1.3384,-1.3895,-1.4174,-1.4595,-1.5297,-1.5052,-1.4896,-1.5111,-1.5003,-1.4996,-1.4968,-1.4968,-1.5098,-1.5499,-1.4536,-1.4024,-1.4128,-1.1822,-1.0826,-1.141,-1.0101,-0.9965,-1.1163,-0.9954,-0.9817,-1.0434,-0.8773,-0.806,-0.8078,-0.815,-0.8078,-0.786,-0.6253,-0.4509,-0.2836,-0.1821,-0.0146,0.1677,0.0948,0.0657,0.0729,0.0,0.0,0.0,0.0,0.0,0.0,0.0,0.0,-0.2415,-0.201,-0.2393,-0.2695,-0.2581,-0.257,0.0,-0.251,-0.2327,-0.2244,-0.2259,-0.2267,-0.2002,-0.1426,-0.1013,-0.0962,-0.1354,-0.0893,-0.0702,-0.0835,-0.0589,-0.0512,-0.0508,-0.0508,-0.0845,-0.1427,-0.1427,-0.1698,-0.2216,-0.2216,-0.2106,-0.1927,-0.191,-0.1784,-0.1612,-0.1543,-0.1514,0.0,0.0,0.0,0.0,0.0,0.0,0.0,-0.0711,-0.0578,-0.0652,-0.1424,-0.2356,-0.338,-0.4547,-0.589,-0.7086,-0.7555,-0.8628,-0.9696,-1.0042,-1.0568,-1.0954,-1.0659,-1.1142,-1.1728,-1.2219,-1.2327,-1.2327,-1.2382,-1.2827,-1.3384,-1.3895,-1.4405,-1.489,-1.5358,-1.5299,-1.5272,-1.5493,-1.54,-1.5394,-1.5475,-1.5199,-1.5327,-1.5957,-1.4521,-1.4401,-1.5899,-1.3564,-1.2568,-1.3325,-1.2208,-1.1035,-0.994,-0.9814,-0.9406,-0.8917,-0.8683,-0.8415,-0.815,-0.844,-0.8078,-0.7059,-0.4872,-0.3564,-0.2694,-0.0365,0.1094,0.175,0.124,0.124,0.1458,0.0,0.0,0.0,0.0,0.0,0.0,0.0,0.0,-0.2629,-0.2423,-0.2576,-0.269,-0.2604,-0.2599,0.0,0.0,-0.2397,-0.237,-0.2317,-0.2335,-0.2229,-0.1937,-0.158,-0.1518,-0.1863,-0.157,-0.1472,-0.1556,-0.1663,-0.1431,-0.0894,-0.0894,-0.1229,-0.179,-0.179,-0.2021,-0.2392,-0.2392,-0.2209,-0.1902,-0.1902,-0.1772,-0.1605,-0.1705,-0.1724,-0.1679,-0.1647,0.0,0.0,0.0,0.0,0.0,0.0,0.0,-0.1058,-0.1953,-0.2809,-0.3797,-0.5233,-0.6386,-0.7383,-0.8107,-0.9252,-1.0201,-0.9996,-1.0465,-1.0861,-1.0664,-1.1135,-1.1682,-1.1946,-1.2219,-1.2628,-1.3337,-1.4027,-1.4593,-1.502,-1.5652,-1.5891,-1.5489,-1.5391,-1.5401,-1.561,-1.5559,-1.5579,-1.5587,-1.5449,-1.564,-1.634,-1.5376,-1.5475,-1.6947,-1.4903,-1.425,-1.5108,-1.3923,-1.28,-1.1871,-1.1383,-1.0291,-0.876,-0.8724,-0.8584,-0.8367,-0.844,-0.7638,-0.6257,-0.4291,-0.291,-0.1892,0.0365,0.124,0.1167,0.1022,0.0948,0.0875,0.0,0.0,0.0,0.0,0.0,0.0,0.0,0.0,0.0,-0.2663,-0.2566,-0.2495,-0.2474,-0.2474,-0.2406,0.0,0.0,0.0,-0.2151,-0.2337,-0.2403,-0.2273,-0.2194,-0.2184,-0.2255,-0.2253,-0.2282,-0.2372,-0.2488,-0.2078,-0.1191,-0.1198,-0.1481,-0.1958,-0.1946,-0.2115,-0.2392,-0.2401,-0.2197,-0.1902,-0.1902,-0.1809,-0.1692,-0.1906,-0.1975,-0.1982,-0.2003,-0.1965,-0.1852,-0.1576,0.0,0.0,0.0,0.0,-0.1547,-0.2603,-0.3505,-0.4467,-0.5967,-0.6916,-0.7704,-0.8543,-0.955,-1.0226,-0.967,-1.0228,-1.0811,-1.0811,-1.117,-1.1564,-1.1627,-1.2001,-1.283,-1.4371,-1.5099,-1.5626,-1.6115,-1.6704,-1.6654,-1.5569,-1.5379,-1.5453,-1.5676,-1.5653,-1.559,-1.5717,-1.5549,-1.5866,-1.6655,-1.6339,-1.6583,-1.7582,-1.6148,-1.5769,-1.6634,-1.5238,-1.4381,-1.4119,-1.2626,-1.0911,-0.9068,-0.8894,-0.8729,-0.8584,-0.8005,-0.6986,-0.5528,-0.3855,-0.2328,-0.1019,0.051,0.0949,0.073,0.0657,0.0365,0.0073,0.0,0.0,0.0,0.0,0.0,0.0,0.0,0.0,0.0,0.0,-0.2512,-0.2463,-0.2346,-0.2317,-0.2269,-0.2135,-0.2135,-0.2182,-0.2273,0.0,0.0,-0.2138,-0.2058,-0.2023,-0.2036,-0.2034,-0.2099,-0.2234,-0.2298,-0.2355,-0.2385,-0.243,-0.2491,-0.2575,-0.2524,-0.2463,-0.2388,-0.2331,-0.2162,-0.1902,-0.1902,-0.1919,-0.1937,-0.1918,-0.2056,-0.2233,-0.213,-0.2004,-0.189,-0.1852,-0.1599,0.0,0.0,0.0,-0.1614,-0.236,-0.342,-0.4521,-0.5282,-0.6479,-0.7735,-0.8788,-0.9168,-0.9407,-0.974,-1.0168,-1.049,-1.049,-1.0837,-1.1345,-1.1837,-1.2001,-1.2612,-1.4316,-1.4158,-1.4396,-1.6,-1.5722,-1.5483,-1.5585,-1.5466,-1.5636,-1.6147,-1.567,-1.5597,-1.6168,-1.5484,-1.5576,-1.6706,-1.6469,-1.679,-1.7893,-1.7464,-1.7206,-1.7335,-1.5694,-1.425,-1.2997,-1.0512,-0.9277,-0.9068,-0.9181,-0.8874,-0.815,-0.7059,-0.6112,-0.5096,-0.2548,-0.1384,-0.1093,0.0219,0.0876,0.1095,0.073,0.0584,0.0511,0.0,0.0,0.0,0.0,0.0,0.0,0.0,0.0,0.0,0.0,0.0,-0.2248,-0.22,-0.2194,-0.2156,-0.2103,-0.2097,-0.215,-0.2285,-0.2233,-0.2194,-0.2214,-0.2078,-0.2019,-0.2058,-0.1983,-0.203,-0.2208,-0.2411,-0.2581,-0.2704,-0.3017,-0.2963,-0.264,-0.2813,-0.2782,-0.2631,-0.2799,-0.2759,-0.2584,-0.2584,-0.3031,-0.3666,-0.2956,-0.3277,-0.3966,-0.3048,-0.2683,-0.2608,-0.2407,-0.2136,-0.1872,-0.1932,0.0,0.0,0.0,-0.3047,-0.4039,-0.5682,-0.709,-0.8273,-0.8901,-0.9104,-0.9195,-0.9287,-0.9583,-0.992,-1.0076,-1.0371,-1.0774,-1.1365,-1.1782,-1.2502,-1.414,-1.4378,-1.4695,-1.5614,-1.5634,-1.5355,-1.4798,-1.4823,-1.5039,-1.5389,-1.5285,-1.5297,-1.56,-1.5389,-1.5748,-1.6786,-1.6487,-1.6831,-1.7958,-1.7658,-1.7012,-1.6019,-1.5694,-1.4315,-1.1886,-0.998,-0.9084,-0.8938,-0.8191,-0.7652,-0.7131,-0.6624,-0.5093,-0.2841,-0.1457,-0.0437,0.0219,0.0729,0.0875,0.0803,0.0438,0.0292,0.0365,0.0,0.0,0.0,0.0,0.0,0.0,0.0,0.0,0.0,0.0,0.0,-0.2097,-0.2097,0.0,0.0,0.0,-0.2097,-0.2191,-0.2384,-0.239,-0.2429,-0.2526,-0.2376,-0.2301,-0.2358,-0.2251,-0.2268,-0.2432,-0.2703,-0.2859,-0.2931,-0.329,-0.3199,-0.2796,-0.3049,-0.3058,-0.295,-0.317,-0.3204,-0.3129,-0.3482,-0.4272,-0.5123,-0.4351,-0.4779,-0.5574,-0.4086,-0.3509,-0.339,-0.2962,-0.2661,-0.244,-0.2354,-0.2311,0.0,0.0,0.0,-0.3878,-0.6094,0.0,-0.8282,-0.8731,-0.9044,-0.9154,-0.889,-0.9291,-0.9741,-0.9849,-1.0071,-1.0404,-1.0895,-1.1458,-1.2318,-1.3892,-1.4361,-1.47,-1.5344,-1.5321,-1.4982,-1.421,-1.437,-1.4635,-1.4877,-1.4869,-1.4935,-1.5105,-1.5162,-1.5695,-1.6848,-1.6498,-1.6904,-1.8086,-1.7787,-1.6807,-1.5033,-1.4838,-1.339,-1.0638,-0.9851,-0.9177,-0.8774,-0.786,-0.6931,-0.5867,-0.5522,-0.3785,-0.1166,-0.0437,0.0365,0.1241,0.1312,0.1021,0.0584,0.0292,0.0365,0.0729,0.0,0.0,0.0,0.0,0.0,0.0,0.0,0.0,0.0,0.0,0.0,-0.2097,-0.2097,-0.2097,-0.2097,-0.2097,-0.2097,-0.227,-0.266,-0.2976,-0.3141,-0.3149,-0.3083,0.0,-0.305,-0.3046,-0.3043,-0.305,-0.3136,-0.3198,-0.3277,-0.3297,-0.3292,-0.3274,-0.3274,-0.3292,-0.3269,-0.3236,-0.3163,-0.3215,-0.4567,-0.5243,-0.5544,-0.5984,-0.6312,-0.6365,-0.5012,-0.4366,-0.4057,-0.3382,-0.3038,-0.2823,-0.2497,-0.2479,-0.2595,0.0,0.0,0.0,-0.5937,-0.6643,0.0,-0.8175,-0.8854,-0.9254,0.0,-0.9705,-1.0253,-0.9957,-1.0168,-1.0424,-1.0584,-1.1019,-1.1898,-1.3642,-1.3332,-1.3506,-1.5175,-1.437,-1.3858,-1.4427,-1.4483,-1.4692,-1.5109,-1.4676,-1.4534,-1.5035,-1.46,-1.5033,-1.6836,-1.6549,-1.7019,-1.8495,-1.8173,-1.712,-1.5414,-1.2734,-1.0704,-0.9183,-0.9581,-0.9443,-0.8843,-0.9176,-0.7608,-0.4501,-0.3112,-0.2039,-0.1093,0.0438,0.1168,0.1241,0.1604,0.1312,0.0584,0.0584,0.1239,0.2184,0.0,0.0,0.0,0.0,0.0,0.0,0.0,0.0,0.0,0.0,0.0,0.0,0.0,-0.2812,-0.2812,-0.2812,-0.2812,-0.2861,-0.301,-0.3126,-0.3192,-0.3192,-0.3142,-0.3126,-0.3159,-0.303,-0.3044,-0.3172,-0.3357,-0.3443,-0.3438,-0.3639,-0.3669,-0.3566,-0.364,-0.3645,-0.3575,-0.381,-0.3883,-0.3993,-0.5413,-0.6351,-0.6899,-0.6827,-0.7614,-0.8506,-0.6862,0.0,-0.5389,-0.5249,-0.4265,-0.3078,-0.2949,-0.2796,-0.2683,-0.2796,-0.3502,-0.4481,-0.5614,-0.6276,0.0,-0.8042,-0.852,-0.8734,-0.8935,-0.9196,-0.9493,-0.9833,-0.99,-0.9933,-1.0127,-1.0758,-1.1523,-1.2121,-1.2417,-1.2853,-1.3703,-1.3382,-1.3272,-1.3658,-1.3878,-1.403,-1.4224,-1.4102,-1.4188,-1.4458,-1.4323,-1.4976,-1.6531,-1.6503,-1.6677,-1.7238,-1.713,-1.5944,-1.3726,-1.163,-1.0518,-1.0452,-1.0372,-0.9923,-0.8979,-0.8423,-0.6529,-0.3597,-0.2573,-0.1517,-0.0365,0.0438,0.0803,0.0803,0.0657,0.0657,0.0511,0.0,0.0875,0.2474,0.0,0.0,0.0,0.0,0.0,0.0,0.0,0.0,-0.3331,-0.3331,0.0,0.0,0.0,0.0,-0.3307,-0.3216,-0.3307,-0.3364,-0.3364,-0.3409,-0.3438,-0.3438,-0.3313,-0.3262,-0.3293,-0.3161,-0.3206,-0.3424,-0.3543,-0.3628,-0.3665,-0.3817,-0.3832,-0.3694,-0.38,-0.3825,-0.3817,-0.4083,-0.4256,-0.4536,-0.6454,-0.7619,-0.8198,-0.833,-0.9207,-1.014,-0.8163,-0.7393,-0.7276,-0.7047,-0.622,-0.5138,-0.4297,-0.3466,-0.2814,-0.3033,-0.3635,-0.4388,-0.5291,-0.6031,-0.6754,-0.7644,-0.8141,-0.8433,-0.859,-0.8877,-0.9235,-0.9688,-0.9654,-0.968,-0.9987,-1.0561,-1.0983,-1.1186,-1.1881,-1.2491,-1.2718,-1.2718,-1.2827,-1.3152,-1.3315,-1.3478,-1.3694,-1.376,-1.3841,-1.404,-1.4147,-1.4769,-1.6084,-1.5825,-1.5711,-1.5934,-1.5499,-1.4642,-1.3341,-1.1703,-1.1115,-1.1571,-1.1314,-1.0711,-0.9769,-0.9058,-0.7115,-0.4239,-0.3942,-0.2292,0.0219,0.0365,0.0365,0.0365,0.0219,0.0219,0.0219,0.051,0.1676,0.3346,0.0,0.0,0.0,0.0,0.0,0.0,0.0,0.0,-0.3636,-0.3636,0.0,0.0,0.0,0.0,0.0,-0.3266,-0.3528,-0.3714,-0.3714,-0.3843,-0.3898,-0.3898,-0.3644,-0.3499,-0.3499,-0.3499,-0.3633,-0.3898,-0.3698,-0.3743,-0.3982,-0.3788,-0.3701,-0.369,-0.369,-0.3786,-0.3991,-0.3991,-0.4202,-0.4758,-0.7708,-0.895,-0.9192,-1.0468,-1.112,-1.1132,-0.893,-0.8826,-0.958,-0.8677,-0.8772,-0.8874,-0.6431,-0.4423,-0.3009,-0.3425,-0.3837,-0.4329,0.0,0.0,0.0,-0.6914,-0.779,0.0,-0.802,0.0,-0.9657,-0.9632,-0.953,-0.9702,-1.0259,-1.0281,-1.036,-1.0889,-1.1736,-1.2382,-1.2382,-1.2382,-1.2545,-1.2881,-1.2935,-1.3098,-1.364,-1.3617,-1.3674,-1.3885,-1.3848,-1.4313,-1.5397,-1.4414,-1.4154,-1.4819,-1.3464,-1.3276,-1.4315,-1.3013,-1.2289,-1.2355,-1.2305,-1.1901,-1.1233,-1.1247,-0.9448,-0.6437,-0.6871,-0.4185,0.0438,0.0073,-0.0073,-0.0073,0.0365,0.0073,-0.0292,0.204,0.3639,0.4947,0.0,0.0,0.0,0.0,0.0,-0.4219,-0.4219,-0.4446,-0.4615,0.0,0.0,0.0,-0.4688,-0.4477,-0.4289,-0.4229,-0.4168,-0.4129,-0.4129,-0.3981,-0.3898,-0.3898,-0.3644,-0.3499,-0.3499,-0.3499,-0.3633,-0.3898,-0.3842,-0.3809,-0.3784,-0.3731,-0.356,-0.3337,-0.3337,-0.3507,-0.3786,-0.3935,-0.4202,-0.475,-0.7507,-0.8503,-0.8547,-1.0656,-1.1771,-1.2058,-1.145,-1.0904,-1.0412,-1.0335,-0.8827,-0.672,-0.5394,-0.4461,-0.3899,-0.427,-0.412,-0.3993,-0.4717,0.0,0.0,0.0,0.0,0.0,-0.8287,0.0,-0.8922,-0.9533,-0.971,-0.9839,-1.018,-1.0442,-1.057,-1.0707,-1.1204,-1.1792,-1.2309,-1.2304,-1.2481,-1.3132,-1.3207,-1.3261,-1.3423,-1.3507,-1.3653,-1.3727,-1.3138,-1.3203,-1.4202,-1.3411,-1.3042,-1.3259,-1.2489,-1.2371,-1.2898,-1.2503,-1.2561,-1.3087,-1.2832,-1.2165,-1.1233,-1.1621,-0.9715,-0.6114,-0.6687,-0.5006,-0.1967,-0.204,-0.2113,-0.204,-0.1676,-0.0583,0.0801,0.1455,0.3492,0.6181,0.0,0.0,-0.3983,-0.4054,-0.4481,-0.4801,-0.4766,-0.5104,-0.5289,0.0,0.0,0.0,-0.5134,-0.4985,-0.4867,-0.477,-0.4561,-0.4471,-0.4593,-0.4251,-0.412,-0.4237,-0.3846,-0.3623,-0.3623,-0.3444,-0.346,-0.3692,-0.3541,-0.3498,-0.3538,-0.3447,-0.3356,-0.3249,-0.3391,-0.3676,-0.4095,-0.4344,-0.4663,-0.5249,-0.8122,-0.9157,-0.9171,-1.1599,-1.2622,-1.271,-1.2577,-1.2435,-1.2201,-1.2001,-0.9812,-0.7106,-0.6505,-0.5435,-0.4383,-0.4235,-0.4157,-0.4145,-0.4307,-0.4761,-0.5327,-0.5887,0.0,0.0,-0.8561,-0.8904,-0.9299,-1.0315,-1.0241,-1.0052,-1.012,-1.0096,-1.0138,-1.0271,-1.0551,-1.0975,-1.1846,-1.1953,-1.2142,-1.2698,-1.2772,-1.2881,-1.3261,-1.2988,-1.2911,-1.32,-1.2247,-1.1833,-1.2267,-1.2462,-1.2488,-1.2306,-1.2564,-1.2832,-1.3161,-1.3293,-1.3555,-1.3809,-1.3555,-1.3087,-1.2355,-1.2664,-1.0867,-0.7552,-0.7905,-0.6528,-0.4016,-0.3916,-0.3496,-0.2841,-0.2624,-0.1457,0.0291,0.1092,0.3419,0.6398,0.0,0.0,-0.4419,-0.4564,-0.4892,-0.5098,-0.5016,-0.5452,-0.5688,0.0,-0.5599,-0.5717,-0.551,-0.5393,-0.5285,-0.5157,-0.4839,-0.4746,-0.4981,-0.4569,-0.4421,-0.4678,-0.4095,-0.3776,-0.38,-0.3352,-0.323,-0.3429,-0.3139,-0.3116,-0.3353,-0.3177,-0.3177,-0.334,-0.3664,-0.4109,-0.4626,-0.5052,-0.5578,-0.6329,-0.9185,-1.0311,-1.0518,-1.2868,-1.3594,-1.333,-1.294,-1.3521,-1.4237,-1.3315,-1.1305,-0.9155,-0.8754,-0.7028,-0.4973,-0.4035,-0.4305,-0.4734,-0.3988,-0.4436,-0.5132,-0.5184,-0.6009,0.0,-0.8565,-0.923,-0.9873,-1.099,-1.0716,-1.0153,-0.995,-0.9529,-0.9372,-0.9723,-0.973,-1.0051,-1.115,-1.1423,-1.1629,-1.1946,-1.1873,-1.2146,-1.3044,-1.2073,-1.1629,-1.2311,-1.1243,-1.042,-1.0026,-1.1455,-1.2131,-1.1941,-1.3186,-1.4054,-1.4342,-1.467,-1.467,-1.4342,-1.4342,-1.4202,-1.3875,-1.377,-1.2246,-0.9667,-0.965,-0.8104,-0.5547,-0.5329,-0.4369,-0.3136,-0.299,-0.2113,-0.0801,0.1092,0.3564,0.6326,-0.443,-0.4673,-0.4816,-0.4628,-0.4975,-0.5204,-0.5018,-0.5398,-0.5761,-0.5857,-0.6094,-0.6376,-0.6626,-0.6046,-0.5737,-0.6017,-0.5362,-0.4941,-0.4993,-0.457,-0.4417,-0.4691,-0.3915,-0.3573,-0.3787,-0.3451,-0.3385,-0.3645,-0.3573,-0.3593,-0.3704,-0.3663,-0.3583,-0.3478,-0.3808,-0.4193,-0.4672,-0.5706,-0.7012,-0.8438,-0.9624,-1.0336,-1.0997,-1.3306,-1.4267,-1.4424,-1.4328,-1.4328,-1.4182,-1.2779,-1.1802,-1.0931,-0.9298,-0.8454,-0.7731,-0.5955,-0.5728,-0.5826,-0.4656,-0.4478,-0.4731,-0.5097,-0.5298,0.0,-0.7113,-0.7413,-0.766,0.0,-0.9062,-0.9126,-0.8654,-0.9077,-0.939,-0.8938,-0.862,-0.906,-1.0886,-1.1114,-1.1274,-1.1638,-1.1099,-1.1011,-1.1828,-1.0691,-1.0355,-1.1439,-1.0322,-0.9424,-0.9027,-1.0154,-1.1157,-1.1953,-1.3071,-1.379,-1.4006,-1.4071,-1.4071,-1.4006,-1.4006,-1.394,-1.3884,-1.2837,-1.1553,-1.0072,-0.8523,-0.6996,-0.5544,-0.5276,-0.5054,-0.4592,-0.335,-0.1601,0.0436,0.1674,0.4364,0.7489,-0.4477,-0.4771,-0.5046,-0.5218,-0.557,-0.5845,-0.5861,-0.6329,-0.6679,-0.6611,-0.686,-0.7122,-0.7325,-0.6951,-0.677,-0.6974,-0.6471,-0.6137,-0.6098,-0.5762,-0.5542,-0.5496,-0.4909,-0.4502,-0.4293,-0.3898,-0.3683,-0.3651,-0.355,-0.3509,-0.3549,-0.3549,-0.367,-0.3918,-0.4167,-0.4724,-0.5503,-0.6371,-0.783,-0.9624,-1.0366,-1.1244,-1.2284,-1.404,-1.4695,-1.4731,-1.5002,-1.4865,-1.4424,-1.38,-1.281,-1.1624,-1.0458,-0.989,-0.9186,0.0,-0.6565,-0.6597,-0.475,-0.426,-0.4299,-0.4556,0.0,0.0,0.0,-0.6895,-0.7121,-0.8131,-0.8388,-0.8271,-0.7753,-0.7996,-0.8196,-0.7961,-0.7823,-0.8195,-0.9411,-0.9376,-0.9382,-0.9706,-0.9566,-0.9704,-1.039,-0.9314,-0.8686,-0.8972,-0.8953,-0.8871,-0.8825,-1.0244,-1.145,-1.2242,-1.3106,-1.3711,-1.4003,-1.4092,-1.4071,-1.3875,-1.4268,-1.394,-1.3087,-1.2582,-1.1347,-0.9405,-0.804,-0.6854,-0.5764,-0.528,-0.4778,-0.4258,-0.3488,-0.1674,0.0655,0.1238,0.3925,0.7485,-0.452,-0.4819,-0.524,-0.579,-0.6155,-0.6421,-0.6599,-0.7179,-0.7562,-0.7455,-0.773,-0.7948,-0.8094,-0.8131,-0.825,-0.8554,-0.8197,-0.797,-0.7915,-0.7409,-0.6906,-0.6482,-0.5982,-0.5486,-0.5004,-0.4428,-0.4006,-0.3734,-0.3517,-0.3416,-0.3416,-0.3471,-0.3781,-0.4337,-0.5125,-0.58,-0.6421,0.0,0.0,-1.0392,-1.1152,-1.2298,-1.3776,-1.4895,-1.5258,-1.5187,-1.5563,-1.5403,-1.5049,-1.5209,-1.3897,-1.2101,-1.1815,-1.1214,0.0,0.0,0.0,0.0,0.0,0.0,0.0,0.0,0.0,-0.4924,0.0,0.0,0.0,0.0,0.0,0.0,0.0,0.0,0.0,-0.6864,0.0,0.0,0.0,-0.7132,0.0,-0.7833,-0.8075,-0.841,-0.9079,-0.8314,-0.7537,-0.6995,-0.7932,-0.8749,-0.9245,-1.0786,-1.1953,-1.2546,-1.3234,-1.3751,-1.3988,-1.4243,-1.4277,-1.4006,-1.4268,-1.3678,-1.2421,-1.2091,-1.0697,-0.8446,-0.7598,-0.6753,-0.5816,-0.5411,-0.4358,-0.3062,-0.3103,-0.1598,0.0656,0.1166,0.378,0.7115,-0.4709,-0.5038,-0.5397,-0.5829,-0.6083,-0.6253,-0.633,-0.6868,-0.7495,-0.8176,-0.8497,-0.8904,-0.9497,-0.9659,-1.0281,-1.1646,-1.093,-1.0407,-1.0483,-0.9056,-0.7875,-0.7127,-0.6028,-0.5519,-0.5693,-0.4759,-0.4256,-0.4227,-0.3959,-0.3838,-0.3838,-0.4071,-0.423,-0.4424,-0.7375,-0.7881,0.0,0.0,-1.1122,0.0,-1.1702,-1.3094,-1.4974,-1.583,-1.6409,-1.6782,-1.6634,-1.638,-1.6132,-1.6091,-1.4789,-1.311,-1.2874,-1.222,-1.1116,-0.876,0.0,0.0,0.0,0.0,0.0,0.0,-0.4271,-0.4306,0.0,0.0,-0.5102,-0.5652,0.0,0.0,0.0,0.0,0.0,0.0,0.0,0.0,-0.5304,-0.5074,-0.5676,-0.7735,-0.7326,-0.7327,-0.847,-0.8522,-0.8287,-0.791,-0.8426,-0.9293,-1.0521,-1.0977,-1.1641,-1.262,-1.342,-1.3735,-1.3658,-1.4178,-1.4399,-1.4333,-1.3153,-1.2618,-1.2684,-1.0227,-0.8706,-0.7974,-0.6656,-0.586,-0.5467,-0.5812,-0.4298,-0.1687,-0.178,-0.0793,0.0874,0.3348,0.538,0.7187,-0.4767,-0.5078,-0.5472,-0.603,-0.6332,-0.6626,-0.7037,-0.7965,-0.8839,-0.9517,-0.987,-1.0185,-1.0477,-1.0755,-1.145,-1.2774,-1.2577,-1.2206,-1.1707,-1.0994,-0.9751,-0.782,-0.7092,-0.6435,-0.581,-0.5385,-0.4887,-0.4293,-0.4185,-0.4046,-0.39,-0.417,-0.4467,-0.4879,-0.7671,-0.8488,-0.7923,0.0,-1.1847,-1.2311,-1.3318,-1.4617,-1.591,-1.6076,-1.6746,-1.7691,-1.773,-1.7444,-1.7029,-1.7022,-1.5935,-1.4621,-1.4481,-1.3828,0.0,-1.0492,0.0,0.0,0.0,0.0,0.0,0.0,-0.5481,-0.5688,-0.477,-0.4342,-0.4165,-0.4381,0.0,0.0,0.0,0.0,0.0,0.0,-0.473,0.0,0.0,0.0,0.0,0.0,0.0,0.0,-0.7353,-0.7264,-0.7511,-0.8337,-0.8824,-0.9578,-1.0732,-1.1374,-1.1988,-1.2497,-1.2874,-1.3162,-1.3427,-1.3942,-1.39,-1.3144,-1.275,-1.1688,-0.9968,-0.9039,-0.7907,-0.6777,-0.618,-0.5982,-0.5986,-0.514,-0.362,-0.1662,0.007,0.1641,0.313,0.4293,0.625,0.842,-0.4873,-0.5157,-0.5646,-0.6444,-0.6807,-0.7236,-0.8055,-0.9036,-0.9945,-1.0637,-1.0952,-1.1172,-1.1361,-1.2145,-1.3124,-1.4344,-1.4573,-1.4411,-1.3784,-1.2917,-1.1515,-0.9476,-0.8377,-0.7518,-0.6886,-0.6173,-0.5444,-0.4714,-0.4436,-0.4244,-0.4145,-0.4346,-0.4746,-0.5404,-0.804,-0.9195,-0.9292,0.0,-1.2901,-1.3611,-1.4715,-1.5846,-1.6805,-1.6764,-1.7469,-1.8465,-1.868,-1.8358,-1.7931,-1.7942,-1.6912,-1.5651,-1.5528,-1.4861,-1.3756,0.0,0.0,0.0,-0.8131,-0.7621,-0.7239,-0.597,-0.6267,-0.6452,-0.489,-0.4239,-0.3962,0.0,-0.3848,0.0,0.0,0.0,0.0,0.0,0.0,-0.4024,0.0,0.0,0.0,0.0,0.0,0.0,0.0,-0.615,-0.6802,-0.8397,-0.8945,-0.9739,-1.091,-1.1659,-1.2124,-1.2344,-1.2492,-1.2873,-1.3421,-1.3943,-1.3626,-1.2421,-1.2281,-1.0822,-0.8174,-0.8046,-0.7245,-0.5912,-0.6046,-0.5979,-0.5644,-0.4434,-0.298,-0.1235,0.1314,0.3529,0.5358,0.5808,0.7408,0.9363,-0.5097,-0.5418,-0.602,-0.7092,-0.7501,-0.8054,-0.9174,-0.9642,-1.0257,-1.1232,-1.1381,-1.1637,-1.2274,-1.4106,-1.5835,-1.7252,-1.7357,-1.7412,-1.7622,-1.476,-1.2936,-1.2663,-0.9708,-0.855,-0.9559,-0.7097,-0.5781,-0.5752,-0.4785,-0.4466,-0.477,-0.4772,-0.5136,-0.5929,-0.9126,-1.0536,-1.0726,-1.3572,-1.4936,-1.5164,-1.5459,-1.6422,-1.7759,-1.8443,-1.8918,-1.9279,-1.9292,-1.9118,-1.8841,-1.8768,-1.7455,-1.5781,-1.5665,-1.4914,-1.389,-1.2791,-1.1826,-1.0919,-0.9722,-0.7946,-0.6413,-0.6314,-0.6,-0.5726,-0.5663,-0.5144,-0.467,0.0,0.0,0.0,0.0,0.0,0.0,0.0,0.0,0.0,0.0,0.0,0.0,0.0,0.0,0.0,0.0,-0.5624,-0.675,0.0,-0.865,-0.9724,-1.1376,-1.15,-1.176,-1.2165,-1.2603,-1.31,-1.3797,-1.4334,-1.3949,-1.275,-1.1417,-1.0028,-0.8507,-0.7183,-0.6317,-0.5912,-0.6317,-0.551,-0.3897,-0.4166,-0.2641,0.0069,0.1644,0.4108,0.7002,0.8601,0.9219,0.9579,-0.6337,-0.6611,-0.6787,-0.6664,-0.7375,-0.8504,-1.014,-1.0883,-1.1808,-1.3268,-1.3927,-1.4662,-1.5785,-1.6729,-1.7649,-1.8593,-1.8851,-1.8303,-1.6795,-1.5701,-1.4558,-1.3399,-1.0989,-0.9997,-1.0678,-0.8484,-0.6928,-0.6135,-0.5576,-0.5122,-0.4814,-0.5019,-0.537,-0.5928,-0.8926,-1.0564,0.0,0.0,0.0,0.0,-1.6696,-1.777,-1.9121,-1.9203,-1.9424,-1.9787,-2.0373,-2.0258,-1.9846,-1.9808,-1.8891,-1.7684,-1.7062,-1.6061,-1.4867,-1.3734,-1.2634,-1.163,-1.0878,-1.0899,-1.0604,-0.8263,-0.8489,-0.8732,-0.6635,-0.5756,-0.5387,-0.541,0.0,0.0,0.0,0.0,0.0,0.0,0.0,0.0,0.0,0.0,0.0,0.0,0.0,0.0,0.0,0.0,0.0,0.0,-0.918,0.0,-1.062,-1.1551,-1.1751,-1.0967,-1.139,-1.1494,-1.1136,-1.1618,-1.1069,-0.9637,-0.9431,-0.8169,-0.6109,-0.6384,-0.6183,-0.558,-0.5175,-0.4702,-0.3964,-0.2217,-0.0337,0.1622,0.4158,0.6397,0.8208,0.8883,0.987,1.0894,-0.6901,-0.7195,-0.7377,-0.7187,-0.8232,-0.9526,-1.0807,-1.1663,-1.2763,-1.4462,-1.5226,-1.6224,-1.7726,-1.8589,-1.9319,-1.9884,-1.9983,-1.929,-1.7696,-1.6844,-1.5944,-1.5004,-1.2884,-1.2009,-1.2557,-1.0234,-0.8506,-0.7515,-0.6582,-0.5844,-0.5326,-0.5312,-0.559,-0.6219,-0.8312,-1.025,-1.2058,-1.3631,-1.5441,0.0,-1.7651,-1.8465,-1.939,-1.9376,-1.9561,-1.9963,-2.0723,-2.0773,-2.0473,-2.0587,-1.9948,-1.8959,-1.7717,-1.6861,-1.5958,-1.4345,-1.3373,-1.2661,-1.2136,-1.2395,-1.231,-1.0006,-1.0186,-1.0291,-0.7922,-0.6972,-0.6524,-0.6312,0.0,0.0,0.0,0.0,0.0,0.0,0.0,0.0,0.0,0.0,0.0,0.0,0.0,0.0,0.0,0.0,0.0,0.0,0.0,0.0,0.0,-1.0759,-1.085,-0.9802,-1.0112,-1.0135,-0.9926,-1.027,-0.9633,-0.824,-0.8507,-0.7507,-0.5446,-0.6183,-0.625,-0.5714,-0.4705,-0.4031,-0.3358,-0.094,0.1142,0.3155,0.5619,0.7514,0.8982,0.9672,1.0695,1.1763,-0.6854,-0.7235,-0.7859,-0.8669,-0.9969,-1.1004,-1.1289,-1.1995,-1.3128,-1.4922,-1.5538,-1.6478,-1.8243,-1.9936,-2.0993,-2.121,-2.0895,-2.053,-2.0354,-1.8241,-1.7127,-1.7479,-1.5297,-1.4419,-1.516,-1.2238,-1.0364,-0.9729,-0.7728,-0.6597,-0.6282,-0.5634,-0.5808,-0.6738,-0.7399,-0.9686,-1.3041,-1.3682,-1.5673,-1.8367,-1.827,-1.8441,-1.8732,-1.9115,-1.946,-1.9886,-2.0499,-2.0771,-2.0794,-2.1101,-2.0625,-1.9485,-1.7711,-1.7271,-1.6955,-1.464,-1.3981,-1.3897,-1.3462,-1.2506,-1.1627,-1.1405,-1.1016,-1.0469,-0.9514,-0.8764,-0.8098,-0.7418,-0.6649,0.0,0.0,0.0,0.0,0.0,0.0,0.0,0.0,0.0,0.0,0.0,0.0,0.0,0.0,0.0,0.0,0.0,0.0,0.0,0.0,-0.9152,-0.9052,-0.869,-0.8653,-0.9026,-0.9919,-1.0083,-0.9574,-0.844,-0.844,-0.7779,-0.6451,-0.6455,-0.6522,-0.6384,-0.4839,-0.3425,-0.2013,-0.047,0.1814,0.4501,0.5834,0.7428,0.9232,1.085,1.1711,1.2122,-0.7887,-0.8437,-0.9282,-1.0172,-1.0644,-1.1367,-1.2769,-1.3471,-1.4732,-1.7339,-1.8239,-1.9444,-2.1608,-2.2973,-2.3677,-2.341,-2.295,-2.2094,-2.0769,-1.8983,-1.8153,-1.8567,-1.6309,-1.5516,-1.6561,-1.3332,-1.1123,-1.008,-0.8253,-0.7003,-0.6297,-0.5869,-0.6043,-0.6738,-0.7399,-0.9165,-1.1687,-1.2594,-1.484,-1.7878,-1.8843,-1.9107,-1.8999,-1.9529,-1.9746,-1.9886,-2.0796,-2.1202,-2.1442,-2.1531,-2.0972,-1.9932,-1.8481,-1.7338,-1.6287,-1.4993,-1.4381,-1.4086,-1.3585,-1.3719,-1.3634,-1.2292,-1.2049,-1.1859,-1.0887,-1.0121,-0.9657,-0.9766,-0.8674,-0.7743,-0.779,-0.6177,0.0,0.0,0.0,0.0,0.0,0.0,0.0,0.0,0.0,0.0,0.0,0.0,0.0,0.0,0.0,0.0,0.0,0.0,-0.7971,-0.7043,-0.7197,-0.706,-0.649,-0.6592,-0.6556,-0.6246,-0.6447,-0.6246,-0.5714,-0.625,-0.6317,-0.5912,-0.3624,-0.2484,-0.1879,0.0605,0.3291,0.5834,0.5704,0.7364,0.9944,1.1109,1.1657,1.1763,-0.8803,-0.9489,-1.0415,-1.1344,-1.2328,-1.3246,-1.4084,-1.4445,-1.5689,-1.8682,-1.9563,-2.0835,-2.3294,-2.4643,-2.5283,-2.5234,-2.4648,-2.3828,-2.2703,-2.0993,-2.0003,-2.0023,-1.8213,-1.7323,-1.7676,-1.5246,-1.3201,-1.1633,-0.9816,-0.8177,-0.6727,-0.6238,-0.6212,-0.6596,-0.7359,-0.8897,-1.1072,-1.3062,-1.5267,-1.7493,-1.8674,-1.9325,0.0,-1.9851,-2.0214,-2.0621,-2.0687,-2.1032,-2.1419,-2.1293,-2.0727,-1.9764,-1.8059,-1.6973,-1.6076,-1.4869,-1.4575,-1.4603,-1.4296,-1.4586,-1.4766,-1.3767,-1.3539,-1.3299,-1.2124,-1.1431,-1.0965,-1.0647,-0.9724,-0.9048,-0.9316,-0.7304,0.0,0.0,0.0,0.0,0.0,0.0,0.0,0.0,0.0,0.0,0.0,0.0,0.0,0.0,0.0,0.0,0.0,0.0,0.0,-0.5776,-0.5939,-0.578,-0.5215,-0.5433,-0.5577,-0.5647,-0.6113,-0.638,-0.6313,-0.638,-0.6313,-0.5975,-0.3289,-0.2148,-0.1947,0.0336,0.2888,0.5566,0.6551,0.7956,0.966,1.0645,1.1272,1.1619,-0.986,-1.0458,-1.1324,-1.2462,-1.4376,-1.5722,-1.5702,-1.5669,-1.6658,-1.962,-2.0367,-2.1621,-2.422,-2.5614,-2.6478,-2.6755,-2.6084,-2.5465,-2.5146,-2.3251,-2.1948,-2.1487,-2.0175,-1.9105,-1.8557,-1.7205,-1.5511,-1.3492,-1.1641,-0.9574,-0.7317,-0.6709,-0.6414,-0.6462,-0.7263,-0.8855,0.0,-1.42,-1.6094,-1.711,-1.8195,-1.9257,-2.0127,-1.9852,-2.0455,-2.1349,-2.0401,-2.0531,-2.1119,-2.064,-2.0059,-1.9259,-1.7194,-1.6444,-1.6087,-1.4709,-1.465,-1.5056,-1.5056,-1.5119,-1.5216,-1.5184,-1.5102,-1.4639,-1.332,-1.28,-1.2258,-1.1155,-1.0528,-1.0274,-1.0686,-0.8552,0.0,0.0,0.0,0.0,0.0,0.0,0.0,0.0,0.0,0.0,0.0,0.0,0.0,0.0,0.0,0.0,0.0,0.0,0.0,-0.4498,-0.4412,-0.4562,-0.4916,-0.5268,-0.5601,-0.5863,-0.6698,-0.7183,-0.7312,-0.6711,-0.6309,-0.5975,-0.3358,-0.2218,-0.2084,-0.0606,0.1613,0.4434,0.7563,0.8771,0.8884,0.9777,1.0624,1.1332,-1.1737,-1.1633,-1.2131,-1.4159,-1.5634,-1.7161,-1.9169,-1.9072,-1.9468,-2.1346,-2.2314,-2.3692,-2.5858,-2.7392,-2.8125,-2.7861,-2.7293,-2.6584,-2.5702,-2.3356,-2.2024,-2.2,-2.0296,-1.9199,-1.8851,-1.7314,-1.5511,-1.3492,-1.2052,-1.003,-0.7548,-0.7151,-0.6803,-0.6583,-0.6958,-0.9139,-1.2622,-1.4238,-1.5632,-1.6791,-1.821,-1.8766,-1.882,-1.881,-1.949,-2.0388,-1.9894,-2.0307,-2.098,-2.01,-1.9226,-1.8325,-1.7504,-1.6529,-1.5547,-1.5119,-1.4828,-1.4709,-1.4709,-1.5061,-1.5364,-1.5165,-1.5238,-1.5248,-1.4792,-1.4282,-1.3851,-1.3364,-1.268,-1.1996,-1.1732,-0.9607,-0.6958,0.0,0.0,0.0,0.0,0.0,0.0,0.0,0.0,0.0,0.0,0.0,0.0,0.0,0.0,0.0,0.0,0.0,0.0,0.0,-0.1534,-0.1793,-0.3478,-0.388,-0.4579,-0.5478,-0.7055,-0.7379,-0.6577,-0.6443,-0.5774,-0.4568,-0.289,-0.2218,-0.2084,-0.0606,0.1345,0.3763,0.7355,0.8428,0.8194,0.9003,0.9484,0.9879,-1.2523,-1.2627,-1.3305,-1.5505,-1.7376,-1.9278,-2.1211,-2.2283,-2.3198,-2.3921,-2.457,-2.5674,-2.7649,-2.8377,-2.8728,-2.8747,-2.8044,-2.7341,-2.6849,-2.46,-2.3288,-2.3317,-2.123,-1.9951,-1.9603,-1.8709,-1.6989,-1.4418,-1.3468,-1.1314,-0.8069,-0.773,-0.7193,-0.6625,-0.8139,-1.0346,-1.3085,-1.4887,-1.6106,-1.6855,-1.8237,-1.8516,-1.822,-1.8309,-1.8776,-1.9305,-1.8594,-1.8754,-1.9334,-1.9113,-1.8543,-1.7798,-1.6898,-1.6089,-1.5512,-1.5207,-1.5199,-1.5304,-1.5304,-1.5592,-1.5873,-1.5756,-1.5809,-1.583,-1.5406,-1.5056,-1.4654,-1.436,-1.3894,-1.2982,-1.1295,-0.9253,-0.7163,-0.5036,0.0,0.0,0.0,0.0,0.0,0.0,0.0,0.0,0.0,0.0,0.0,0.0,0.0,0.0,0.0,0.0,0.0,0.0,0.0,0.0,-0.3427,-0.3818,-0.4953,-0.6766,-0.7964,-0.7979,-0.6978,-0.6573,-0.5637,-0.4233,-0.2825,-0.222,-0.2018,0.0202,0.168,0.2957,0.6341,0.747,0.7362,0.8232,0.8627,0.8935,-1.3834,-1.3993,-1.4816,-1.7468,-1.9414,-2.1253,-2.3036,-2.5131,-2.6426,-2.6258,-2.6477,-2.7291,-2.9126,-2.905,-2.9031,-2.9355,-2.8672,-2.8125,-2.7806,-2.598,-2.4752,-2.4375,-2.2185,-2.075,-2.0208,-1.9946,-1.8462,-1.575,-1.5061,-1.276,-0.8958,-0.8585,-0.8027,-0.7416,-0.9438,-1.1501,-1.3614,-1.5376,-1.6373,-1.6785,-1.7894,-1.8009,-1.7599,-1.7582,-1.7931,-1.8251,-1.7325,-1.7128,-1.7474,-1.7868,-1.7788,-1.7268,-1.6175,-1.5828,-1.5682,-1.5378,-1.5658,-1.6082,-1.6082,-1.6204,-1.6377,-1.6323,-1.6355,-1.6261,-1.5769,-1.5327,-1.4871,-1.4471,-1.3986,-1.2851,-1.033,-0.8794,-0.7403,-0.5725,-0.4499,0.0,0.0,0.0,0.0,0.0,0.0,0.0,0.0,0.0,0.0,0.0,0.0,0.0,0.0,0.0,0.0,0.0,0.0,-0.0698,-0.287,-0.3502,-0.4824,-0.7012,-0.801,-0.7912,-0.6777,-0.6235,-0.5168,-0.3765,-0.2692,-0.2019,-0.1547,0.1007,0.2218,0.2768,0.555,0.6607,0.6696,0.7491,0.7787,0.8068,-1.7165,-1.6278,-1.6642,-2.1104,-2.1546,-2.2352,-2.5545,-2.7092,-2.7793,-2.74,-2.7317,-2.8022,-2.9778,-2.9679,-2.9534,-2.9573,-2.9757,-2.9228,-2.7734,-2.6921,-2.5717,-2.3948,-2.2587,-2.1251,-1.9878,-1.9815,-1.8945,-1.718,-1.6226,-1.3955,-1.0492,-1.0034,-0.9883,-1.0031,-0.9855,-1.1737,-1.5072,-1.4918,-1.5344,-1.6143,-1.672,-1.6797,-1.6491,-1.6003,-1.6474,-1.7229,-1.6465,-1.6307,-1.6407,-1.649,-1.6469,-1.6393,-1.6054,-1.6108,-1.6204,-1.5978,-1.6086,-1.628,-1.628,-1.6452,-1.6581,-1.6366,-1.6474,-1.6571,-1.6271,-1.5246,-1.4118,-1.35,-1.2192,-1.0709,-0.9279,-0.9197,-0.8443,-0.5843,-0.5769,0.0,0.0,0.0,0.0,0.0,0.0,0.0,0.0,0.0,0.0,0.0,0.0,0.0,0.0,0.0,0.0,0.1617,0.0,0.2055,0.0,-0.1598,-0.2802,-0.367,-0.5657,-0.59,-0.4568,-0.4501,-0.3698,-0.2356,-0.2289,-0.1413,-0.0067,0.1477,0.2773,0.3908,0.591,0.6555,0.6429,0.6873,0.7127,0.7204,-1.9184,-1.9041,-1.9743,-2.2822,-2.3687,-2.4771,-2.7179,-2.8298,-2.8976,-2.9355,-2.9329,-2.9727,-3.0994,-3.0458,-2.9771,-2.9184,-2.92,-2.8482,-2.6619,-2.5741,-2.4985,-2.4185,-2.2082,-2.104,-2.1231,-2.0496,-1.9414,-1.792,-1.6743,-1.4721,-1.1973,-1.1779,-1.1956,-1.2438,-1.2707,-1.3885,-1.5676,-1.5736,-1.575,-1.5769,-1.6128,-1.5789,-1.5063,-1.4903,-1.5234,-1.5852,-1.5577,-1.5556,-1.5769,-1.5875,-1.5978,-1.6136,-1.6039,-1.6072,-1.6075,-1.6039,-1.6288,-1.6527,-1.6527,-1.6689,-1.6647,-1.5721,-1.5569,-1.5416,-1.4685,-1.3797,-1.3156,-1.3197,-1.1662,-1.0172,-0.9783,-0.8785,-0.7803,-0.7115,-0.6555,-0.6243,0.0,0.0,0.0,0.0,0.0,0.0,0.0,0.0,0.0,0.0,0.0,0.0,0.0,0.0,0.0,0.336,0.0,0.1177,-0.0292,-0.1744,-0.3375,-0.5165,-0.6007,-0.5658,-0.4286,-0.4316,-0.3564,-0.2223,-0.2223,-0.1885,-0.1144,0.1219,0.2523,0.3229,0.5831,0.6898,0.701,0.7242,0.7349,0.7494,-2.1451,-2.157,-2.2329,-2.4815,-2.5622,-2.6565,-2.855,-2.9168,-2.9711,-3.0655,-3.0548,-3.0678,-3.1411,-3.0693,-2.9964,-2.9432,-2.9222,-2.8444,-2.6789,-2.5881,-2.5179,-2.4605,-2.2409,-2.1501,-2.2186,-2.1031,-1.9948,-1.8896,-1.7563,-1.5834,-1.379,-1.321,-1.3454,-1.4422,-1.4569,-1.508,-1.5787,-1.5818,-1.5605,-1.5235,-1.5452,-1.4992,-1.4299,-1.4479,-1.4683,-1.4983,-1.5105,-1.5236,-1.5466,-1.5596,-1.5752,-1.5996,-1.5931,-1.6007,-1.6115,-1.6115,-1.6138,-1.6179,-1.6179,-1.5961,-1.5554,-1.4511,-1.4381,-1.4259,-1.3473,-1.271,-1.2167,-1.2037,-1.0728,-0.9669,-0.9587,-0.8402,-0.7481,-0.7791,-0.6927,-0.6365,0.0,-0.4954,0.0,0.0,-0.2514,-0.1524,-0.0977,0.0,0.0,0.0,0.0,0.0,0.0,0.0,0.0,0.0,0.0,0.0,-0.042,-0.1761,-0.3279,-0.5036,-0.5121,-0.4656,-0.3684,-0.3715,-0.3161,-0.2223,-0.2223,-0.175,-0.074,0.1357,0.2738,0.3661,0.6056,0.7132,0.7334,0.7616,0.7711,0.7638,-2.4335,-2.3614,-2.3944,-2.7584,-2.7221,-2.7252,-2.9763,-2.9824,-2.9939,-3.0762,-3.0469,-3.0309,-3.069,-3.0313,-3.0214,-3.065,-3.0335,-2.9792,-2.8855,-2.8169,-2.697,-2.506,-2.3976,-2.3078,-2.22,-2.1228,-2.0564,-2.03,-1.9007,-1.7605,-1.6142,-1.4167,-1.4159,-1.5731,-1.4586,-1.4589,-1.5347,-1.455,-1.4232,-1.4232,-1.453,-1.454,-1.4546,-1.4861,-1.4983,-1.5044,-1.5288,-1.5505,-1.5601,-1.5601,-1.5752,-1.5963,-1.5677,-1.5924,-1.6312,-1.6312,-1.561,-1.4903,-1.4903,-1.3914,-1.2865,-1.2857,-1.307,-1.3341,-1.3276,-1.2553,-1.1299,-0.951,-0.898,-0.8678,-0.8295,-0.8284,-0.8133,-0.7354,-0.6869,-0.6377,-0.5695,-0.3779,0.0,-0.1977,-0.0829,0.0203,0.0833,0.0594,0.0,0.0,0.0,0.0,0.0,0.0,0.0,0.0971,0.0574,0.0408,0.0361,-0.0946,-0.1636,-0.1683,-0.2087,-0.2223,-0.2223,-0.2223,-0.2223,-0.2223,-0.2223,-0.0605,0.208,0.2081,0.3684,0.6159,0.7,0.7185,0.7063,0.786,0.786,0.7566,-2.6565,-2.6438,-2.6675,-2.8432,-2.8048,-2.8052,-2.957,-2.8974,-2.8597,-2.9317,-2.9108,-2.8783,-2.8505,-2.9114,-2.9247,-2.8342,-2.8727,-2.8442,-2.7061,-2.6765,-2.6389,-2.5692,-2.3718,-2.2776,-2.3167,-2.1597,-2.0695,-2.0544,-1.9141,-1.816,-1.7662,-1.6621,-1.6637,-1.7516,-1.5841,-1.5151,-1.515,-1.4251,-1.3873,-1.3873,-1.3933,-1.3971,-1.3969,-1.4089,-1.3848,-1.3537,-1.451,-1.464,-1.4451,-1.5294,-1.5082,-1.4516,-1.4387,-1.4733,-1.495,-1.3925,-1.3591,-1.3456,-1.3456,-1.3128,-1.2602,-1.1886,-1.182,-1.1762,-1.1306,-1.0899,-1.0365,-0.9514,-0.9051,-0.877,-0.8663,-0.8422,-0.8226,-0.803,-0.7222,-0.6578,-0.6414,-0.4474,-0.3006,-0.2947,-0.175,-0.0908,-0.083,-0.0186,0.0,0.0,0.0,0.0,0.0,0.0,0.0,0.0,-0.0349,-0.0792,0.006,-0.1274,-0.1993,-0.1981,-0.2165,-0.2223,-0.2223,-0.2223,-0.2223,-0.2223,-0.2223,-0.1556,-0.0273,0.1583,0.3002,0.419,0.6587,0.7585,0.7788,0.8295,0.844,0.8295,-2.7924,-2.8027,-2.8301,-2.8828,-2.8787,-2.887,-2.9475,-2.8954,-2.8559,-2.871,-2.8688,-2.821,-2.7037,-2.7957,-2.8455,-2.7616,-2.7895,-2.7741,-2.6889,-2.6503,-2.6328,-2.6202,-2.4237,-2.3363,-2.3791,-2.2081,-2.0993,-2.0723,-1.9123,-1.8332,-1.8388,-1.745,-1.7072,-1.7245,-1.5968,-1.5157,-1.4641,-1.3961,-1.3693,-1.3693,-1.3693,-1.3693,-1.3693,-1.3873,-1.3324,-1.2664,-1.3769,-1.3607,-1.3002,-1.3933,-1.3849,-1.3207,-1.2636,-1.2783,-1.3018,-1.2556,-1.2206,-1.201,-1.201,-1.1615,-1.1087,-1.0565,-1.0505,-1.0578,-1.0452,-1.032,-1.0189,-0.9861,-0.9488,-0.9227,-0.9116,-0.8957,-0.8753,-0.8531,-0.7737,-0.6897,-0.6133,-0.4588,-0.3316,-0.2726,-0.1886,-0.1431,-0.1532,-0.0911,-0.0554,0.0,0.0,0.0,0.0,0.0,0.0107,0.0164,-0.1262,-0.1629,-0.0866,-0.1678,-0.2133,-0.2183,-0.2231,-0.2223,-0.2223,-0.2223,-0.2223,-0.2223,-0.2223,-0.1696,-0.0619,0.1453,0.2948,0.407,0.6554,0.7679,0.8005,0.8512,0.8584,0.844,-2.8472,-2.8633,-2.8887,-2.8906,-2.9163,-2.9492,-2.957,-2.9439,-2.9181,-2.876,-2.8917,-2.8307,-2.6205,-2.6879,-2.771,-2.8215,-2.7677,-2.7534,-2.7933,-2.7117,-2.6663,-2.6632,-2.5439,-2.4642,-2.4208,-2.2657,-2.1477,-2.0651,-1.8924,-1.8179,-1.8212,-1.6891,-1.5914,-1.5347,-1.515,-1.4641,-1.3977,-1.3769,-1.3693,-1.3712,-1.3693,-1.3703,-1.3791,-1.4081,-1.3412,-1.2337,-1.3197,-1.2645,-1.1495,-1.2035,-1.2266,-1.2017,-1.0725,-1.0444,-1.0743,-1.1827,-1.1374,-1.0571,-1.0571,-0.9582,-0.8717,-0.905,-0.9455,-0.9927,-1.0591,-1.0717,-1.0591,-1.0326,-1.0149,-0.9928,-0.9602,-0.9678,-0.9538,-0.8785,-0.8254,-0.7204,-0.5149,-0.421,-0.3155,-0.1594,-0.1398,-0.1468,-0.1488,-0.1531,-0.1672,0.0,0.0,0.0,0.0,0.0,-0.0163,-0.1971,-0.2007,-0.2037,-0.2134,-0.2098,-0.2127,-0.2223,-0.2223,-0.2223,-0.2223,-0.2223,-0.2155,-0.2158,-0.2158,-0.1155,0.0551,0.1719,0.3281,0.5003,0.6579,0.7276,0.7566,0.829,0.8367,0.8222,-2.8843,-2.8594,-2.8535,-2.8867,-2.835,-2.8317,-2.9417,-2.794,-2.7035,-2.7911,-2.727,-2.6426,-2.5723,-2.6088,-2.6472,-2.6653,-2.6096,-2.5859,-2.6257,-2.609,-2.6236,-2.702,-2.6261,-2.5657,-2.5313,-2.4209,-2.2378,-1.9871,-1.8154,-1.7108,-1.6808,-1.5974,-1.5466,-1.5108,-1.4361,-1.3952,-1.3759,-1.3712,-1.3788,-1.392,-1.3759,-1.3882,-1.4147,-1.4057,-1.3471,-1.2914,-1.4328,-1.3465,-1.1846,-1.3197,-1.2385,-1.0725,-1.0402,-0.973,-0.9178,-0.9408,-0.9287,-0.9117,-0.9117,-0.8851,-0.8723,-0.9395,-0.9987,-1.0525,-1.0651,-1.0717,-1.0651,-1.0585,-1.0359,-1.0141,-1.0075,-0.9764,-0.9528,-0.9303,-0.7521,-0.5907,-0.5409,-0.3559,-0.2074,-0.1664,-0.1655,-0.1631,-0.1716,-0.1719,-0.1727,-0.1637,-0.1302,-0.1252,-0.1609,-0.0878,-0.0951,-0.1943,-0.2038,-0.2079,-0.2199,-0.2207,-0.2214,-0.2223,-0.2223,-0.2223,-0.2223,-0.2223,-0.2032,-0.171,-0.171,-0.1178,-0.0142,0.0991,0.1858,0.2683,0.4273,0.544,0.6326,0.7127,0.7928,0.8584,-2.9144,-2.9041,-2.8991,-2.8834,-2.8715,-2.8526,-2.8442,-2.7656,-2.7049,-2.6925,-2.6736,-2.6313,-2.56,-2.6143,-2.6249,-2.5471,-2.5555,-2.5839,-2.637,-2.6386,-2.665,-2.7178,-2.669,-2.6226,-2.572,-2.4995,-2.3165,-2.0143,-1.8047,-1.6786,-1.6234,-1.5443,-1.508,-1.4988,-1.45,-1.4203,-1.4118,-1.4118,-1.4128,-1.4137,-1.4024,-1.4109,-1.4298,-1.4185,-1.3519,-1.28,-1.3897,-1.272,-1.0877,-1.1978,-1.1092,-0.9533,-0.9533,-0.9125,-0.859,-0.859,-0.859,-0.859,-0.859,-0.8717,-0.8989,-0.9728,-1.0326,-1.0717,-1.0717,-1.0717,-1.0717,-1.0717,-1.0591,-1.0452,-1.0452,-1.0195,-0.9789,-0.8938,-0.7614,-0.6158,-0.4512,-0.3336,-0.231,-0.1464,-0.1469,-0.1551,-0.1437,-0.1443,-0.1442,-0.1501,-0.1271,-0.1281,-0.172,-0.1549,-0.1629,-0.2038,-0.2068,-0.2101,-0.2133,-0.2214,-0.2223,-0.2223,-0.2033,-0.1903,-0.1904,-0.1779,-0.1585,-0.1387,-0.1387,-0.1053,-0.0429,0.0715,0.1368,0.1821,0.3276,0.4221,0.4875,0.6253,0.7127,0.7783,-2.9373,-2.9579,-2.9674,-2.8999,-2.9496,-2.945,-2.7847,-2.8177,-2.8102,-2.6638,-2.6998,-2.7003,-2.5936,-2.6628,-2.6608,-2.5137,-2.5747,-2.6501,-2.6922,-2.6988,-2.6988,-2.6988,-2.6703,-2.6283,-2.5677,-2.498,-2.3355,-2.0791,-1.815,-1.651,-1.5956,-1.511,-1.4741,-1.4866,-1.4866,-1.4818,-1.4574,-1.4574,-1.4525,-1.4355,-1.4326,-1.4345,-1.4402,-1.4374,-1.3672,-1.2821,-1.3247,-1.1877,-0.9947,-1.0399,-0.9649,-0.859,-0.859,-0.859,-0.859,-0.859,-0.859,-0.859,-0.859,-0.8917,-0.9383,-1.006,-1.0459,-1.0717,-1.0717,-1.0717,-1.0717,-1.0717,-1.0717,-1.0651,-1.0452,-1.0386,-0.9786,-0.7977,-0.7588,-0.6478,-0.341,-0.3282,-0.2851,-0.108,-0.1214,-0.1294,-0.1011,-0.1014,-0.114,-0.1455,-0.1522,-0.166,-0.2069,-0.214,-0.2143,-0.2143,-0.2098,-0.2112,-0.2116,-0.2088,-0.2035,-0.2095,-0.1713,-0.1517,-0.1518,-0.1256,-0.1053,-0.0985,-0.0985,-0.078,-0.0359,0.0645,0.1155,0.1531,0.255,0.3059,0.3496,0.5459,0.6257,0.6692,-2.9769,-2.946,-2.9307,-2.9601,-2.9762,-2.9973,-3.0409,-2.9293,-2.8487,-2.8915,-2.7721,-2.6855,-2.6956,-2.7102,-2.7118,-2.6788,-2.6969,-2.6741,-2.5982,-2.5951,-2.5951,-2.5951,-2.5905,-2.5808,-2.5677,-2.3245,-2.1619,-2.091,-1.7208,-1.5306,-1.5033,-1.4776,-1.4675,-1.4539,-1.48,-1.4818,-1.4574,-1.4574,-1.4546,-1.4563,-1.4383,-1.4525,-1.4818,-1.4648,-1.4557,-1.4577,-1.4939,-1.3504,-1.1527,-1.182,-1.0439,-0.859,-0.859,-0.859,-0.859,-0.859,-0.859,-0.859,-0.859,-0.9123,-0.9728,-1.0127,-1.0459,-1.0717,-1.0717,-1.0717,-1.0717,-1.0717,-1.0717,-1.0319,-0.9178,-0.8906,-0.8404,-0.6814,-0.5489,-0.4345,-0.3469,-0.2612,-0.1828,-0.102,-0.1248,-0.1343,-0.1028,-0.1028,-0.1157,-0.1478,-0.156,-0.1704,-0.2102,-0.2127,-0.2207,-0.2207,-0.212,-0.2121,-0.2214,-0.1601,-0.1402,-0.1714,-0.132,-0.1189,-0.1189,-0.1121,-0.0917,-0.0571,-0.0571,-0.0431,-0.0073,0.0145,0.0218,0.0292,0.0438,0.1166,0.2186,0.4221,0.5604,0.6692,-2.9921,-2.9977,-3.0052,-3.0012,-3.0417,-3.0641,-3.0154,-2.9428,-2.8834,-2.8522,-2.7635,-2.7026,-2.7185,-2.72,-2.72,-2.72,-2.72,-2.6988,-2.6565,-2.6483,-2.6483,-2.6483,-2.5967,-2.5348,-2.4525,-2.2432,-2.1032,-2.0502,-1.8078,-1.6737,-1.649,-1.6225,-1.604,-1.6011,-1.5615,-1.5319,-1.512,-1.5007,-1.4828,-1.4725,-1.4685,-1.4761,-1.4856,-1.4827,-1.479,-1.4931,-1.5127,-1.4071,-1.2553,-1.2157,-1.0902,-0.9383,-0.8784,-0.859,-0.859,-0.859,-0.859,-0.8651,-0.8851,-0.9117,-0.9522,-1.006,-1.0326,-1.0452,-1.0651,-1.0717,-1.0717,-1.0717,-1.0717,-1.0253,-0.8839,-0.8573,-0.7863,-0.5575,-0.4548,-0.3683,-0.2537,-0.1922,-0.14,-0.0765,-0.0848,-0.0855,-0.0522,-0.0457,-0.0718,-0.1239,-0.1313,-0.1587,-0.2133,-0.2214,-0.2223,-0.2223,-0.1955,-0.1827,-0.1906,-0.1328,-0.1196,-0.132,-0.0986,-0.078,-0.078,-0.0572,-0.0432,-0.0217,-0.0217,-0.0145,0.0,0.0,0.0,0.0,0.0,0.0292,0.1021,0.2766,0.4293,0.5746,-3.0004,-3.0475,-3.0765,-3.0519,-3.1014,-3.1,-2.9834,-2.9465,-2.8947,-2.7938,-2.7442,-2.72,-2.72,-2.72,-2.72,-2.72,-2.72,-2.72,-2.72,-2.72,-2.7102,-2.6874,-2.5885,-2.4928,-2.4061,-2.2257,-2.117,-2.0882,-1.9181,-1.8293,-1.8142,-1.7721,-1.7449,-1.7228,-1.6428,-1.5929,-1.5545,-1.5308,-1.5035,-1.4866,-1.4866,-1.4866,-1.4866,-1.4866,-1.4866,-1.4866,-1.4866,-1.4202,-1.3144,-1.2157,-1.1101,-0.9975,-0.8917,-0.859,-0.859,-0.859,-0.859,-0.8656,-0.8984,-0.9117,-0.925,-0.9927,-1.006,-1.0127,-1.0392,-1.0518,-1.0585,-1.0585,-1.0386,-0.9782,-0.8374,-0.7836,-0.6745,-0.4121,-0.3716,-0.3149,-0.1702,-0.1576,-0.1347,-0.0737,-0.0741,-0.0603,-0.0265,-0.0265,-0.053,-0.1192,-0.1262,-0.1536,-0.2154,-0.2228,-0.2165,-0.203,-0.1715,-0.145,-0.145,-0.1053,-0.0848,-0.0987,-0.0572,-0.0359,-0.036,-0.0145,0.0,0.0,0.0,0.0,0.0,0.0,0.0,0.0,0.0,0.0,0.0219,0.1748,0.3057,0.4366,-2.9994,-3.0387,-3.0864,-3.1257,-3.101,-3.082,-3.1092,-2.9759,-2.8665,-2.8537,-2.7736,-2.72,-2.72,-2.72,-2.72,-2.72,-2.72,-2.72,-2.72,-2.72,-2.6792,-2.5855,-2.488,-2.4719,-2.553,-2.2727,-2.1917,-2.3161,-1.9947,-1.8573,-1.8912,-1.8482,-1.7921,-1.7308,-1.6856,-1.6271,-1.5555,-1.5196,-1.4965,-1.4866,-1.4866,-1.4866,-1.4866,-1.4866,-1.4866,-1.4866,-1.4866,-1.4202,-1.3144,-1.2157,-1.1101,-0.9975,-0.8917,-0.859,-0.859,-0.859,-0.859,-0.8656,-0.8984,-0.9117,-0.9183,-0.9661,-0.9728,-0.9728,-0.9794,-0.9994,-1.0259,-1.0259,-0.9449,-0.8307,-0.6831,-0.5503,-0.4108,-0.2414,-0.2144,-0.2018,-0.1576,-0.1766,-0.1731,-0.1139,-0.1346,-0.1413,-0.1075,-0.1008,-0.1142,-0.1545,-0.1633,-0.1841,-0.2157,-0.2181,-0.2059,-0.1647,-0.1321,-0.1121,-0.1121,-0.0431,-0.0217,-0.0572,-0.0217,-0.0073,0.0,0.0,0.0,0.0,0.0,0.0,0.0,0.0,0.0,0.0,0.0,0.0,0.0219,0.1748,0.2403,0.2692,-2.9994,-3.0367,-3.0822,-3.1298,-3.0994,-3.082,-3.1249,-2.9751,-2.8571,-2.8571,-2.7752,-2.72,-2.72,-2.72,-2.72,-2.72,-2.72,-2.72,-2.72,-2.72,-2.6776,-2.5758,-2.4719,-2.3628,-2.2298,-2.1216,-2.0546,-2.0271,-1.975,-1.9692,-2.004,-1.939,-1.8901,-1.8611,-1.7292,-1.6529,-1.6225,-1.5348,-1.4941,-1.4866,-1.4866,-1.5071,-1.5267,-1.4996,-1.5062,-1.5267,-1.4996,-1.48,-1.4473,-1.3481,-1.2421,-1.1299,-1.024,-0.9316,-0.859,-0.859,-0.859,-0.8651,-0.8784,-0.8784,-0.8851,-0.9256,-0.9322,-0.9389,-0.9661,-0.9794,-0.9927,-1.0193,-0.9117,-0.7841,-0.6631,-0.5235,-0.3779,-0.2223,-0.2065,-0.2083,-0.1836,-0.1808,-0.1653,-0.1411,-0.1346,-0.1212,-0.1144,-0.1077,-0.1212,-0.1548,-0.1637,-0.1845,-0.2157,-0.2232,-0.1916,-0.1322,-0.1189,-0.0986,-0.071,-0.0217,-0.0073,-0.0217,-0.0073,0.0,0.0,0.0,0.0,0.0,0.0,0.0,0.0,0.0,0.0,0.0,0.0,0.0,0.0073,0.0656,0.1457,0.2403,-2.9994,-3.0491,-3.1008,-3.1319,-3.0871,-3.0577,-3.0863,-2.9322,-2.8175,-2.8175,-2.7637,-2.72,-2.72,-2.72,-2.72,-2.72,-2.72,-2.72,-2.72,-2.72,-2.689,-2.6176,-2.5197,-2.3837,-2.2093,-2.0973,-2.0127,-1.9448,-1.9401,-1.9692,-2.0318,-1.975,-1.9529,-1.9448,-1.7934,-1.7042,-1.6621,-1.5575,-1.5053,-1.4866,-1.4866,-1.5062,-1.5332,-1.5137,-1.5202,-1.5267,-1.5137,-1.5267,-1.5332,-1.4277,-1.321,-1.2091,-1.1035,-0.9775,-0.8784,-0.8784,-0.8856,-0.8934,-0.8834,-0.8884,-0.8923,-0.8917,-0.8917,-0.8984,-0.9322,-0.9528,-0.9794,-0.9994,-0.8712,-0.7303,-0.6564,-0.49,-0.3264,-0.2265,-0.2114,-0.2199,-0.2069,-0.1916,-0.1818,-0.1818,-0.1616,-0.1414,-0.1414,-0.1414,-0.1548,-0.175,-0.1842,-0.1985,-0.217,-0.2101,-0.1713,-0.1121,-0.0986,-0.071,-0.036,-0.0145,0.0,0.0,0.0,0.0,0.0,0.0,0.0,0.0,0.0,0.0073,0.0219,0.0219,0.0292,0.0365,0.0365,0.0292,0.0219,0.0219,0.0875,0.1821,-2.9994,-3.0739,-3.1381,-3.1381,-3.0605,-2.9989,-2.9989,-2.8398,-2.72,-2.72,-2.72,-2.72,-2.72,-2.72,-2.72,-2.72,-2.72,-2.72,-2.72,-2.72,-2.72,-2.72,-2.6191,-2.5764,-2.6032,-2.2525,-2.1046,-2.1653,-1.9111,-1.8422,-1.9529,-1.9529,-1.9529,-1.9448,-1.8854,-1.7927,-1.6631,-1.5998,-1.5385,-1.4866,-1.4931,-1.4931,-1.4931,-1.5332,-1.5267,-1.4931,-1.5332,-1.5463,-1.5332,-1.4277,-1.3218,-1.2157,-1.1035,-0.9975,-0.9117,-0.9117,-0.9389,-0.9625,-0.9346,-0.949,-0.9528,-0.879,-0.859,-0.859,-0.859,-0.9189,-0.9661,-0.9661,-0.7912,-0.6364,-0.6364,-0.4096,-0.2223,-0.2223,-0.2223,-0.2223,-0.2223,-0.2223,-0.2223,-0.2223,-0.2223,-0.2223,-0.2223,-0.2223,-0.2223,-0.2223,-0.2184,-0.22,-0.22,-0.1788,-0.1453,-0.1122,-0.0711,-0.036,0.0,0.0,0.0,0.0,0.0,0.0,0.0,0.0,0.0,0.0,0.0,0.0219,0.0584,0.0584,0.0876,0.1241,0.1241,0.0949,0.0584,0.0584,0.0584,0.0584,-3.047,-3.0967,-3.1485,-3.1795,-3.0547,-2.9599,-2.9952,-2.8398,-2.72,-2.72,-2.72,-2.72,-2.72,-2.72,-2.72,-2.72,-2.72,-2.72,-2.72,-2.7176,-2.688,-2.61,-2.4567,-2.3252,-2.2245,-2.0215,-1.9129,-1.9041,-1.8482,-1.8692,-1.9529,-1.9529,-1.982,-2.0306,-1.9416,-1.8415,-1.7442,-1.6532,-1.5715,-1.4931,-1.5453,-1.5518,-1.5398,-1.5984,-1.5854,-1.5398,-1.5714,-1.5844,-1.5844,-1.5779,-1.4987,-1.3726,-1.1688,-1.0174,-0.9201,-0.9563,-0.9728,-0.9802,-0.9777,-0.9825,-0.9849,-0.9211,-0.9259,-0.9322,-0.8984,-0.8518,-0.8184,-0.8184,-0.6243,-0.4635,-0.49,-0.343,-0.2223,-0.2223,-0.2223,-0.2223,-0.2223,-0.2223,-0.223,-0.2184,-0.2168,-0.2172,-0.2214,-0.218,-0.2173,-0.2215,-0.1948,-0.1751,-0.1414,-0.1332,-0.1053,-0.0711,-0.0571,-0.036,0.0,0.0,0.0,0.0,0.0,0.0,0.0,0.0,0.0146,0.0438,0.0438,0.1094,0.2186,0.2186,0.2258,0.2404,0.2404,0.2331,0.2113,0.1313,0.1532,0.2113,-3.0967,-3.1319,-3.1484,-3.1121,-3.0254,-2.9476,-2.9074,-2.7991,-2.72,-2.72,-2.72,-2.72,-2.72,-2.72,-2.72,-2.72,-2.72,-2.6934,-2.6383,-2.6464,-2.5819,-2.4114,-2.2849,-2.1816,-2.102,-1.9772,-1.8747,-1.7931,-1.765,-1.7921,-1.8633,-1.8633,-1.9192,-2.0156,-1.9484,-1.888,-1.8327,-1.7671,-1.6691,-1.5707,-1.6435,-1.6237,-1.5651,-1.6963,-1.6713,-1.5722,-1.6498,-1.6567,-1.6234,-1.6429,-1.5434,-1.3726,-1.1622,-1.0146,-0.9276,-0.9764,-0.9992,-1.0141,-1.0191,-1.0259,-1.0234,-0.9863,-0.9728,-0.9722,-0.9401,-0.8917,-0.8384,-0.7846,-0.6172,-0.4702,-0.4367,-0.3161,-0.2223,-0.2223,-0.2223,-0.2223,-0.2223,-0.2223,-0.223,-0.218,-0.2177,-0.2183,-0.2207,-0.206,-0.193,-0.1752,-0.1544,-0.1337,-0.1136,-0.0921,-0.0781,-0.0501,-0.036,-0.0217,0.0,0.0,0.0,0.0,0.0,0.0,0.0,0.0146,0.0365,0.0584,0.0803,0.1677,0.313,0.313,0.3494,0.4003,0.3567,0.3278,0.2986,0.1822,0.1895,0.2404,-3.1443,-3.1684,-3.1437,-2.9948,-2.9742,-2.9251,-2.771,-2.7294,-2.7153,-2.7153,-2.7185,-2.7185,-2.7219,-2.7185,-2.7185,-2.7219,-2.7251,-2.6651,-2.5143,-2.5398,-2.4506,-2.1859,-2.1433,-2.1365,-2.1377,-2.0409,-1.9239,-1.7931,-1.6744,-1.6603,-1.7308,-1.7308,-1.8072,-1.9379,-1.9232,-1.9118,-1.9084,-1.8857,-1.8014,-1.6844,-1.752,-1.698,-1.5963,-1.8026,-1.7617,-1.5975,-1.7412,-1.7337,-1.6504,-1.659,-1.4922,-1.2602,-1.1394,-1.0229,-0.9381,-0.9813,-1.0159,-1.0451,-1.0642,-1.069,-1.0718,-1.0496,-1.019,-0.9955,-0.9758,-0.9794,-0.9449,-0.8112,-0.6836,-0.5633,-0.4367,-0.3094,-0.2223,-0.2223,-0.2223,-0.2223,-0.2223,-0.2223,-0.2223,-0.2225,-0.2184,-0.2191,-0.2169,-0.1873,-0.1478,-0.1054,-0.1055,-0.1056,-0.0985,-0.0641,-0.043,-0.043,-0.0145,0.0,0.0,0.0,0.0,0.0,0.0,0.0,0.0073,0.0438,0.0657,0.0729,0.1095,0.2114,0.3569,0.3641,0.4439,0.5528,0.4587,0.4005,0.3569,0.2331,0.1968,0.2113,-3.1899,-3.1438,-3.0835,-3.0231,-2.8993,-2.7816,-2.7193,-2.6917,-2.6787,-2.6787,-2.7026,-2.7238,-2.7213,-2.7174,-2.7222,-2.7213,-2.7422,-2.6969,-2.5562,-2.5789,-2.4811,-2.2284,-2.2076,-2.1164,-1.917,-1.8342,-1.8002,-1.8272,-1.6875,-1.6603,-1.7308,-1.7308,-1.7791,-1.8692,-1.9194,-1.9001,-1.8342,-1.8287,-1.7952,-1.7588,-1.7655,-1.725,-1.6621,-1.7984,-1.741,-1.5956,-1.6891,-1.6925,-1.659,-1.7041,-1.5242,-1.2848,-1.3141,-1.1403,-0.9484,-1.0316,-1.0581,-1.0642,-1.0944,-1.1049,-1.1016,-1.0685,-1.0658,-1.057,-1.0159,-0.8579,-0.7036,-0.6502,-0.4632,-0.3026,-0.2692,-0.2423,-0.2223,-0.2223,-0.2223,-0.2223,-0.2223,-0.2223,-0.2231,-0.2188,-0.2196,-0.2077,-0.1833,-0.1506,-0.1153,-0.0642,-0.0647,-0.0579,-0.0289,-0.0145,-0.0073,-0.0073,-0.0073,0.0,0.0,0.0292,0.0292,0.0,0.0,0.0146,0.0438,0.0584,0.0948,0.1531,0.1604,0.2551,0.4005,0.4947,0.4947,0.4514,0.5165,0.5383,0.502,0.2986,0.335,0.4729,-3.1103,-3.047,-2.9615,-2.8679,-2.7818,-2.7068,-2.6454,-2.6406,-2.655,-2.6921,-2.7098,-2.7213,-2.7181,-2.7182,-2.7149,-2.7198,-2.7506,-2.682,-2.467,-2.5048,-2.4093,-2.1346,-2.1414,-2.0921,-1.9529,-1.8212,-1.7439,-1.7077,-1.6108,-1.5895,-1.6461,-1.6461,-1.6946,-1.7861,-1.8282,-1.8556,-1.8783,-1.8783,-1.8716,-1.8674,-1.9016,-1.8334,-1.7261,-1.8754,-1.8028,-1.6297,-1.6674,-1.6404,-1.6034,-1.7188,-1.55,-1.2978,-1.3458,-1.1558,-0.9382,-1.0294,-1.0492,-1.0487,-1.1047,-1.1111,-1.1009,-1.0778,-1.0778,-1.0752,-1.0472,-0.8911,-0.7169,-0.6301,-0.4565,-0.3026,-0.2356,-0.2223,-0.2223,-0.2223,-0.2223,-0.2223,-0.2223,-0.2223,-0.2228,-0.2177,-0.2065,-0.1754,-0.1225,-0.1012,-0.0723,-0.0289,-0.0291,-0.0219,0.0,0.0,0.0,0.0,0.0,0.0073,0.0292,0.0511,0.0584,0.0584,0.0584,0.0657,0.0876,0.1094,0.1385,0.1822,0.1968,0.2842,0.4153,0.531,0.5818,0.5822,0.6402,0.6692,0.6475,0.4657,0.4366,0.4878,-2.9831,-2.9063,-2.802,-2.6759,-2.6619,-2.6432,-2.5716,-2.5992,-2.6488,-2.7036,-2.7133,-2.7165,-2.7123,-2.7076,-2.7097,-2.7149,-2.7342,-2.6321,-2.3636,-2.395,-2.2969,-2.0249,-2.0457,-2.0596,-2.0318,-1.8633,-1.7228,-1.5957,-1.5328,-1.5186,-1.5603,-1.5603,-1.6178,-1.7097,-1.7238,-1.8002,-1.9111,-1.9111,-1.9251,-1.9529,-2.0167,-1.9323,-1.7861,-1.9527,-1.8743,-1.6782,-1.6707,-1.5998,-1.5395,-1.7099,-1.548,-1.2744,-1.3223,-1.1427,-0.928,-1.0007,-1.0195,-1.0269,-1.0922,-1.0988,-1.0847,-1.0758,-1.0738,-1.0751,-1.0724,-0.9443,-0.7902,-0.6631,-0.5101,-0.3564,-0.2423,-0.2223,-0.2223,-0.2223,-0.2223,-0.2223,-0.2223,-0.2223,-0.2157,-0.2095,-0.1731,-0.1279,-0.0655,-0.0506,-0.0289,0.0,0.0,0.0,0.0,0.0,0.0,0.0,0.0073,0.0292,0.0584,0.0729,0.0948,0.1313,0.1386,0.1386,0.1313,0.1677,0.1822,0.1895,0.2187,0.2842,0.3862,0.5238,0.6253,0.7059,0.7421,0.7494,0.7127,0.5963,0.4878,0.4153,-2.8898,-2.7552,-2.6476,-2.6787,-2.6008,-2.5398,-2.5583,-2.6142,-2.6586,-2.6635,-2.6914,-2.7107,-2.7119,-2.7101,-2.7126,-2.7111,-2.6606,-2.5628,-2.3933,-2.335,-2.2147,-2.0179,-2.0457,-2.011,-1.8714,-1.7851,-1.7429,-1.758,-1.5824,-1.5186,-1.5603,-1.5603,-1.5895,-1.6391,-1.7026,-1.7379,-1.759,-1.759,-1.8352,-1.946,-1.9332,-1.8908,-1.8537,-1.9273,-1.8395,-1.6807,-1.6891,-1.6156,-1.5395,-1.7099,-1.4887,-1.1641,-1.3279,-1.1676,-0.9226,-0.975,-0.9983,-1.0146,-1.0543,-1.0783,-1.0847,-1.0758,-1.0819,-1.0813,-1.0751,-0.864,-0.6631,-0.6431,-0.4297,-0.2423,-0.2223,-0.2223,-0.2223,-0.2223,-0.2223,-0.2223,-0.2223,-0.2223,-0.2097,-0.1711,-0.1053,-0.0646,-0.0583,-0.0291,-0.0073,0.0,0.0,0.0,0.0,0.0,0.0,0.0,0.0365,0.0511,0.0584,0.1312,0.1677,0.175,0.2041,0.1968,0.175,0.175,0.1968,0.226,0.226,0.2405,0.2697,0.4875,0.531,0.4805,0.6841,0.6982,0.5891,0.4732,0.4223,0.4153,-2.6816,-2.5795,-2.516,-2.5789,-2.5317,-2.5098,-2.6006,-2.6248,-2.6459,-2.6844,-2.7027,-2.7102,-2.7119,-2.7265,-2.7427,-2.7427,-2.6756,-2.5755,-2.4334,-2.3365,-2.2078,-2.0527,-2.0596,-2.0388,-1.9692,-1.8131,-1.7359,-1.757,-1.6098,-1.5328,-1.5257,-1.5886,-1.624,-1.6178,-1.6532,-1.6885,-1.7308,-1.7308,-1.8142,-1.946,-1.9332,-1.9392,-1.9482,-1.9159,-1.8506,-1.762,-1.6517,-1.4711,-1.3332,-1.5948,-1.4336,-1.1447,-1.3302,-1.1766,-0.9297,-0.9924,-1.0125,-1.0207,-1.0679,-1.0859,-1.0847,-1.0758,-1.0772,-1.0806,-1.0738,-0.844,-0.6431,-0.6431,-0.4163,-0.2223,-0.2223,-0.2223,-0.2223,-0.2223,-0.2223,-0.2223,-0.2223,-0.2033,-0.1648,-0.1052,-0.0917,-0.0714,-0.0291,-0.0073,0.0,0.0,0.0,0.0,0.0,0.0,0.0,0.0,0.0365,0.073,0.0949,0.1531,0.1895,0.2114,0.226,0.2187,0.2114,0.2114,0.2187,0.2333,0.2333,0.2333,0.2478,0.4802,0.5528,0.5313,0.7634,0.8218,0.7634,0.6475,0.5604,0.5096]},{"header":{"parameterUnit":"m.s-1","parameterCategory":1,"la1":30.6,"la2":28.766,"lo1":-90.7593,"lo2":-88.6598,"dx":0.0162,"dy":0.0183,"nx":116,"ny":114,"refTime":"2022-12-07T06:00:00:Z","depth":0,"parameterNumber":3,"parameterNumberName":"V-component_of_WINDS"},"data":[0.0,0.0,0.0,0.0,0.0,0.0,0.0,0.0,0.0,0.0,0.0,0.0,0.0,0.0,0.0,0.0,0.0,0.0,0.0,0.0,0.0,0.0,0.0,0.0,0.0,0.0,0.0,0.0,0.0,0.0,0.0,0.0,0.0,0.0,0.0,0.0,0.0,0.0,0.0,0.0,0.0,0.0,0.0,0.0,0.0,0.0,0.0,0.0,0.0,0.0,0.0,0.0,0.0,0.0,0.0,0.0,0.0,0.0,0.0,0.0,0.0,0.0,0.0,0.0,0.0,0.0,0.0,0.0,0.0,0.0,0.0,0.0,0.0,0.0,0.0,0.0,0.0,0.0,0.0,0.0,0.0,0.0,0.0,0.0,0.0,0.0,0.0,0.0,0.0,0.0,0.0,0.0,0.0,0.0,0.0,0.0,0.0,0.0,0.0,0.0,0.0,0.0,0.0,0.0,0.0,0.0,0.0,0.0,0.0,0.0,0.0,0.0,0.0,0.0,0.0,0.0,0.0,0.0,0.0,0.0,0.0,0.0,0.0,0.0,0.0,0.0,0.0,0.0,0.0,0.0,0.0,0.0,0.0,0.0,0.0,0.0,0.0,0.0,0.0,0.0,0.0,0.0,0.0,0.0,0.0,0.0,0.0,0.0,0.0,0.0,0.0,0.0,0.0,0.0,0.0,0.0,0.0,0.0,0.0,0.0,0.0,0.0,0.0,0.0,0.0,0.0,0.0,0.0,0.0,0.0,0.0,0.0,0.0,0.0,0.0,0.0,0.0,0.0,0.0,0.0,0.0,0.0,0.0,0.0,0.0,0.0,0.0,0.0,0.0,0.0,0.0,0.0,0.0,0.0,0.0,0.0,0.0,0.0,0.0,0.0,0.0,0.0,0.0,0.0,0.0,0.0,0.0,0.0,0.0,0.0,0.0,0.0,0.0,0.0,0.0,0.0,0.0,0.0,0.0,0.0,0.0,0.0,0.0,0.0,0.0,0.0,0.0,0.0,0.0,0.0,0.0,0.0,0.0,0.0,0.0,0.0,0.0,0.0,0.0,0.0,0.0,0.0,0.0,0.0,0.0,0.0,0.0,0.0,0.0,0.0,0.0,0.0,0.0,0.0,0.0,0.0,0.0,0.0,0.0,0.0,0.0,0.0,0.0,0.0,0.0,0.0,0.0,0.0,0.0,0.0,0.0,0.0,0.0,0.0,0.0,0.0,0.0,0.0,0.0,0.0,0.0,0.0,0.0,0.0,0.0,0.0,0.0,0.0,0.0,0.0,0.0,0.0,0.0,0.0,0.0,0.0,0.0,0.0,0.0,0.0,0.0,0.0,0.0,0.0,0.0,0.0,0.0,0.0,0.0,0.0,0.0,0.0,0.0,0.0,0.0,0.0,0.0,0.0,0.0,0.0,0.0,0.0,0.0,0.0,0.0,0.0,0.0,0.0,0.0,0.0,0.0,0.0,0.0,0.0,0.0,0.0,0.0,0.0,0.0,0.0,0.0,0.0,0.0,0.0,0.0,0.0,0.0,0.0,0.0,0.0,0.0,0.0,0.0,0.0,0.0,0.0,0.0,0.0,0.0,0.0,0.0,0.0,0.0,0.0,0.0,0.0,0.0,0.0,0.0,0.0,0.0,0.0,0.0,0.0,0.0,0.0,0.0,0.0,0.0,0.0,0.0,0.0,0.0,0.0,0.0,0.0,0.0,0.0,0.0,0.0,0.0,0.0,0.0,0.0,0.0,0.0,0.0,0.0,0.0,0.0,0.0,0.0,0.0,0.0,0.0,0.0,0.0,0.0,0.0,0.0,0.0,0.0,0.0,0.0,0.0,0.0,0.0,0.0,0.0,0.0,0.0,0.0,0.0,0.0,0.0,0.0,0.0,0.0,0.0,0.0,0.0,0.0,0.0,0.0,0.0,0.0,0.0,0.0,0.0,0.0,0.0,0.0,0.0,0.0,0.0,0.0,0.0,0.0,0.0,0.0,0.0,0.0,0.0,0.0,0.0,0.0,0.0,0.0,0.0,0.0,0.0,0.0,0.0,0.0,0.0,0.0,0.0,0.0,0.0,0.0,0.0,0.0,0.0,0.0,0.0,0.0,0.0,0.0,0.0,0.0,0.0,0.0,0.0,0.0,0.0,0.0,0.0,0.0,0.0,0.0,0.0,0.0,0.0,0.0,0.0,0.0,0.0,0.0,0.0,0.0,0.0,0.0,0.0,0.0,0.0,0.0,0.0,0.0,0.0,0.0,0.0,0.0,0.0,0.0,0.0,0.0,0.0,0.0,0.0,0.0,0.0,0.0,0.0,0.0,0.0,0.0,0.0,0.0,0.0,0.0,0.0,0.0,0.0,0.0,0.0,0.0,0.0,0.0,0.0,0.0,0.0,0.0,0.0,0.0,0.0,0.0,0.0,0.0,0.0,0.0,0.0,0.0,0.0,0.0,0.0,0.0,0.0,0.0,0.0,0.0,0.0,0.0,0.0,0.0,0.0,0.0,0.0,0.0,0.0,0.0,0.0,0.0,0.0,0.0,0.0,0.0,0.0,0.0,0.0,0.0,0.0,0.0,0.0,0.0,0.0,0.0,0.0,0.0,0.0,0.0,0.0,0.0,0.0,0.0,0.0,0.0,0.0,0.0,0.0,0.0,0.0,0.0,0.0,0.0,0.0,0.0,0.0,0.0,0.0,0.0,0.0,0.0,0.0,0.0,0.0,0.0,0.0,0.0,0.0,0.0,0.0,0.0,0.0,0.0,0.0,0.0,0.0,0.0,0.0,0.0,0.0,0.0,0.0,0.0,0.0,0.0,0.0,0.0,0.0,0.0,0.0,0.0,0.0,0.0,0.0,0.0,0.0,0.0,0.0,0.0,0.0,0.0,0.0,0.0,0.0,0.0,0.0,0.0,0.0,0.0,0.0,0.0,0.0,0.0,0.0,0.0,0.0,0.0,0.0,0.0,0.0,0.0,0.0,0.0,0.0,0.0,0.0,0.0,0.0,0.0,0.0,0.0,0.0,0.0,0.0,0.0,0.0,0.0,0.0,0.0,0.0,0.0,0.0,0.0,0.0,0.0,0.0,0.0,0.0,0.0,0.0,0.0,0.0,0.0,0.0,0.0,0.0,0.0,0.0,0.0,0.0,0.0,0.0,0.0,0.0,0.0,0.0,0.0,0.0,0.0,0.0,0.0,0.0,0.0,0.0,0.0,0.0,0.0,0.0,0.0,0.0,0.0,0.0,0.0,0.0,0.0,0.0,0.0,0.0,0.0,0.0,0.0,0.0,0.0,0.0,0.0,0.0,0.0,0.0,0.0,0.0,0.0,0.0,0.0,0.0,0.0,0.0,0.0,0.0,0.0,0.0,0.0,0.0,0.0,0.0,0.0,0.0,0.0,0.0,0.0,0.0,0.0,0.0,0.0,0.0,0.0,0.0,0.0,0.0,0.0,0.0,0.0,0.0,0.0,0.0,0.0,0.0,0.0,0.0,0.0,0.0,0.0,0.0,0.0,0.0,0.0,0.0,0.0,0.0,0.0,0.0,0.0,0.0,0.0,0.0,0.0,0.0,0.0,0.0,0.0,0.0,0.0,0.0,0.0,0.0,0.0,0.0,0.0,0.0,0.0,0.0,0.0,0.0,0.0,0.0,0.0,0.0,0.0,0.0,0.0,0.0,0.0,0.0,0.0,0.0,0.0,0.0,0.0,0.0,0.0,0.0,0.0,0.0,0.0,0.0,0.0,0.0,0.0,0.0,0.0,0.0,0.0,0.0,0.0,0.0,0.0,0.0,0.0,0.0,0.0,0.0,0.0,0.0,0.0,0.0,0.0,0.0,0.0,0.0,0.0,0.0,0.0,0.0,0.0,0.0,0.0,0.0,0.0,0.0,0.0,0.0,0.0,0.0,0.0,0.0,0.0,0.0,0.0,0.0,0.0,0.0,0.0,0.0,0.0,0.0,0.0,0.0,0.0,0.0,0.0,0.0,0.0,0.0,0.0,0.0,0.0,0.0,0.0,0.0,0.0,0.0,0.0,0.0,0.0,0.0,0.0,0.0,0.0,0.0,0.0,0.0,0.0,0.0,0.0,0.0,0.0,0.0,0.0,0.0,0.0,0.0,0.0,0.0,0.0,0.0,0.0,0.0,0.0,0.0,0.0,0.0,0.0,0.0,0.0,0.0,0.0,0.0,0.0,0.0,0.0,0.0,0.0,0.0,0.0,0.0,0.0,0.0,0.0,0.0,0.0,0.0,0.0,0.0,0.0,0.0,0.0,0.0,0.0,0.0,0.0,0.0,0.0,0.0,0.0,0.0,0.0,0.0,0.0,0.0,0.0,0.0,0.0,0.0,0.0,0.0,0.0,0.0,0.0,0.0,0.0,0.0,0.0,0.0,0.0,0.0,0.0,0.0,0.0,0.0,0.0,0.0,0.0,0.0,0.0,0.0,0.0,0.0,0.0,0.0,0.0,0.0,0.0,0.0,0.0,0.0,0.0,0.0,0.0,0.0,0.0,0.0,0.0,0.0,0.0,0.0,0.0,0.0,0.0,0.0,0.0,0.0,0.0,0.0,0.0,0.0,0.0,0.0,0.0,0.0,0.0,0.0,0.0,0.0,0.0,0.0,0.0,0.0,0.0,0.0,0.0,0.0,0.0,0.0,0.0,0.0,0.0,0.0,0.0,0.0,0.0,0.0,0.0,0.0,0.0,0.0,0.0,0.0,0.0,0.0,0.0,0.0,0.0,0.0,0.0,0.0,0.0,0.0,0.0,0.0,0.0,0.0,0.0,0.0,0.0,0.0,0.0,0.0,0.0,0.0,0.0,0.0,0.0,0.0,0.0,0.0,0.0,0.0,0.0,0.0,0.0,0.0,0.0,0.0,0.0,0.0,0.0,0.0,0.0,0.0,0.0,0.0,0.0,0.0,0.0,0.0,0.0,0.0,0.0,0.0,0.0,0.0,0.0,0.0,0.0,0.0,0.0,0.0,0.0,0.0,0.0,0.0,0.0,0.0,0.0,0.0,0.0,0.0,0.0,0.0,0.0,0.0,0.0,0.0,0.0,0.0,0.0,0.0,0.0,0.0,0.0,0.0,0.0,0.0,0.0,0.0,0.0,0.0,0.0,0.0,0.0,0.0,0.0,0.0,0.0,0.0,0.0,0.0,0.0,0.0,0.0,0.0,0.0,0.0,0.0,0.0,0.0,0.0,0.0,0.0,0.0,0.0,0.0,0.0,0.0,0.0,0.0,0.0,0.0,0.0,0.0,0.0,0.0,0.0,0.0,0.0,0.0,0.0,0.0,0.0,0.0,0.0,0.0,0.0,0.0,0.0,0.0,0.0,0.0,0.0,0.0,0.0,0.0,0.0,0.0,0.0,0.0,0.0,0.0,0.0,0.0,0.0,0.0,0.0,0.0,0.0,0.0,0.0,0.0,0.0,0.0,0.0,0.0,0.0,0.0,0.0,0.0,0.0,0.0,0.0,0.0,0.0,0.0,0.0,0.0,0.0,0.0,0.0,0.0,0.0,0.0,0.0,0.0,0.0,0.0,0.0,0.0,0.0,0.0,0.0,0.0,0.0,0.0,0.0,0.0,0.0,0.0,0.0,0.0,0.0,0.0,0.0,0.0,0.0,0.0,0.0,0.0,0.0,0.0,0.0,0.0,0.0,0.0,0.0,0.0,0.0,0.0,0.0,0.0,0.0,0.0,0.0,0.0,0.0,0.0,0.0,0.0,0.0,0.0,0.0,0.0,0.0,0.0,0.0,0.0,0.0,0.0,0.0,0.0,0.0,0.0,0.0,0.0,0.0,0.0,0.0,0.0,0.0,0.0,0.0,0.0,0.0,0.0,0.0,0.0,0.0,0.0,0.0,0.0,0.0,0.0,0.0,0.0,0.0,0.0,0.0,0.0,0.0,0.0,0.0,0.0,0.0,0.0,0.0,0.0,0.0,0.0,0.0,0.0,0.0,0.0,0.0,0.0,0.0,0.0,0.0,0.0,0.0,0.0,0.0,0.0,0.0,0.0,0.0,0.0,0.0,0.0,0.0,0.0,0.0,0.0,0.0,0.0,0.0,0.0,0.0,0.0,0.0,0.0,0.0,0.0,2.5351,2.1798,0.0,0.0,0.0,0.0,0.0,0.0,0.0,0.0,0.0,0.0,0.0,0.0,0.0,0.0,0.0,0.0,0.0,0.0,0.0,0.0,0.0,0.0,0.0,0.9432,0.9501,0.9121,0.9388,0.0,0.0,0.0,0.0,0.0,0.0,0.0,0.0,0.0,0.9426,1.021,1.2164,1.4953,1.8516,1.8394,1.6197,1.2273,0.0,0.0,0.0,0.0,0.0,0.0,0.0,0.0,0.0,0.0,0.0,0.0,0.0,0.0,0.0,0.0,0.0,0.0,0.0,0.0,0.0,0.0,0.0,0.0,0.0,0.0,0.0,0.0,0.0,0.0,0.0,0.0,0.0,0.0,0.0,0.0,0.0,0.0,0.0,0.0,0.0,0.0,0.0,0.0,0.0,0.0,0.0,0.0,0.0,0.0,0.0,0.0,0.0,0.0,0.0,0.0,0.0,0.0,0.0,0.0,0.0,0.0,0.0,0.0,0.0,0.0,0.0,0.0,0.0,0.0,2.9802,2.6359,0.0,0.0,0.0,0.0,0.0,0.0,0.0,0.0,0.0,0.0,0.0,0.0,0.0,0.0,0.0,0.0,0.0,0.0,0.0,0.0,0.0,0.9409,0.9336,1.0007,1.021,0.9541,1.0036,1.0127,0.9503,0.9268,0.0,0.0,0.0,0.0,0.8958,0.9688,1.0747,1.2137,1.6359,2.0846,2.5547,2.704,2.3618,1.621,1.5175,0.0,0.0,0.0,0.0,0.0,0.0,0.0,0.0,0.0,0.0,0.0,0.0,0.0,0.0,0.0,0.0,0.0,0.0,0.0,0.0,0.0,0.0,0.0,0.0,0.0,0.0,0.0,0.0,0.0,0.0,0.0,0.0,0.0,0.0,0.0,0.0,0.0,0.0,0.0,0.0,0.0,0.0,0.0,0.0,0.0,0.0,0.0,0.0,0.0,0.0,0.0,0.0,0.0,0.0,0.0,0.0,0.0,0.0,0.0,0.0,0.0,0.0,0.0,3.6738,3.7085,3.7233,3.7502,3.7693,3.7689,3.544,3.2558,2.9324,2.8091,0.0,0.0,0.0,0.0,0.0,0.0,0.0,0.0,0.0,0.0,0.0,0.0,0.0,0.0,0.0,0.0,0.0,0.0,0.0,1.0374,1.0241,1.1027,1.1476,1.1122,1.1279,1.1261,1.0926,1.0879,0.0,0.0,0.0,1.0776,1.0776,1.1489,1.3565,1.7072,2.2519,2.5724,2.676,2.7754,2.7713,2.6711,2.4813,2.2731,2.0491,0.0,0.0,0.0,0.0,0.0,0.0,0.0,0.0,0.0,0.0,0.0,0.0,0.0,0.0,0.0,0.0,0.0,0.0,0.0,0.0,0.0,0.0,0.0,0.0,0.0,0.0,0.0,0.0,0.0,0.0,0.0,0.0,0.0,0.0,0.0,0.0,0.0,0.0,0.0,0.0,0.0,2.9214,2.7023,0.0,0.0,0.0,0.0,0.0,0.0,0.0,0.0,0.0,0.0,0.0,0.0,0.0,3.4765,3.4765,3.6091,3.6833,3.6989,4.0011,4.1805,4.2563,4.4106,4.5196,4.5802,4.4772,0.0,3.4535,3.1457,0.0,0.0,0.0,0.0,0.0,0.0,0.0,0.0,0.0,0.0,0.0,0.0,0.0,0.0,0.0,0.0,0.0,0.0,0.0,0.0,0.0,1.4118,1.5569,1.5464,1.744,1.7514,1.4744,1.4546,0.0,0.0,1.1528,1.1709,1.1709,1.5036,1.982,2.6071,2.9066,3.1808,3.4274,3.5277,3.6177,3.6941,3.5148,3.121,2.5632,2.1733,0.0,0.0,0.0,0.0,0.0,0.0,0.0,0.0,0.0,0.0,0.0,0.0,0.0,0.0,0.0,0.0,0.0,0.0,0.0,0.0,0.0,0.0,0.0,0.0,0.0,0.0,0.0,0.0,0.0,0.0,0.0,0.0,0.0,0.0,0.0,0.0,0.0,0.0,0.0,2.6715,2.8127,2.5554,2.6993,2.7008,0.0,0.0,0.0,0.0,0.0,0.0,0.0,0.0,0.0,3.4276,3.7187,3.919,4.0163,4.2011,4.3121,4.3525,4.5157,4.6091,4.6372,4.7735,4.8265,4.8179,4.8304,4.6353,4.2758,3.8322,3.5137,3.2891,0.0,0.0,0.0,0.0,3.0585,3.1015,0.0,0.0,0.0,0.0,0.0,0.0,0.0,0.0,0.0,0.0,0.0,0.0,1.418,1.7882,2.0331,2.0474,2.2964,2.2807,1.8723,1.8183,1.6361,1.2643,1.2906,1.3251,1.3421,1.9223,2.5792,3.3106,3.4446,3.6809,4.0106,4.1198,4.2156,4.293,4.2216,3.8002,3.1125,2.686,2.453,2.3192,0.0,0.0,0.0,0.0,0.0,0.0,0.0,0.0,0.0,0.0,0.0,0.0,0.0,0.0,0.0,0.0,0.0,0.0,0.0,0.0,0.0,0.0,0.0,0.0,0.0,0.0,0.0,0.0,0.0,0.0,0.0,0.0,0.0,0.0,0.0,0.0,0.0,2.7773,2.8922,2.5661,2.8342,2.9367,0.0,0.0,0.0,0.0,0.0,0.0,3.2298,3.5779,3.8085,3.8747,4.1735,4.4047,4.5566,4.7922,4.9495,5.0236,5.0586,5.0664,5.0553,5.1096,5.1008,5.0463,5.0813,5.0541,4.9333,4.3902,4.0163,3.7762,3.6921,3.6551,3.657,3.657,3.6983,3.7578,0.0,0.0,0.0,0.0,0.0,0.0,0.0,0.0,0.0,0.0,0.0,1.7968,1.7865,2.2054,2.5045,2.5506,2.5458,2.442,2.2,2.0951,1.908,1.6097,1.5783,1.6035,1.6723,2.3814,2.9955,3.4959,3.7612,3.9479,4.0597,4.1792,4.2168,4.186,4.3415,4.1849,3.7743,3.489,3.1987,2.8854,2.3791,0.0,0.0,0.0,0.0,0.0,0.0,0.0,0.0,0.0,0.0,0.0,0.0,0.0,0.0,0.0,0.0,0.0,0.0,0.0,0.0,0.0,0.0,0.0,0.0,0.0,0.0,0.0,0.0,0.0,0.0,0.0,0.0,0.0,0.0,0.0,0.0,0.0,0.0,3.2023,3.4509,0.0,0.0,0.0,0.0,3.5274,3.6338,3.686,3.6857,4.0893,4.3218,4.3257,4.733,4.9991,5.0887,5.268,5.4004,5.4857,5.5645,5.6035,5.607,5.529,5.4901,5.4823,5.4043,5.3229,5.1939,4.5959,4.3378,4.2875,3.9633,3.8358,3.8361,3.8361,3.8401,3.8547,0.0,0.0,0.0,0.9975,0.9955,1.0094,1.0634,1.0936,1.1728,1.3357,1.6902,1.9657,2.0627,2.617,2.9841,2.9841,3.1872,3.1901,2.8875,2.6563,2.3864,2.0638,1.925,2.0767,2.5574,3.0249,3.4908,3.9531,4.0541,4.1891,4.3578,4.4368,4.4909,4.5266,4.5647,4.5031,4.334,3.8489,3.5809,3.434,2.9329,2.5273,0.0,0.0,0.0,0.0,0.0,0.0,0.0,0.0,0.0,0.0,0.0,0.0,0.0,0.0,0.0,0.0,0.0,0.0,0.0,0.0,0.0,0.0,0.0,0.0,0.0,0.0,0.0,0.0,0.0,0.0,0.0,0.0,0.0,0.0,0.0,0.0,0.0,3.5383,3.7848,0.0,3.6366,3.618,3.659,3.7469,3.9883,4.1792,4.2882,4.6512,4.9321,5.0996,5.2017,5.2918,5.381,5.3849,5.3978,5.4191,5.4606,5.4757,5.4663,5.5034,5.4901,5.4394,5.4628,5.4238,5.3264,5.1117,4.9555,4.8425,4.7228,4.6725,4.6725,4.6725,4.7435,4.8455,0.0,0.0,0.0,0.9997,1.002,1.0274,1.1085,1.1427,1.2704,1.5792,1.9528,2.2687,2.4794,3.0471,3.4089,3.4026,3.6094,3.5776,3.1924,2.9495,2.6464,2.2612,2.2378,2.5553,3.2409,3.4946,3.838,4.2847,4.3003,4.3968,4.5767,4.6567,4.7084,4.7324,4.7444,4.7195,4.6403,4.2178,3.9983,3.8972,3.4522,3.0015,2.5756,0.0,0.0,0.0,0.0,0.0,0.0,0.0,0.0,0.0,0.0,0.0,0.0,0.0,0.0,0.0,0.0,0.0,0.0,0.0,0.0,0.0,0.0,0.0,0.0,0.0,0.0,0.0,0.0,0.0,0.0,0.0,0.0,0.0,0.0,3.4406,3.7253,3.7606,4.0403,4.1827,4.0661,4.1116,4.1866,4.27,4.5718,4.7985,4.9114,5.1351,5.3424,5.5134,5.4628,5.4905,5.6035,5.5762,5.5852,5.6292,5.6437,5.6432,5.6336,5.7021,5.7048,5.6503,5.6814,5.6775,5.6464,5.6191,5.5567,5.4593,5.2879,5.2177,5.2216,5.2528,5.3331,5.4364,0.0,0.0,1.0018,1.0018,1.001,1.028,1.1132,1.1917,1.3967,1.8138,2.3013,2.7252,3.0298,3.4757,3.7674,3.7942,3.7632,3.5474,3.0918,2.9479,2.6654,2.1958,2.5374,3.0298,3.6519,3.7611,4.022,4.4564,4.4986,4.5829,4.6967,4.8315,4.8518,4.7815,4.8798,4.8411,4.703,4.6229,4.4755,4.2656,3.9451,3.5073,3.0127,0.0,0.0,0.0,0.0,0.0,0.0,0.0,0.0,0.0,0.0,0.0,0.0,0.0,0.0,0.0,0.0,0.0,0.0,0.0,0.0,0.0,0.0,0.0,0.0,0.0,0.0,0.0,0.0,0.0,0.0,0.0,0.0,0.0,3.1046,3.7562,4.1445,3.9126,4.2486,4.5005,4.5083,4.664,4.8677,5.1238,5.3771,5.5212,5.529,5.529,5.5329,5.5407,5.5368,5.6147,5.7793,5.8602,5.9849,6.1607,6.1602,6.1602,6.1646,6.1685,6.1685,6.1646,6.0789,6.0906,6.1607,6.075,6.0906,6.1179,5.6113,5.4126,5.4199,5.5056,5.5345,5.5467,1.0113,1.0105,1.0061,1.0061,1.0087,1.0581,1.2048,1.2961,1.5179,1.9939,2.4826,2.8848,3.1339,3.5851,3.8294,3.7196,3.7536,3.6611,3.3859,3.1442,2.9124,2.6938,3.2588,3.6403,3.7742,4.1378,4.4108,4.586,4.7222,4.8573,5.0019,5.1327,5.1799,5.1597,5.1618,5.1413,5.0894,4.8846,4.7276,4.5949,4.297,3.9508,3.6021,0.0,0.0,0.0,0.0,0.0,0.0,0.0,0.0,0.0,0.0,0.0,0.0,0.0,0.0,0.0,0.0,0.0,0.0,0.0,0.0,0.0,0.0,0.0,0.0,0.0,0.0,0.0,0.0,0.0,0.0,0.0,3.5267,3.911,3.9117,4.0957,4.3416,4.6488,4.8429,5.0022,5.1269,5.2399,5.3334,5.4082,5.4784,5.5723,5.6931,5.7009,5.7866,5.9776,5.9077,5.9266,6.0516,5.9205,5.9593,6.1607,6.1451,6.1801,6.2542,6.3205,6.3478,6.34,6.3166,6.3205,6.34,6.3166,6.3205,6.3166,6.0516,5.9113,5.8568,5.8802,5.89,5.9023,1.0113,1.0113,1.0113,1.0113,1.0113,1.0694,1.243,1.3385,1.6053,2.2032,2.6195,3.0031,3.3627,3.7131,3.8719,3.7377,3.6854,3.5588,3.3268,3.1404,3.1028,3.2488,3.7169,4.0185,4.1144,4.4205,4.632,4.7454,4.8756,5.0268,5.1902,5.27,5.3172,5.3265,5.3174,5.2957,5.2489,5.0618,4.9156,4.7813,4.541,4.2272,3.8917,3.8272,3.5389,3.1643,3.1741,3.1224,3.0229,2.862,0.0,0.0,0.0,0.0,0.0,0.0,0.0,0.0,0.0,0.0,0.0,0.0,0.0,0.0,0.0,0.0,0.0,0.0,0.0,0.0,0.0,0.0,0.0,0.0,3.8645,4.3297,4.6197,4.6313,4.7175,5.019,5.1943,5.319,5.3849,5.5333,5.6269,5.6269,5.6931,5.7887,5.9127,5.8854,5.9516,6.1423,6.0534,6.0644,6.1962,6.12,6.155,6.3052,6.3384,6.3881,6.453,6.5387,6.5777,6.5738,6.5738,6.5933,6.6244,6.5894,6.5933,6.605,0.0,0.0,0.0,0.0,6.2689,6.3041,1.0113,1.0113,1.0113,1.0113,1.019,1.081,1.243,1.3541,1.6758,2.3954,2.7129,3.0787,3.6224,3.8226,3.8878,3.8079,3.5996,3.3604,3.0973,3.1101,3.3247,3.765,4.0076,4.2613,4.5381,4.6323,4.7526,4.9053,4.9928,5.1249,5.2907,5.3241,5.3533,5.3768,5.3973,5.3623,5.2812,5.176,5.0436,4.8919,4.7199,4.4057,4.0265,3.9328,3.7124,3.4418,3.3627,3.2873,3.226,3.2648,0.0,0.0,0.0,0.0,0.0,0.0,0.0,0.0,0.0,0.0,0.0,0.0,0.0,0.0,0.0,0.0,0.0,0.0,0.0,0.0,0.0,0.0,0.0,0.0,4.1285,4.5612,5.1726,5.2097,5.1725,5.1752,5.3857,5.5061,5.4398,5.6468,5.7871,5.7988,5.9425,6.0633,6.1454,6.0747,0.0,0.0,0.0,6.1465,6.2949,6.3864,6.4765,6.5559,6.6528,6.7008,6.718,6.8037,6.8421,6.8421,6.8421,6.8855,6.9523,6.8738,6.8899,6.9255,6.5855,6.453,6.4617,6.5322,6.6045,6.6687,1.0223,1.0113,1.0113,1.0113,1.0694,1.1504,1.2546,1.4583,1.8148,2.4112,2.7174,3.0877,3.6356,3.7926,3.8601,3.8626,3.6434,3.4142,3.2115,3.6061,3.8742,3.9279,4.3486,4.5971,4.625,4.7678,4.8895,4.9891,5.1323,5.2565,5.3542,5.4666,5.5238,5.5255,5.5063,5.4858,5.4557,5.2257,5.1112,5.0662,4.8967,4.6532,4.3831,4.2921,4.2618,4.2617,4.2436,4.2272,4.1727,3.9066,3.7144,3.5422,3.2803,2.9506,0.0,0.0,0.0,0.0,0.0,0.0,0.0,0.0,0.0,0.0,0.0,0.0,0.0,0.0,0.0,0.0,0.0,0.0,0.0,3.8431,4.5311,5.1054,5.2421,5.3663,5.4459,5.4437,5.5514,5.6441,5.6935,5.8039,5.9057,5.9741,6.0126,6.0974,6.2512,6.2435,6.3058,6.4577,6.4986,6.5414,6.5895,6.5755,6.6656,6.8472,6.8514,0.0,6.9868,7.0687,7.1076,7.1076,7.1076,7.1154,7.131,7.1115,7.118,7.1135,6.8325,6.7252,6.7185,6.6701,6.6616,6.6687,1.1462,1.0678,1.0053,1.0073,1.081,1.1697,1.2587,1.4506,1.7593,2.2477,2.4981,2.8145,3.2871,3.424,3.4916,3.5206,3.4066,3.2895,3.2022,3.6467,3.9894,4.1576,4.4881,4.6984,4.7645,4.8857,4.9991,5.1024,5.2203,5.3434,5.4663,5.5388,5.5831,5.6029,5.5909,5.5369,5.4455,5.315,5.1835,5.054,4.9296,4.7773,4.6054,4.4762,4.4507,4.4744,4.3915,4.388,4.3966,4.2245,4.1073,3.9905,3.7303,3.5042,3.27,0.0,0.0,0.0,0.0,0.0,0.0,0.0,0.0,0.0,0.0,0.0,0.0,0.0,0.0,3.2337,3.3657,0.0,4.2082,4.3378,4.8663,5.32,5.4918,5.6288,5.6935,5.6558,5.7271,5.795,5.8371,5.9147,5.9845,6.0261,6.072,6.1661,6.3241,6.3747,6.4798,6.651,6.6878,6.7299,6.7866,6.82,6.8822,6.974,7.0175,7.0674,7.1193,7.1622,7.1817,7.1817,7.1817,7.1817,7.1783,7.1848,7.1885,7.1764,7.0458,6.9943,6.9908,6.9501,6.9321,6.9306,1.268,1.1489,1.0507,1.0549,1.129,1.2101,1.2795,1.4332,1.683,2.0761,2.2663,2.5182,2.9169,3.0414,3.1002,3.1073,3.2214,3.263,3.1949,3.6485,4.0542,4.3585,4.5456,4.6991,4.8279,4.9447,5.0511,5.1421,5.236,5.3599,5.507,5.5171,5.5436,5.5848,5.5935,5.5123,5.3658,5.3632,5.2338,5.0193,4.9345,4.8608,4.7801,4.605,4.5156,4.4631,4.3288,4.2708,4.2727,4.3583,4.3282,4.24,4.117,4.0298,3.8526,3.2519,3.2223,0.0,0.0,0.0,0.0,0.0,0.0,0.0,0.0,3.1566,3.299,3.597,3.7134,3.8114,3.9689,4.2522,4.5501,4.8283,5.1464,5.4596,5.7524,5.8554,5.8899,5.8582,5.9019,5.9336,5.9332,5.9942,6.0438,6.0785,6.1582,6.2819,6.4545,6.5439,6.6645,6.8207,6.8402,6.8744,6.932,7.0265,7.0694,7.0533,7.1329,7.1772,7.1833,7.1833,7.1799,7.1809,7.1809,7.1809,7.1814,7.1881,7.192,7.1917,7.188,7.1889,7.1897,7.1922,7.188,7.1858,1.2676,1.2326,1.2151,1.2239,1.2944,1.3561,1.3679,1.5106,1.7393,2.0833,2.221,2.4372,2.8472,2.9688,2.9901,2.9031,3.4424,3.6513,3.3227,3.9972,4.4092,4.4042,4.5844,4.6763,4.6591,4.8836,4.9918,4.9678,5.1217,5.2355,5.3115,5.3282,5.3569,5.3847,5.4082,5.3643,5.2759,5.2733,5.2133,5.1066,5.0228,4.9792,4.9531,4.7832,4.6251,4.4842,4.4695,4.2224,3.9633,4.3487,4.2205,3.9675,4.3221,4.2256,3.9184,3.6092,3.329,3.0364,2.6326,2.8049,3.0903,3.0575,3.3331,3.6118,0.0,3.6992,3.7934,3.9095,3.9433,3.9809,4.0778,4.493,4.8356,4.871,5.3483,5.7541,5.8697,5.8921,5.9566,6.1092,6.0677,6.0249,6.0233,6.0347,6.0999,6.25,6.3375,6.4914,6.7392,6.8372,6.9268,7.0242,7.0982,7.106,7.0436,7.1068,7.1457,7.1605,7.1557,7.1671,7.1885,7.1885,7.1905,7.1901,7.1901,7.1901,7.1897,7.1905,7.1937,7.1978,7.1869,7.1796,7.1817,7.195,7.1908,7.1796,1.3992,1.3887,1.3865,1.3838,1.3796,1.375,1.375,1.4718,1.6176,1.8079,1.8673,2.0116,2.334,2.486,2.5665,2.5786,3.097,3.3779,3.2816,3.8007,4.1743,4.3114,4.3391,4.4382,4.6248,4.8213,4.9401,4.9698,5.0903,5.2005,5.2962,5.2673,5.2939,5.3748,5.3869,5.3436,5.2589,5.2073,5.1339,5.0466,4.964,4.8981,4.8429,4.7187,4.5654,4.4034,4.305,4.1203,0.0,4.1326,4.0741,3.9923,4.3728,4.2568,3.9307,3.6676,3.4883,3.3873,3.4361,3.3746,3.3585,3.6128,3.7693,3.8903,3.9949,4.0469,4.1544,4.4431,4.5416,4.6173,4.7553,4.9979,5.2263,5.3736,5.6494,5.8776,5.9612,6.0204,6.0815,6.1601,6.1385,6.1164,6.1158,6.1569,6.2138,6.2867,6.4588,6.6322,6.7915,6.9323,7.0152,7.0349,7.0772,7.0525,6.9546,6.9865,7.0083,7.0187,7.0074,7.0415,7.1078,7.1078,7.139,7.1909,7.1909,7.1644,7.1186,7.1217,7.0958,7.0545,7.0429,7.039,7.054,7.1559,7.1869,7.1817,1.4887,1.4863,1.4837,1.4776,1.4311,1.3978,1.4011,1.4514,1.5182,1.6096,1.6215,1.7168,1.9713,2.1081,2.2194,2.3332,2.7645,3.0818,3.1985,3.5845,3.9222,4.1695,4.1389,4.2462,4.5223,4.6872,4.8112,4.8947,4.986,5.0933,5.2091,5.1649,5.1914,5.2832,5.2806,5.2342,5.1516,5.0865,5.0254,4.9609,4.8776,4.8074,4.7447,4.6797,4.4874,4.2387,4.1142,3.9533,3.8095,3.8561,3.8098,3.7905,4.1365,4.0741,3.8171,3.5317,3.3985,3.4182,3.76,3.6981,3.6288,4.0351,4.1796,4.2616,4.4127,4.4601,4.5674,4.8823,5.0144,5.109,5.2367,5.3504,5.5013,5.7337,5.8421,5.9396,6.0489,6.1196,6.1601,6.1673,6.1694,6.1791,6.2025,6.2587,6.2999,6.3233,6.5606,6.732,6.787,6.9601,7.0337,6.9833,6.9942,6.9655,6.8873,6.8881,6.8954,6.9003,6.894,6.9466,7.0484,7.0524,7.0795,7.1217,7.1223,7.0883,7.0344,7.0341,6.9996,6.9492,6.9414,6.9374,6.9565,7.0985,7.1468,7.1452,1.4844,1.4808,1.4776,1.4695,1.4674,1.4678,1.4757,1.4771,1.5155,1.6092,1.6215,1.7168,1.9713,2.0083,2.0769,2.2298,2.6246,2.9381,3.1024,3.5045,3.8142,4.0013,4.0848,4.1727,4.2671,4.4285,4.5589,4.6515,4.739,4.8414,4.9598,4.9705,4.9897,5.0117,5.0139,4.9687,4.8915,4.887,4.8862,4.8755,4.7891,4.7531,4.75,4.7485,4.4335,3.9892,3.9773,3.7043,3.3748,3.5463,3.3838,3.1673,3.5157,3.6153,3.5349,3.1937,2.9164,2.7918,3.1431,3.4687,3.7965,4.1461,4.5465,4.8747,4.9645,5.0464,5.1069,5.1208,5.1915,5.2551,5.2574,5.4018,5.5723,5.7438,5.8428,5.9607,6.1315,6.1562,6.1626,6.1683,6.1707,6.2011,6.287,6.2932,6.3233,6.4092,6.6503,6.7909,6.7728,6.9434,6.995,6.8885,6.8962,6.9042,6.8995,6.8811,6.8811,6.9003,6.8795,6.9328,7.0497,7.0614,7.0232,6.948,6.953,6.9531,6.9453,6.9446,6.9449,6.9492,6.9334,6.9283,6.9405,7.0247,7.0518,7.057,1.477,1.4731,1.4716,1.4712,1.4706,1.4717,1.4721,1.4731,1.4858,1.5164,1.5651,0.0,0.0,0.0,0.0,0.0,2.3889,2.6672,2.835,3.24,3.5516,3.7334,3.8795,4.0273,4.1777,4.2889,4.3879,4.4723,4.5189,4.5937,4.6924,4.6607,4.6833,4.7499,4.7461,4.7331,4.7028,4.646,4.6226,4.617,4.5874,4.5763,4.5546,4.3242,4.1317,3.9187,0.0,3.1985,3.0956,3.2057,3.1701,3.1317,3.4778,3.4308,3.1896,2.9037,2.9611,3.1919,3.5388,3.8827,4.2265,4.5769,4.7731,4.902,4.9867,5.023,5.0597,5.1164,5.0127,4.9305,4.9957,5.1417,5.2942,5.413,5.7421,6.008,6.0659,6.1248,6.1614,6.1618,6.1657,6.2053,6.2923,6.3446,6.4134,6.5006,6.6834,6.7903,6.7825,6.8889,6.8971,6.7881,6.8014,6.7724,6.7008,6.7036,6.7077,6.7154,6.7782,6.8304,6.8739,6.9558,6.9726,6.9412,6.9414,6.9101,6.8594,6.8593,6.828,6.7773,6.7734,6.8045,6.8586,6.8781,6.9181,6.988,1.471,1.4706,1.4706,1.4706,1.4706,0.0,0.0,0.0,0.0,0.0,0.0,0.0,0.0,0.0,0.0,0.0,0.0,2.3772,2.6088,2.9336,3.1967,3.3809,3.521,3.6653,3.8185,3.8756,3.9662,4.0826,4.197,4.3023,4.3931,4.456,4.5152,4.5741,4.5739,4.5561,4.5287,4.4699,4.4262,4.3905,4.3312,4.2718,4.1875,3.9375,3.7297,0.0,3.1278,2.8914,2.7812,2.8576,2.889,2.9303,3.1509,3.0894,2.9267,2.8829,3.0891,3.4343,3.9051,4.1946,4.4525,4.832,4.9257,4.9442,5.028,5.0441,5.0569,5.1161,4.9426,4.7994,4.8632,4.9106,4.9811,5.103,5.4045,5.6815,5.867,5.9406,6.0234,6.1446,6.1654,6.2131,6.329,6.3588,6.417,6.5386,6.6958,6.769,6.7281,6.8062,6.8014,6.6907,6.7009,6.6767,6.608,6.6144,6.6185,6.6224,6.7245,6.7648,6.7418,6.8486,6.8787,6.8515,6.8515,6.8203,6.7734,6.7734,6.7578,6.7344,6.7344,6.789,6.8632,6.8841,6.9288,6.9868,1.4748,1.4706,1.4706,0.0,0.0,0.0,0.0,0.0,0.0,0.0,0.0,0.0,0.0,0.0,0.0,0.0,0.0,0.0,2.4225,2.6014,2.7795,2.962,3.0485,3.1415,3.242,3.2458,3.3347,3.5155,3.7816,3.958,4.0578,4.3114,4.4314,4.4295,4.4295,4.3887,4.318,4.3153,4.2666,4.1688,4.0107,3.8473,3.6899,3.5968,3.2557,2.8463,2.981,2.7755,2.4509,2.5248,2.571,2.6,2.6118,2.6741,2.806,3.132,3.3049,3.5342,4.1935,4.3874,4.5066,4.9248,5.0252,5.0425,5.1238,5.1328,5.1206,5.105,4.962,4.8388,0.0,4.7083,4.6733,4.8407,4.8997,5.0973,5.5937,5.6662,5.7913,6.1212,6.1585,6.2239,6.3882,6.3284,6.3491,6.5182,6.6756,6.7176,6.6099,6.699,6.7068,6.6024,6.6134,6.6185,6.6185,6.6185,6.6185,6.6224,6.7174,6.7249,6.6629,6.7504,6.756,6.6875,6.6875,6.6914,6.6953,6.6953,6.7461,6.8242,6.8242,6.875,6.9531,7.0288,7.0534,7.0515,0.0,0.0,0.0,0.0,0.0,0.0,0.0,0.0,0.0,0.0,0.0,0.0,0.0,0.0,0.0,0.0,0.0,0.0,2.0811,2.3662,2.5793,2.6856,2.8995,3.0587,3.1521,3.1737,3.2359,3.3429,3.4322,3.49,3.5094,3.5931,3.6325,3.6249,3.6268,3.6159,3.5931,3.5961,3.58,3.5569,3.5149,3.4708,3.4018,3.1288,2.9452,2.7996,2.5831,2.475,2.4526,2.526,2.7266,2.978,3.1707,3.3332,3.4677,3.5609,3.8701,4.2409,4.4874,4.7861,5.0745,5.2503,5.289,5.2892,5.3121,5.2596,5.1375,4.8805,4.6406,4.3981,4.1505,4.3786,4.6228,4.6763,5.1662,5.6126,5.8163,5.9,5.9987,6.1473,6.1618,6.1992,6.3027,6.2878,6.3124,6.4144,6.5173,6.5661,6.5358,6.6108,6.6438,6.6144,6.6175,6.6185,6.6185,6.6185,6.6185,6.6185,6.6545,6.6648,6.6457,6.678,6.6876,6.6735,6.6735,6.718,6.7851,6.7851,6.8359,6.9101,6.9101,6.9609,7.031,6.9877,7.0104,7.0635,0.0,0.0,0.0,0.0,0.0,0.0,0.0,0.0,0.0,0.0,0.0,0.0,0.0,0.0,0.0,0.0,0.0,0.0,0.0,2.0646,2.2249,2.3108,2.4925,2.6321,2.7244,2.7456,2.7842,2.8375,2.9713,3.0362,3.0429,3.1684,3.2224,3.2226,3.2591,3.2563,3.224,3.2564,3.2272,0.0,0.0,3.0281,2.963,2.7064,2.582,2.5269,2.3697,2.4602,2.6951,2.8894,0.0,3.3195,3.4296,3.5813,3.7474,3.9015,4.1757,4.4868,4.7664,5.021,5.2337,5.3533,5.3524,5.284,5.1327,4.9943,4.8132,4.5126,4.184,3.9142,3.8015,4.0202,4.2588,0.0,0.0,5.3785,5.6952,5.7802,5.8998,0.0,6.1627,6.1917,6.2707,6.238,6.2407,6.3192,6.4037,6.4692,6.5037,6.5441,6.5837,6.6185,6.6185,6.6185,6.6185,6.6185,6.6195,6.6225,6.6338,6.64,6.6443,6.651,6.66,6.6688,6.7099,6.7592,6.8157,6.8554,6.9219,6.9961,6.9961,7.0507,7.121,7.0701,7.0853,7.1275,0.0,0.0,0.0,0.0,0.0,0.0,0.0,0.0,0.0,1.7745,1.7374,1.7114,0.0,0.0,0.0,0.0,0.0,0.0,0.0,0.0,1.8488,1.9237,1.995,2.0772,2.169,2.1866,2.2108,2.2513,2.4876,2.6152,2.6432,2.8715,2.9795,2.9804,3.0567,3.0468,2.9801,3.0509,2.9922,2.8405,2.702,2.5935,2.4935,0.0,2.25,2.1836,2.2766,2.5774,2.9882,3.3508,3.5463,3.6406,3.6125,3.7108,3.8941,4.2137,4.3632,4.5303,5.0002,5.1472,5.2001,5.3423,5.3291,5.1852,4.821,4.6097,4.4032,4.0854,3.7346,3.5104,3.6005,3.6871,3.8316,4.0842,0.0,4.8826,5.457,5.5585,5.7143,6.1063,6.1557,6.1878,6.2542,6.1812,6.1616,6.237,6.318,6.396,6.4774,6.4957,6.5373,6.6185,6.6185,6.6185,6.6185,6.6185,6.6244,6.6293,6.6293,6.6364,6.6464,6.6468,6.6491,6.661,6.7571,6.8027,6.8237,6.9173,7.0077,7.0859,7.0859,7.1328,7.1992,7.199,7.1986,7.2017,0.0,0.0,0.0,0.0,0.0,0.0,0.0,0.0,0.0,0.0,1.8785,1.7114,0.0,0.0,0.0,0.0,0.0,0.0,0.0,0.0,0.0,1.7523,1.7739,1.8254,1.9113,1.932,2.0146,2.1636,2.2197,2.2887,2.3688,2.4196,2.4452,2.4443,2.4535,2.4499,2.434,2.4445,2.4296,2.4022,2.3787,2.3189,2.2447,2.2222,0.0,0.0,2.2539,2.543,2.9139,3.3312,3.6707,3.9673,4.2354,4.3397,4.3973,4.6015,4.7196,4.8308,5.0591,5.2273,5.3423,5.3578,5.4077,5.3204,4.8338,4.6933,0.0,0.0,3.6565,3.5581,3.2361,3.5366,3.9146,4.1751,4.6276,5.104,5.5701,5.7536,5.8969,0.0,6.1134,6.1549,6.1618,6.1415,6.1368,6.1508,6.2271,6.3088,6.3892,6.4629,6.5373,6.6185,6.6185,6.6185,6.6185,6.6185,6.6195,6.6244,6.6244,6.6225,6.6264,6.6254,6.6325,6.6482,6.7352,6.822,6.9077,6.9991,7.0913,7.1703,7.1757,7.1874,7.199,7.199,7.1984,7.2008,0.0,0.0,0.0,0.0,0.0,0.0,0.0,2.1161,2.1569,2.194,2.0641,1.949,1.9082,1.8623,1.8023,0.0,0.0,0.0,0.0,0.0,0.0,0.0,0.0,0.0,0.0,1.7928,1.845,1.942,0.0,1.9787,2.0359,2.0393,2.0421,2.0468,2.087,2.0756,2.0379,2.077,2.0656,2.024,2.0331,2.0092,0.0,0.0,0.0,0.0,0.0,2.5,2.867,3.1209,3.5502,4.0452,4.3917,4.496,4.5335,4.7491,4.8374,4.9118,5.1304,5.2422,5.3124,5.3482,5.3564,5.1802,4.5353,0.0,0.0,0.0,3.1397,3.0712,2.9608,3.2578,0.0,3.8622,4.4167,4.9479,5.3352,5.6522,5.8935,6.0224,6.1045,6.1484,6.1473,6.096,6.0833,6.1322,6.1203,6.1888,6.363,6.4967,6.5848,6.6225,6.6264,6.6254,6.6185,6.6185,6.6205,6.6264,6.6264,6.6284,6.6312,6.6748,6.698,6.711,6.8419,6.9289,6.9805,7.0766,7.1452,7.1844,7.1897,7.195,7.1991,7.199,7.1985,7.2014,0.0,0.0,0.0,0.0,0.0,0.0,0.0,2.1755,2.2312,2.2505,2.2542,2.2224,2.1444,2.0426,1.9462,0.0,0.0,0.0,0.0,0.0,0.0,0.0,0.0,0.0,0.0,0.0,0.0,1.7317,1.7317,0.0,0.0,0.0,0.0,0.0,1.8657,1.8554,1.7967,1.8595,1.8437,0.0,0.0,1.8027,0.0,0.0,0.0,0.0,0.0,2.418,2.7422,2.9062,3.3163,3.8235,4.1901,4.3515,4.4512,4.6681,4.7384,4.8098,5.0879,5.1674,5.1832,5.235,5.2041,4.9613,4.1768,3.906,0.0,2.9362,2.7006,2.6537,2.7712,0.0,3.2143,0.0,4.0339,4.5849,4.9983,5.4101,5.7528,0.0,6.0754,0.0,6.1184,6.048,6.0329,6.1041,6.0871,6.1578,6.3592,6.5335,6.6303,6.6293,6.6293,6.6264,6.6185,6.6185,6.6332,6.6574,6.6371,6.6515,6.6967,6.7416,6.7707,6.7958,6.9511,7.0213,7.0269,7.1278,7.1707,7.1777,7.1792,7.19,7.1992,7.1991,7.1988,7.1982,0.0,0.0,0.0,0.0,0.0,0.0,0.0,2.2571,2.3359,2.4156,2.4276,2.4,2.3326,2.1712,2.0344,0.0,0.0,0.0,0.0,0.0,0.0,0.0,0.0,0.0,0.0,0.0,0.0,1.6403,1.6403,0.0,0.0,0.0,0.0,0.0,0.0,1.807,1.7991,1.8,0.0,0.0,0.0,0.0,0.0,0.0,0.0,0.0,0.0,2.2616,2.4178,0.0,0.0,3.125,3.5429,3.8903,4.1629,4.2517,0.0,0.0,4.7895,4.928,4.9676,4.8948,4.9327,4.7634,3.9275,0.0,3.6076,2.8629,2.7573,2.779,2.7203,2.7952,2.9476,3.2052,3.5644,4.0447,4.7002,5.0895,5.4567,5.8634,0.0,0.0,6.0226,6.0165,6.0104,6.0119,6.2116,6.3437,6.3708,6.5335,6.6284,6.6195,6.6195,6.6195,6.6185,6.6185,6.6641,6.7465,6.6602,6.7068,6.8634,6.7919,6.8036,6.8819,6.9798,7.0195,7.0281,7.124,7.1632,7.172,7.1828,7.1943,7.1992,7.1992,7.1991,7.1989,0.0,0.0,0.0,0.0,0.0,0.0,2.2054,2.3172,2.4157,2.4663,2.4676,2.4564,2.4351,2.322,2.1882,2.0552,0.0,0.0,0.0,0.0,0.0,0.0,0.0,0.0,0.0,0.0,1.5955,1.6881,1.6971,0.0,0.0,0.0,0.0,0.0,0.0,1.7654,1.7216,1.7157,0.0,0.0,0.0,0.0,0.0,0.0,0.0,0.0,0.0,0.0,2.265,2.437,0.0,0.0,2.9046,3.2012,0.0,0.0,4.2334,4.3529,4.7433,4.8663,4.8754,4.8582,4.7139,4.4221,3.8399,0.0,3.2697,2.6688,2.5677,2.5828,2.549,2.5725,2.6623,2.8694,3.2794,3.6897,4.0148,4.5734,5.0886,5.4648,5.6191,5.7804,0.0,5.9111,5.8684,5.9171,6.1608,6.3236,6.3714,6.5419,6.634,6.6322,6.6322,6.6535,6.7048,6.6476,6.668,6.7581,6.7213,6.7416,6.8161,6.883,6.9343,6.9711,7.0602,7.0971,7.0951,7.1374,7.1552,7.1569,7.1661,7.1799,7.1898,7.1903,7.1952,7.199,0.0,0.0,0.0,0.0,0.0,2.2039,2.2185,2.3528,2.4645,2.4874,2.4811,2.4782,2.4895,2.4058,2.2926,2.1525,1.9741,0.0,0.0,0.0,0.0,0.0,0.0,0.0,0.0,0.0,1.6612,1.7346,1.7425,1.7538,0.0,0.0,1.7915,1.7909,0.0,0.0,0.0,0.0,0.0,0.0,0.0,0.0,0.0,0.0,0.0,0.0,0.0,0.0,0.0,0.0,0.0,2.7299,2.4985,2.6789,3.0939,3.6892,3.9694,4.1696,4.5302,4.7295,4.8241,4.7951,4.5351,4.179,0.0,0.0,2.9907,2.5325,2.4207,2.4093,2.4367,2.4407,2.4954,2.6712,3.0694,3.4133,3.578,4.1703,4.7159,5.0541,0.0,5.4728,5.8165,5.828,5.848,5.937,6.1599,6.33,6.4128,6.561,6.6502,6.6773,6.7006,6.7414,6.7997,6.7339,6.7455,6.8384,6.8113,6.8268,6.8811,6.9769,7.034,7.066,7.1242,7.1494,7.1426,7.1232,7.115,7.1163,7.1223,7.1315,7.1465,7.1763,7.1943,7.1953,0.0,0.0,0.0,0.0,0.0,0.0,2.2185,2.3618,2.4761,2.4881,2.4902,2.4902,2.4902,2.4058,2.3194,2.2457,2.0681,0.0,0.0,0.0,0.0,0.0,0.0,0.0,0.0,0.0,1.718,1.7392,1.7461,1.7612,1.7804,1.7871,1.7896,1.7901,0.0,0.0,0.0,0.0,0.0,0.0,0.0,0.0,0.0,0.0,0.0,0.0,0.0,0.0,0.0,0.0,0.0,0.0,0.0,2.4347,2.5281,2.9489,3.4231,3.8522,4.0382,4.453,4.7946,4.6396,4.4045,4.1017,0.0,0.0,2.8565,2.5094,2.3706,2.3398,2.4258,2.4413,2.496,2.6719,2.9141,3.2031,3.5507,3.9662,4.3572,0.0,4.8726,5.1083,5.4448,5.7865,6.0261,6.1104,6.274,6.4113,6.5058,6.5911,6.6764,6.7578,6.844,6.8867,6.8906,6.8867,6.9323,7.0176,6.9293,6.9788,7.1417,7.0602,7.0708,7.1598,7.1598,7.1598,7.152,7.0675,7.0308,7.0307,7.0388,7.0464,7.0628,7.1558,7.1889,7.1893,0.0,0.0,0.0,0.0,0.0,0.0,0.0,2.3297,2.4219,2.5061,2.5097,2.508,2.5154,2.4293,2.3402,2.2615,2.1235,0.0,0.0,0.0,0.0,0.0,0.0,0.0,0.0,0.0,1.9092,1.9737,2.0497,2.0906,2.1029,2.1212,2.1061,2.0554,2.0575,1.9979,0.0,0.0,0.0,0.0,0.0,0.0,0.0,0.0,0.0,0.0,0.0,0.0,0.0,0.0,0.0,0.0,0.0,0.0,0.0,2.5654,2.9472,3.365,3.6548,3.8506,3.966,3.926,3.6713,3.3841,3.1993,2.8686,2.5372,2.3074,2.2382,2.2499,2.3358,2.3513,2.4254,2.6555,2.9096,3.097,3.1495,0.0,0.0,4.5293,5.1651,5.6257,5.725,5.8342,5.9598,6.102,6.2215,6.3538,6.5019,6.6514,6.7415,6.7578,6.7334,6.8041,6.9749,6.8597,6.8752,7.0215,6.9876,7.0031,7.0602,7.0989,7.1335,7.162,7.162,7.1594,7.1568,7.1292,7.1167,7.115,7.1186,7.123,7.1315,7.1694,7.1864,7.1893,0.0,0.0,0.0,0.0,0.0,0.0,0.0,2.2778,2.3595,2.4711,2.4758,2.4727,2.4743,2.4186,2.334,2.2199,2.1375,0.0,0.0,0.0,0.0,0.0,0.0,0.0,1.9435,1.9853,2.0484,2.1317,2.2054,2.2439,2.2539,2.2791,2.2669,2.2222,2.1926,2.1221,0.0,0.0,0.0,0.0,0.0,0.0,1.8747,0.0,0.0,0.0,0.0,0.0,0.0,0.0,0.0,0.0,0.0,0.0,0.0,0.0,2.5643,2.8712,3.2714,3.5259,3.6611,3.6136,3.3365,3.0544,2.9789,2.64,2.3162,2.2067,2.1562,2.1673,2.288,2.3387,2.4401,2.6971,2.959,3.1421,3.1857,0.0,0.0,4.6257,5.2862,5.731,5.7598,5.8815,6.0149,6.1521,6.2456,6.3568,6.5019,6.6066,6.6919,6.7578,6.7484,6.8161,6.9765,6.9022,6.9013,6.9738,7.006,7.0011,6.9711,7.0338,7.0809,7.1107,7.1107,7.1292,0.0,7.1262,7.1072,7.1066,7.109,7.1101,7.1163,7.1616,7.1803,7.1849,0.0,0.0,0.0,0.0,0.0,0.0,0.0,2.2052,2.2885,2.3885,2.4014,2.3933,2.3744,2.3657,2.2996,2.1453,0.0,0.0,0.0,0.0,0.0,0.0,0.0,0.0,2.1077,2.1029,2.1436,2.2269,2.2464,2.2652,2.2799,2.2962,2.3072,2.3068,2.2304,2.1916,0.0,0.0,0.0,0.0,1.6992,1.7185,0.0,0.0,0.0,0.0,0.0,0.0,0.0,0.0,0.0,0.0,0.0,0.0,0.0,0.0,0.0,0.0,0.0,3.366,3.6975,3.5609,3.2826,3.0221,2.9322,2.5426,0.0,2.1836,2.1168,2.1116,2.278,2.3872,2.5281,2.7702,3.0349,3.2998,0.0,3.9887,0.0,0.0,5.2995,5.5337,5.6188,5.9258,6.1548,6.2413,6.3231,6.4122,6.5058,6.485,6.5575,6.7462,6.8355,6.8893,6.9095,6.9761,6.9735,6.8998,6.9813,6.9747,6.8897,6.8972,6.9425,7.021,7.0287,7.074,7.1442,7.0701,7.0374,7.0296,7.0374,7.0335,7.0391,7.1336,7.1698,7.1722,0.0,0.0,0.0,0.0,0.0,0.0,0.0,0.0,0.0,0.0,2.3124,2.3077,2.305,2.243,2.1888,0.0,0.0,0.0,0.0,0.0,0.0,0.0,0.0,0.0,2.1077,2.2257,2.2989,2.3205,2.3932,2.4391,2.4536,2.472,2.4482,2.3902,2.3776,2.3015,0.0,0.0,0.0,0.0,1.6326,1.6637,0.0,0.0,0.0,0.0,2.0613,2.0613,0.0,0.0,0.0,0.0,0.0,0.0,0.0,0.0,2.1953,2.244,2.4251,0.0,2.7757,2.8047,2.7518,2.6512,0.0,2.3709,2.2459,2.1171,2.1202,2.181,2.2894,2.4329,2.5726,2.7014,2.9915,3.2897,3.5467,0.0,0.0,5.4963,5.6838,5.8092,5.8913,6.0276,6.1503,6.2448,6.3288,6.4175,6.5148,6.4977,6.5441,6.6702,6.6146,6.6806,6.8924,6.8449,6.8488,6.8944,6.9062,6.9062,6.8887,6.8907,6.9061,6.9326,7.0016,7.043,7.0626,7.1084,7.0882,7.0377,7.1037,7.0882,7.0393,7.1342,7.1698,7.1722,0.0,0.0,0.0,0.0,0.0,0.0,0.0,0.0,0.0,0.0,0.0,2.225,2.225,2.1826,0.0,0.0,0.0,0.0,0.0,0.0,0.0,0.0,0.0,2.1499,2.2319,2.3158,2.3973,2.4728,2.5321,2.5621,2.5706,2.589,2.5541,2.4785,2.4064,2.3064,0.0,0.0,0.0,1.7887,1.6559,0.0,0.0,0.0,0.0,0.0,2.0613,2.0613,0.0,2.0613,2.0613,2.0572,0.0,0.0,0.0,0.0,2.1082,2.1319,2.2136,2.3078,2.3904,2.4382,2.4515,2.4252,2.3316,2.3086,2.2844,2.1948,2.2097,2.2782,2.3994,2.5273,2.6663,2.8285,3.1796,0.0,0.0,0.0,5.0467,5.5575,5.6574,5.7796,6.0228,6.0866,6.1366,6.1923,6.3111,6.3809,6.3804,6.4464,6.4899,6.4957,6.4889,6.5819,6.7795,6.7656,6.7647,6.776,6.8084,6.8094,6.776,6.7754,6.8023,6.8458,6.8881,6.9326,6.9772,7.0222,7.0136,6.9786,7.0679,7.0485,6.9872,7.1179,7.1177,7.0642,0.0,0.0,0.0,0.0,0.0,0.0,0.0,0.0,0.0,0.0,0.0,0.0,0.0,0.0,0.0,0.0,0.0,0.0,0.0,0.0,0.0,0.0,0.0,2.2304,2.3755,2.4017,2.4809,2.6215,2.6473,2.6606,2.663,2.66,2.6228,2.5457,2.3802,2.2717,0.0,0.0,1.82,1.812,1.726,0.0,0.0,0.0,0.0,0.0,0.0,0.0,0.0,2.0613,2.0612,2.0569,2.0386,0.0,0.0,0.0,0.0,0.0,2.1266,2.2598,2.3624,2.3373,2.3311,2.3319,2.3281,2.3315,2.3306,2.3306,2.3381,2.3947,2.5429,2.659,2.7968,2.9794,3.4413,0.0,4.5795,4.7654,5.0032,5.4538,5.5195,5.675,6.0547,6.1077,6.1199,6.1306,6.2715,6.3147,6.2258,6.3548,6.395,6.3155,6.4095,6.5161,6.6236,6.7035,6.7065,6.6398,6.7086,6.7047,6.6398,6.6394,6.6808,6.7573,6.7614,6.8097,6.8901,6.8985,6.8937,6.8907,6.9908,6.9753,6.9209,7.0826,7.051,6.9483,0.0,0.0,0.0,0.0,0.0,0.0,0.0,0.0,0.0,0.0,0.0,0.0,0.0,0.0,0.0,0.0,0.0,0.0,0.0,0.0,0.0,2.2564,2.3174,2.358,2.3799,2.5238,2.611,2.6378,2.7052,2.7502,2.7638,2.6944,2.6223,2.552,2.3772,2.296,2.2767,2.0191,1.9096,1.9013,1.8156,0.0,0.0,0.0,0.0,0.0,0.0,0.0,0.0,2.0613,2.0611,2.0488,1.9737,0.0,0.0,0.0,0.0,0.0,2.037,2.3425,2.6058,2.4559,2.4218,2.4218,2.4218,2.4212,2.4203,2.4203,2.4727,2.5513,2.6425,2.8413,2.9588,2.8496,3.5606,4.3363,4.9219,5.2647,5.5088,5.6551,5.739,5.8414,5.9925,6.072,6.1182,6.1306,6.2027,6.2403,6.2308,6.2142,6.2413,6.3178,6.3294,6.3935,6.5122,6.6105,6.6506,6.6398,6.6466,6.6475,6.6398,6.6358,6.6427,6.6635,6.7316,6.773,6.7967,6.8705,6.8605,6.8132,6.9686,6.9778,6.914,7.02,7.0434,7.0135,0.0,0.0,0.0,0.0,0.0,0.0,0.0,0.0,0.0,0.0,0.0,0.0,0.0,0.0,0.0,0.0,0.0,0.0,0.0,0.0,0.0,2.2872,2.4084,2.4709,2.4623,2.585,2.6738,2.7198,2.8009,2.8461,2.8511,2.7223,2.6218,2.5476,2.4263,2.3495,2.2961,2.0891,1.9717,1.9284,0.0,0.0,0.0,0.0,0.0,0.0,0.0,0.0,0.0,0.0,1.9202,1.912,1.8723,0.0,0.0,0.0,0.0,0.0,2.025,2.2291,2.4567,2.6131,2.8239,3.0077,3.0543,3.0645,3.0191,2.8764,2.8394,2.8378,2.8507,3.0395,3.333,3.7681,4.1511,4.5525,5.0107,5.1126,5.2252,5.4457,5.5544,5.7048,5.9407,6.0441,6.0838,6.041,6.099,6.1119,6.0538,6.1338,6.1966,6.2323,6.3457,6.4342,6.489,6.5937,6.6431,6.6398,6.6376,6.6367,6.6411,6.6367,6.6376,6.6411,6.6782,6.7002,6.7099,6.7446,6.7368,6.7168,6.8355,6.8338,6.7673,6.817,6.8982,6.9627,0.0,0.0,0.0,0.0,0.0,0.0,0.0,0.0,0.0,0.0,0.0,0.0,0.0,0.0,0.0,0.0,0.0,0.0,0.0,0.0,2.3001,2.3001,2.463,2.5424,2.5346,2.6386,2.7262,2.7895,2.8896,2.9204,2.878,2.7508,2.642,2.546,2.4657,2.385,2.2999,2.1512,2.0417,1.9597,0.0,0.0,0.0,0.0,0.0,0.0,0.0,0.0,0.0,0.0,0.0,0.0,0.0,0.0,0.0,1.8668,1.8955,1.9205,2.0229,2.1874,2.4218,2.7953,3.0614,3.2923,3.5415,3.5316,3.4462,3.3607,3.2915,3.2283,3.1718,3.3053,3.7019,4.5479,4.6599,4.7687,5.127,5.0435,5.0443,5.3226,5.4217,5.5918,5.9054,6.0102,6.038,5.9968,6.0399,6.0263,5.9421,6.0738,6.153,6.1597,6.348,6.4647,6.489,6.5963,6.6454,6.6414,6.642,6.6403,6.6411,6.6403,6.6411,6.6398,6.6411,6.6437,6.6485,6.6411,6.6411,6.6492,6.7304,6.7285,6.6782,6.6883,6.7698,6.8515,0.0,0.0,0.0,0.0,0.0,0.0,0.0,0.0,0.0,0.0,0.0,0.0,0.0,0.0,0.0,0.0,0.0,0.0,0.0,0.0,2.3001,2.3001,2.463,2.5486,2.5402,2.7022,2.7909,2.7895,2.9506,2.9506,2.7972,2.7913,2.7032,2.5449,2.4644,2.3866,2.3034,2.2173,2.1314,2.0457,1.9636,0.0,0.0,0.0,0.0,0.0,0.0,0.0,0.0,0.0,0.0,0.0,0.0,0.0,1.6949,1.7844,1.8096,1.8465,2.0073,2.4099,2.828,3.0156,2.7841,2.7036,3.4246,3.3457,3.2478,3.7084,3.7833,3.7389,3.657,3.707,3.9384,4.4757,4.758,5.051,5.4491,5.488,5.5084,5.5954,5.6106,5.6954,5.9025,5.94,5.9903,6.0819,6.065,6.0533,6.0476,6.0208,6.0525,6.1583,6.2733,6.383,6.488,6.5963,6.6508,6.6501,6.6422,6.6422,6.6501,6.6414,6.6398,6.6406,6.6398,6.6398,6.6406,6.6403,6.6428,6.6579,6.7393,6.7762,6.7874,6.7912,6.7499,6.6961,0.0,0.0,0.0,0.0,0.0,0.0,0.0,0.0,0.0,0.0,0.0,0.0,0.0,0.0,0.0,0.0,0.0,0.0,0.0,2.211,2.3043,2.3043,2.4719,2.5595,2.5546,2.7171,2.8039,2.7947,2.9646,2.9612,2.7966,2.8047,2.7165,2.5485,2.523,2.4373,2.3073,2.2768,2.1833,2.0467,1.9609,1.8945,0.0,0.0,0.0,0.0,0.0,0.0,0.0,0.0,1.6362,1.6324,1.5991,1.6258,1.6888,1.7749,1.8385,1.9176,2.0859,2.4724,2.8542,2.9656,2.9886,3.1924,3.9709,4.0004,3.9337,4.182,4.1336,4.0165,3.9309,4.1306,4.4164,4.7388,4.9981,5.2258,5.4193,5.4787,5.5061,5.517,5.6314,5.7363,5.8082,5.9213,5.9652,5.8985,5.921,5.9168,5.863,5.9593,6.0905,6.2542,6.3681,6.4793,6.5868,6.6283,6.6508,6.6508,6.6454,6.6439,6.6431,6.6439,6.6453,6.6411,6.6422,6.6431,6.6398,6.6389,6.6453,6.6516,6.6867,6.7082,6.719,6.7222,6.7065,6.6795,0.0,0.0,0.0,0.0,0.0,0.0,0.0,0.0,0.0,0.0,0.0,0.0,0.0,0.0,0.0,0.0,0.0,0.0,2.0583,2.2146,2.3081,2.3112,2.4756,2.5687,2.5619,2.703,2.7831,2.8039,2.9709,2.9678,2.802,2.8084,2.7218,2.5512,2.5601,2.4699,2.3118,2.3085,2.2109,2.0389,1.9251,1.8506,0.0,0.0,0.0,0.0,0.0,0.0,0.0,0.0,1.5391,1.5391,1.5416,1.5999,1.6864,1.7725,1.8788,1.9959,2.1362,2.4538,2.7775,2.9401,3.1467,3.5085,4.2701,4.3233,4.2896,4.564,4.4682,4.314,4.2462,4.4757,4.7197,4.8587,5.1107,5.3082,5.3707,5.4226,5.4527,5.45,5.6034,5.715,5.7377,5.8813,5.9417,5.8582,5.8904,5.8927,5.835,5.9798,6.1324,6.2755,6.3868,6.485,6.5693,6.5693,6.5848,6.6081,6.6081,6.6221,6.6422,6.6439,6.6453,6.6403,6.6461,6.6431,6.6406,6.6406,6.6454,6.6503,6.659,6.6688,6.6743,6.6797,6.6785,6.6802,0.0,0.0,0.0,0.0,0.0,0.0,0.0,0.0,0.0,0.0,0.0,0.0,0.0,0.0,0.0,0.0,0.0,0.0,2.0508,2.2104,2.3084,2.3113,2.4764,2.5702,2.5687,2.6547,2.7376,2.8084,2.9758,2.9719,2.8084,2.8143,2.7271,2.5603,2.5677,2.4719,2.3086,2.3086,2.2108,2.0339,1.8661,1.7997,1.7802,0.0,0.0,0.0,0.0,0.0,0.0,0.0,1.539,1.539,1.5389,1.6014,1.6874,1.7732,1.9134,2.0618,2.1483,2.356,2.6329,2.9835,3.1844,3.4806,4.1817,4.1284,4.1279,4.8005,4.7995,4.6666,4.6355,4.7182,4.7851,4.7624,5.0517,5.2959,5.3509,5.3655,5.3921,5.4463,5.5406,5.6317,5.7067,5.8129,5.9221,6.0203,6.0223,6.0223,6.0293,6.1039,6.16,6.1897,6.2937,6.3651,6.3983,6.3983,6.4411,6.518,6.518,6.5654,6.6508,6.6422,6.6398,6.6398,6.6398,6.6398,6.6398,6.6406,6.6429,6.653,6.6666,6.6737,6.6797,6.6782,6.6811,6.6811,0.0,0.0,0.0,0.0,0.0,0.0,0.0,0.0,0.0,0.0,0.0,0.0,0.0,0.0,0.0,0.0,0.0,0.0,2.0493,2.1549,2.2457,2.3084,2.4178,2.5078,2.5688,2.6547,2.7398,2.8236,2.8707,2.8342,2.7259,2.73,2.673,2.5599,2.5658,2.4726,2.3118,2.3108,2.1732,1.9497,1.8384,1.7557,1.6898,0.0,0.0,0.0,0.0,0.0,0.0,0.0,0.0,0.0,1.539,1.6405,1.7656,1.793,1.9607,2.155,2.2371,2.6676,3.0812,3.0573,3.4833,3.9754,4.2334,4.3379,4.5024,4.9278,4.972,4.8684,4.666,4.7945,4.8922,4.7732,4.986,5.1882,5.2537,5.3157,5.4034,5.5254,5.629,5.7219,5.8018,5.8997,5.9466,5.9209,5.9687,5.9732,5.9093,6.079,6.1734,6.1562,6.2948,6.3726,6.3735,6.3859,6.407,6.4372,6.4372,6.5095,6.6422,6.6406,6.6373,6.6311,6.6373,6.6364,6.6329,6.6429,6.6489,6.6561,6.6731,6.6795,6.6797,6.6782,6.6807,6.6802,0.0,0.0,0.0,0.0,0.0,0.0,0.0,0.0,0.0,0.0,2.0461,2.048,0.0,0.0,0.0,1.9961,2.0252,2.0303,2.0002,2.109,2.2006,2.2577,2.3425,2.4288,2.5155,2.5702,2.6366,2.7225,2.7904,2.7807,2.6954,2.6971,2.6512,2.5658,2.5663,2.4723,2.3098,2.3083,2.1586,1.9114,1.823,1.7365,1.6514,0.0,0.0,0.0,0.0,0.0,0.0,0.0,0.0,0.0,1.4764,1.5859,1.7106,1.7714,1.9644,2.1988,2.3835,2.8023,3.2221,3.3557,3.7562,4.1899,4.47,4.6416,4.8094,5.044,5.0566,4.9763,4.8097,4.8947,4.9629,4.8605,4.9955,5.1372,5.2085,5.293,5.4047,5.5593,5.6668,5.7597,5.8429,5.9344,5.9712,5.9203,5.9636,5.9625,5.9034,6.0713,6.1406,6.0874,6.2286,6.2858,6.2369,6.2616,6.2865,6.3138,6.3598,6.445,6.5703,6.5834,6.6036,6.634,6.6394,6.6385,6.6358,6.6464,6.654,6.6611,6.674,6.6797,6.6793,6.6826,6.6859,6.6857,0.0,0.0,0.0,0.0,0.0,0.0,0.0,0.0,0.0,2.0494,2.0422,2.0354,0.0,0.0,0.0,1.9057,1.9721,1.9873,1.9237,2.0633,2.1552,2.1781,2.2625,2.3482,2.4242,2.4283,2.4674,2.5492,2.7225,2.7645,2.6865,2.6865,2.6442,2.5703,2.5703,2.4717,2.307,2.307,2.1531,1.8999,1.822,1.7326,1.6398,1.5502,0.0,0.0,0.0,0.0,0.0,0.0,0.0,0.0,1.3815,1.4718,1.5726,1.7249,1.9664,2.2453,2.5477,2.8419,3.2011,3.7778,4.0032,4.2336,4.8019,4.9667,5.0304,5.1306,5.0748,5.0101,4.9986,4.9973,4.9959,4.9893,5.0506,5.129,5.2085,5.2899,5.4,5.563,5.6668,5.7597,5.8429,5.9344,5.9869,5.9755,5.9755,5.9723,5.966,6.0545,6.0746,6.0,6.1173,6.1396,6.0456,6.0768,6.1186,6.1733,6.2849,6.378,6.4513,6.4996,6.564,6.6385,6.6376,6.6385,6.6411,6.6464,6.6566,6.6619,6.6772,6.6797,6.6815,6.6868,6.6911,6.6871,0.0,0.0,0.0,0.0,0.0,0.0,0.0,0.0,2.0404,2.0409,2.0407,2.0133,1.9439,1.9361,0.0,1.8147,1.829,1.8615,1.9085,1.9517,2.0331,2.175,2.2634,2.3183,2.3398,2.3381,2.3818,2.4673,2.5696,2.6089,2.5893,2.5893,2.5806,2.5624,2.5624,2.4668,2.3018,2.3018,2.1145,1.814,1.7985,1.6977,1.5502,1.4685,1.4256,0.0,0.0,0.0,0.0,0.0,0.0,0.0,1.3849,1.4715,1.5729,1.7364,2.1512,2.5677,2.6289,3.1207,3.6665,3.8643,4.2173,4.5861,4.8542,4.919,4.9666,5.1247,5.0784,5.005,4.9933,4.9906,4.9906,4.9893,5.0506,5.129,5.2085,5.2837,5.3919,5.5614,5.6602,5.7498,5.8329,5.9282,5.9526,5.8778,5.8769,5.8736,5.8528,5.9061,5.9412,5.9595,6.025,6.0425,6.0103,6.034,6.0645,6.1032,6.1962,6.2934,6.3952,6.5403,6.6146,6.6376,6.634,6.6385,6.6462,6.654,6.6623,6.6703,6.6835,6.6866,6.6813,6.6863,6.6863,6.682,0.0,0.0,0.0,0.0,0.0,0.0,0.0,0.0,1.9314,1.9735,1.94,1.899,1.8529,1.849,0.0,0.0,1.7611,1.7851,1.7898,1.8683,1.9757,2.1083,2.1583,2.2057,2.2423,2.2445,2.2843,2.3738,2.4553,2.5194,2.5609,2.5609,2.5595,2.5601,2.5601,2.4644,2.3001,2.3001,2.1017,1.7907,1.7907,1.686,1.5267,1.4824,1.4429,1.3923,1.3061,0.0,0.0,0.0,0.0,0.0,0.0,0.0,1.4453,1.6053,1.9525,2.3642,2.7236,3.1388,3.569,3.9848,4.3999,4.7231,4.7794,4.8453,4.9246,5.0168,5.0226,5.0101,4.9999,4.9933,4.9952,5.0212,5.0794,5.1528,5.2381,5.3052,5.4081,5.5618,5.6212,5.6979,5.8257,5.8837,5.8912,5.8425,5.8421,5.837,5.8179,5.84,5.8778,5.9346,5.9772,5.9931,5.976,6.0007,6.0217,6.0367,6.1415,6.2755,6.4367,6.5712,6.6322,6.6349,6.634,6.6398,6.6503,6.658,6.6655,6.6692,6.6835,6.6863,6.6865,6.6906,6.6868,6.6869,0.0,0.0,0.0,0.0,0.0,0.0,0.0,0.0,0.0,1.8797,1.8258,1.7755,1.76,1.76,1.7255,0.0,0.0,0.0,1.6619,1.8052,1.9225,1.9949,2.0036,2.0352,2.1012,2.1209,2.1716,2.2571,2.3423,2.4365,2.5363,2.5519,2.5582,2.5589,2.5433,2.4479,2.3001,2.2843,2.09,1.7907,1.7907,1.6856,1.5297,1.5115,1.4633,1.3883,1.3011,1.2147,1.1294,1.0626,0.0,0.0,0.0,0.0,1.3073,1.4574,1.7225,2.1015,2.7485,3.0876,3.4222,4.1074,4.5173,4.7346,4.6745,4.7865,4.9017,4.9017,4.9617,5.0089,5.0114,4.9986,5.0062,5.0535,5.1178,5.1918,5.2709,5.3385,5.426,5.5433,5.5689,5.6438,5.7997,5.8165,5.8182,5.8148,5.8031,5.7945,5.7845,5.7935,5.8313,5.912,5.9488,5.963,5.9475,5.9727,5.9899,5.9962,6.1371,6.3087,6.5035,6.5887,6.6303,6.6322,6.6394,6.647,6.6528,6.6607,6.6678,6.6711,6.6834,6.6907,6.691,6.6911,6.6913,6.6914,0.0,0.0,0.0,0.0,0.0,0.0,0.0,0.0,0.0,0.0,1.7871,1.7523,1.6829,1.6755,1.6406,1.5557,1.5557,1.5906,1.6564,0.0,0.0,1.8234,1.8244,1.8287,1.8403,1.915,1.9968,2.0818,2.1636,2.2887,2.4493,2.5235,2.5582,2.5574,2.4794,2.3936,2.2962,2.2182,2.0354,1.7907,1.7907,1.6844,1.5229,1.4444,1.4069,1.3805,1.2991,1.214,1.1367,1.1294,1.078,0.0,0.0,0.0,1.3025,1.4694,1.9031,2.3674,2.5394,3.1847,3.8887,4.202,4.4814,4.6758,4.657,4.7837,4.9087,4.9087,4.9651,5.0139,5.0025,4.9986,5.0117,5.0551,5.1487,5.2354,5.2744,5.3723,5.4443,5.4576,5.53,5.6144,5.7015,5.7229,5.7209,5.709,5.6551,5.6404,5.6854,5.6964,5.7603,5.8986,5.9196,5.9272,5.9234,5.9609,5.9931,6.0175,6.2402,6.3979,6.5035,6.5847,6.6284,6.6376,6.6462,6.6517,6.6602,6.6709,6.6782,6.6788,6.6874,6.6908,6.6905,6.691,6.6911,6.6912,0.0,0.0,0.0,0.0,0.0,0.0,0.0,0.0,0.0,0.0,0.0,1.6251,1.5903,1.5865,1.5712,1.5325,1.5286,1.5673,1.6522,1.6963,1.7401,1.7871,1.7888,1.7894,1.789,1.8291,1.8915,1.976,2.0562,2.1604,2.2848,2.3715,2.4352,2.486,2.4448,2.3508,2.2228,2.1813,2.044,1.8532,1.8532,1.9136,1.978,1.709,1.7469,1.8965,1.5325,1.3804,1.3341,1.2385,1.1522,1.0895,1.1241,0.0,0.0,0.0,1.624,2.0305,2.6307,3.3356,3.9774,4.2795,4.4747,4.5964,4.5906,4.6842,4.769,4.7657,4.8273,4.9105,4.9974,5.0038,5.0144,5.056,5.098,5.1458,5.2085,5.2568,5.2894,5.3134,5.3451,5.4,5.4794,5.535,5.563,5.5546,5.5727,5.6073,5.6668,5.6796,5.751,5.8967,5.9139,5.9328,5.9523,5.9609,5.9915,6.0444,6.2133,6.3139,6.3594,6.4954,6.5885,6.6454,6.6507,6.6563,6.6736,6.6781,6.6834,6.6874,6.6832,6.6869,6.6909,6.6912,6.6913,6.6874,0.0,0.0,0.0,0.0,0.0,0.0,0.0,0.0,0.0,0.0,0.0,1.5286,1.5286,0.0,0.0,0.0,1.5286,1.5589,1.6193,1.6231,1.6502,1.7159,1.718,1.719,1.7183,1.7394,1.7825,1.8473,1.954,2.0505,2.1362,2.2179,2.2942,2.3624,2.3553,2.2843,2.1675,2.1368,2.0375,1.9081,2.0131,2.1852,2.3471,2.0361,2.1226,2.3328,1.7698,1.5666,1.5453,1.3787,1.2653,1.1861,1.144,1.1489,0.0,0.0,0.0,1.7585,2.6135,0.0,3.6974,4.1074,4.3244,4.4498,4.495,4.6184,4.7089,4.6587,4.7379,4.8426,4.9399,4.9632,4.9868,5.0305,5.0498,5.0847,5.1595,5.1724,5.1823,5.2121,5.2037,5.2328,5.3193,5.3844,5.4312,5.4468,5.5141,5.5885,5.6649,5.6833,5.7529,5.8927,5.91,5.9345,5.9739,5.9788,6.0089,6.0716,6.1758,6.2336,6.2433,6.4011,6.5258,6.6225,6.6451,6.665,6.6787,6.6834,6.6835,6.6902,6.6823,6.6828,6.6911,6.6913,6.6874,6.6832,0.0,0.0,0.0,0.0,0.0,0.0,0.0,0.0,0.0,0.0,0.0,1.5286,1.5286,1.5286,1.5286,1.5286,1.5286,1.5301,1.5278,1.522,1.5186,1.5225,1.5238,0.0,1.5245,1.6042,1.6519,1.6557,1.8248,1.9505,2.0403,2.1269,2.1705,2.1747,2.1747,2.1705,2.155,2.0725,1.9827,1.9344,2.3227,2.4404,2.3776,2.3347,2.3867,2.4176,1.9039,1.7269,1.7144,1.5495,1.445,1.3497,1.1809,1.1853,1.2547,0.0,0.0,0.0,2.2754,2.592,0.0,3.5236,3.9128,4.196,0.0,4.6658,4.8498,4.6844,4.7837,4.8781,4.7987,4.845,4.9086,4.9401,5.0415,5.1299,5.1645,5.2037,5.2175,5.2021,5.2005,5.2312,5.3128,5.337,5.3773,5.4446,5.4726,5.5379,5.6612,5.6778,5.7454,5.8882,5.8982,5.9215,5.9601,6.0231,6.0704,6.0992,6.1801,6.2256,6.2424,6.3283,6.4278,6.5392,6.6294,6.6727,6.6788,6.6873,6.6904,6.6902,6.6817,6.6823,6.6911,6.6911,6.6824,6.6722,0.0,0.0,0.0,0.0,0.0,0.0,0.0,0.0,0.0,0.0,0.0,0.0,0.0,1.5171,1.5171,1.5171,1.5171,1.5162,1.5133,1.511,1.5096,1.5096,1.5106,1.511,1.5103,1.5408,1.5843,1.6415,1.6976,1.7715,1.8551,1.8831,1.8985,1.9123,2.0777,2.1213,2.067,2.031,1.9978,2.0075,2.4167,2.7238,2.9156,2.6881,2.9179,3.2741,2.5499,0.0,2.2127,2.0954,1.7937,1.4561,1.3949,1.3223,1.2688,1.3223,1.4947,1.7562,2.1708,2.3836,0.0,3.2255,3.6359,3.9395,4.115,4.421,4.6661,4.6511,4.6577,4.6729,4.6888,4.8029,4.8935,4.9072,4.9803,5.0378,5.0478,5.0604,5.0633,5.053,5.047,5.059,5.0861,5.1948,5.2491,5.2134,5.3223,5.4463,5.5806,5.5937,5.6985,5.914,5.9253,5.9502,6.0053,6.0533,6.0816,6.0827,6.1158,6.1351,6.1457,6.2403,6.3454,6.4587,6.5496,6.6232,6.6874,6.6873,6.6909,6.6909,6.6872,6.6872,6.6912,6.6914,6.683,6.6673,0.0,0.0,0.0,0.0,0.0,0.0,0.0,0.0,1.5506,1.5506,0.0,0.0,0.0,0.0,1.5391,1.5131,1.5071,1.5018,1.5018,1.4768,1.4601,1.4601,1.4349,1.42,1.4193,1.4183,1.4613,1.5445,1.5739,1.628,1.7152,1.7399,1.7555,1.7665,1.9437,2.0029,1.9752,1.9738,2.0021,2.1,2.6129,2.9864,3.2135,3.0038,3.251,3.6103,2.8584,2.6325,2.6803,2.6299,2.373,2.0418,1.8251,1.5476,1.31,1.3611,1.4714,1.6375,1.9409,2.0946,2.2892,2.8039,3.1908,3.5296,3.8547,4.1762,4.4401,4.5823,4.591,4.5785,4.5998,4.7392,4.8538,4.8452,4.9251,4.9866,4.9848,4.9848,4.9821,4.9736,4.9692,4.9648,4.9589,5.0907,5.1654,5.1277,5.234,5.3709,5.5408,5.5645,5.6894,5.9465,5.966,5.9836,6.0179,6.0559,6.071,6.0585,6.0673,6.0742,6.0822,6.1524,6.2447,6.3609,6.445,6.5624,6.6914,6.6913,6.6913,6.6913,6.6874,6.6874,6.6874,6.6834,6.6776,6.6635,0.0,0.0,0.0,0.0,0.0,0.0,0.0,0.0,1.6318,1.6318,0.0,0.0,0.0,0.0,0.0,1.52,1.4981,1.4896,1.4896,1.4095,1.3593,1.3593,1.2812,1.2407,1.2407,1.2407,1.2775,1.3593,1.4497,1.5371,1.6197,1.7085,1.7504,1.7546,1.7546,1.8005,1.888,1.888,1.9873,2.2031,2.9276,3.2136,3.219,3.2824,3.3598,3.3635,2.8108,2.81,3.0852,3.1158,3.1497,3.0696,2.432,1.8422,1.3857,1.38,1.4258,1.4973,0.0,0.0,0.0,2.2353,2.568,0.0,3.5992,0.0,4.1829,4.4597,4.5816,4.6139,4.5338,4.6614,4.7716,4.7638,4.8884,4.9893,4.9893,4.9893,4.9852,4.9807,4.9792,4.975,4.9604,5.038,5.1254,5.2047,5.2137,5.3186,5.5522,5.5987,5.7301,5.9712,6.0112,6.0194,5.9915,6.0251,6.0403,6.039,6.048,6.052,6.0608,6.0685,6.1386,6.256,6.3378,6.4943,6.6873,6.6875,6.6875,6.6875,6.6835,6.6836,6.6874,6.6766,6.6658,6.6574,0.0,0.0,0.0,0.0,0.0,1.5814,1.5814,1.6522,1.7002,0.0,0.0,0.0,1.7346,1.6635,1.6078,1.5852,1.5221,1.4826,1.4826,1.4057,1.3593,1.3593,1.2812,1.2407,1.2407,1.2407,1.2775,1.3593,1.3852,1.4468,1.5321,1.5615,1.5735,1.5784,1.5784,1.6586,1.8005,1.8612,1.9873,2.1993,2.8642,3.1732,3.2609,3.5546,3.8351,4.0224,3.6733,3.5389,3.5293,3.5315,3.1562,2.6102,2.124,1.7809,1.5493,1.5395,1.5112,1.4904,1.5019,0.0,0.0,0.0,0.0,0.0,3.001,0.0,3.6986,4.1497,4.2058,4.283,4.6396,4.6858,4.695,4.756,4.8528,4.9353,4.983,4.9349,4.9143,4.966,4.9721,4.9707,4.9663,5.0409,5.0734,5.035,5.1031,5.2224,5.3943,5.6677,5.8525,5.9197,6.0043,6.0466,6.0356,6.0439,6.0387,6.0275,6.037,6.0468,6.0608,6.1211,6.2215,6.3495,6.4301,6.5434,6.6768,6.6766,6.6763,6.6766,6.6776,6.6794,6.6753,6.6703,6.6627,6.6471,0.0,0.0,1.4866,1.4807,1.5498,1.6015,1.6025,1.7025,1.7785,0.0,0.0,0.0,1.783,1.7385,1.6972,1.6634,1.5841,1.5338,1.5261,1.4181,1.3527,1.3491,1.2385,1.1759,1.1759,1.1487,1.1727,1.2514,1.2557,1.3055,1.3933,1.3956,1.3978,1.4003,1.4331,1.5387,1.6974,1.7838,1.961,2.2401,2.9163,3.22,3.321,3.7791,4.0337,4.125,3.9737,3.929,3.9445,3.9874,3.4937,2.7979,2.4382,2.0462,1.7103,1.6375,1.579,1.5268,1.4898,1.5333,1.6095,1.6977,0.0,0.0,2.8671,3.1703,3.532,4.1954,4.2655,4.29,4.5649,4.6015,4.6205,4.7056,4.7594,4.826,4.934,4.9314,4.9389,4.9773,4.9835,4.9807,4.9707,5.0223,5.0605,5.0813,5.077,5.151,5.3133,5.6213,5.8127,5.8525,5.9748,6.037,6.0299,6.027,6.0212,6.0114,6.0212,6.0275,6.039,6.0884,6.1627,6.2632,6.3809,6.4828,6.5658,6.6408,6.6705,6.6736,6.6784,6.6781,6.6757,6.671,6.6631,6.645,0.0,0.0,1.4742,1.4698,1.5455,1.6046,1.603,1.749,1.8603,0.0,1.9526,1.9776,1.8982,1.8731,1.8356,1.762,1.6736,1.6153,1.5919,1.4492,1.3555,1.3303,1.1769,1.0928,1.092,1.0165,1.0204,1.1001,1.1128,1.158,1.2406,1.2453,1.2453,1.241,1.3212,1.4508,1.6066,1.6918,1.9532,2.362,3.0278,3.3079,3.3873,3.9602,4.0926,3.9696,3.9825,4.1156,4.3018,4.3721,3.9589,3.3579,3.0527,2.5129,1.9493,1.739,1.672,1.6441,1.535,1.547,1.5912,1.5895,1.7513,0.0,2.8914,3.1284,3.4148,4.2307,4.3585,4.3118,4.2884,4.366,4.4572,4.5256,4.5774,4.6784,4.8781,4.948,4.9873,4.9999,4.9936,4.987,4.9764,5.0049,5.0875,5.2281,5.1242,5.1216,5.2807,5.5071,5.6765,5.7723,5.9173,5.9977,6.0029,5.995,5.995,6.0029,6.0029,6.0022,6.0099,6.0243,6.0531,6.1036,6.2699,6.3705,6.4214,6.5878,6.6654,6.6801,6.6808,6.6763,6.6753,6.671,6.6623,6.6457,1.3634,1.4171,1.4659,1.4678,1.5961,1.6954,1.701,1.8445,1.9763,2.0427,2.1253,2.17,2.1339,2.0249,1.9445,1.9155,1.7885,1.6747,1.5956,1.5064,1.4171,1.334,1.183,1.0956,1.0883,1.0131,1.0154,1.1014,1.1038,1.1482,1.2306,1.2318,1.2342,1.2331,1.3171,1.4443,1.6093,1.7368,2.1421,2.7279,3.0756,3.2907,3.4746,4.1103,4.3748,4.4066,4.4098,4.4426,4.4473,4.2128,3.9526,3.632,3.1141,2.854,2.631,2.0683,1.9976,2.0233,1.6788,1.5946,1.6035,1.5923,1.6802,0.0,2.1181,2.2481,2.4576,0.0,3.1089,3.2493,3.6046,3.727,3.7837,3.8146,4.1218,4.5035,4.936,4.8869,4.8592,4.9911,4.9553,4.9413,4.9987,5.0841,5.1469,5.1599,5.2192,5.2441,5.2194,5.4452,5.6089,5.6843,5.8359,5.9437,6.0068,6.0053,6.0053,6.0068,6.0068,6.0084,6.0137,6.1048,6.1582,6.1841,6.3138,6.3876,6.4175,6.5216,6.6057,6.6717,6.6713,6.6699,6.6639,6.6698,6.6576,6.6376,1.3331,1.4056,1.4705,1.51,1.6177,1.7157,1.7646,1.9054,2.0255,2.0729,2.1511,2.2001,2.1893,2.1235,2.076,2.0692,1.9625,1.8542,1.7648,1.6855,1.5815,1.4459,1.3261,1.2245,1.1406,1.0636,1.0257,1.031,1.0345,1.0565,1.1004,1.1004,1.117,1.1541,1.2364,1.3866,1.587,1.7385,2.1883,2.8249,3.1667,3.4996,3.8518,4.3862,4.5908,4.602,4.6343,4.6264,4.5749,4.4102,4.1097,3.7579,3.4749,3.235,2.9583,0.0,2.3474,2.31,1.8703,1.6853,1.6116,1.6086,0.0,0.0,0.0,2.1704,2.3475,2.8593,2.9616,3.0338,3.2767,3.3793,3.4469,3.5005,3.9108,4.2657,4.3805,4.6605,4.8833,4.9646,4.9792,4.9925,5.0226,5.0873,5.1222,5.1212,5.2444,5.2656,5.1357,5.3958,5.5351,5.5222,5.763,5.9094,5.9467,5.9847,6.0053,6.0099,6.0007,6.0084,6.0275,6.0822,6.1223,6.1551,6.265,6.3223,6.3489,6.4393,6.5255,6.6074,6.6549,6.6698,6.6715,6.6746,6.6564,6.6337,1.2944,1.375,1.4596,1.5434,1.6298,1.7117,1.8009,1.946,2.0568,2.098,2.1753,2.2215,2.2162,2.2647,2.2978,2.3033,2.2831,2.2124,2.0686,1.975,1.8228,1.6045,1.4899,1.3708,1.2387,1.1313,1.0471,0.9822,0.9694,0.9647,0.9647,0.9835,1.018,1.0802,1.3053,1.4677,1.5943,0.0,0.0,2.9347,3.297,3.757,4.2716,4.6706,4.8025,4.7802,4.8255,4.7938,4.719,4.681,4.3252,3.8822,3.8051,3.5702,0.0,0.0,0.0,0.0,0.0,0.0,0.0,0.0,0.0,1.7606,0.0,0.0,0.0,0.0,0.0,0.0,0.0,0.0,0.0,3.1447,0.0,0.0,0.0,4.2056,0.0,4.7127,4.8908,4.9921,4.9288,5.0017,5.0811,5.1401,5.2292,5.2281,5.1124,5.3613,5.4765,5.4071,5.7039,5.8684,5.8829,5.9611,6.0045,6.0068,6.0007,6.0144,6.0376,6.0443,6.0666,6.1059,6.1879,6.2291,6.2543,6.3441,6.4345,6.5241,6.6099,6.6582,6.6793,6.6787,6.6572,6.6299,1.1916,1.271,1.3744,1.5336,1.6325,1.7179,1.8064,1.9531,2.1091,2.2464,2.3345,2.3736,2.3506,2.5664,2.7225,2.7435,2.9234,2.8886,2.5466,2.4222,2.1784,1.7806,1.5552,1.4283,1.4046,1.1854,1.0667,1.0594,0.986,0.953,0.953,1.0236,1.0635,1.102,1.8254,1.9692,0.0,0.0,2.9747,0.0,3.4722,3.8993,4.5078,4.8539,5.0691,5.1843,5.1193,5.0413,4.9467,4.7917,4.518,4.1739,3.7789,3.7472,3.7081,2.9223,0.0,0.0,0.0,0.0,0.0,0.0,1.8498,1.865,0.0,0.0,1.9379,1.9957,0.0,0.0,0.0,0.0,0.0,0.0,0.0,0.0,2.7938,3.3208,3.77,3.8887,4.4677,4.7603,4.515,4.7722,5.0536,5.2928,5.174,5.1393,5.2591,5.3654,5.4473,5.4936,5.6715,5.8045,5.8866,5.9627,5.9975,5.9991,6.0261,6.0335,6.0321,6.0707,6.0983,6.1083,6.1398,6.1558,6.1711,6.2504,6.3448,6.4431,6.5249,6.605,6.6791,6.6674,6.6501,6.6291,1.1724,1.2568,1.363,1.5258,1.623,1.7206,1.8512,2.0415,2.2086,2.3118,2.3902,2.4363,2.4239,2.5649,2.7221,2.8691,2.9629,2.9107,2.6685,2.6057,2.3613,1.8705,1.761,1.6232,1.4336,1.3328,1.2097,1.0694,1.0358,0.9951,0.9504,1.0322,1.0918,1.1636,1.8808,2.1343,2.0641,0.0,3.1269,3.5628,3.722,4.1277,4.6535,4.8046,4.951,5.0838,5.0948,5.0841,5.0528,4.9788,4.6774,4.3384,4.3595,4.1178,0.0,3.4453,0.0,0.0,0.0,0.0,0.0,0.0,2.158,2.2092,1.8698,1.7999,1.8041,1.799,0.0,0.0,0.0,0.0,0.0,0.0,2.419,0.0,0.0,0.0,0.0,0.0,0.0,0.0,4.4237,4.619,4.88,5.2269,5.0366,5.0148,5.2747,5.409,5.4638,5.4403,5.604,5.7297,5.8158,5.892,5.9612,6.0223,6.0307,6.0482,6.079,6.0935,6.1092,6.1267,6.1369,6.1428,6.1467,6.1857,6.2551,6.3455,6.4219,6.5409,6.6684,6.6619,6.6425,6.6185,1.1341,1.2112,1.322,1.5045,1.6037,1.7255,1.9326,2.1032,2.2468,2.3613,2.4242,2.4657,2.4786,2.6961,2.9134,3.0938,3.2636,3.2367,2.9475,2.8927,2.6641,2.199,2.0038,1.8491,1.7314,1.5327,1.3431,1.1704,1.1015,1.0503,1.0164,1.0757,1.1564,1.2771,1.9713,2.3121,2.4049,0.0,3.35,3.7779,3.9621,4.2951,4.6967,4.8513,4.9674,5.0562,5.1149,5.1307,5.1168,5.0667,4.7592,4.4351,4.6746,4.3467,3.8847,0.0,0.0,0.0,3.0214,2.8693,2.7016,2.3189,2.3596,2.387,1.9796,1.8545,1.8247,0.0,1.7632,0.0,0.0,0.0,0.0,0.0,0.0,2.297,0.0,0.0,0.0,0.0,0.0,0.0,0.0,4.3079,4.551,4.9844,4.8558,4.9241,5.303,5.4269,5.4688,5.4278,5.5486,5.6601,5.7558,5.8357,5.9314,6.0376,6.0365,6.0604,6.1057,6.1113,6.1213,6.1396,6.1383,6.1389,6.1421,6.1481,6.2038,6.2878,6.3385,6.463,6.6229,6.6387,6.6306,6.6098,1.0422,1.1048,1.2275,1.4621,1.5681,1.7321,2.0545,2.0976,2.181,2.4157,2.4476,2.4744,2.5305,3.1133,3.5153,3.5568,4.1391,4.2298,3.5735,3.4048,3.2017,2.9209,2.2528,2.077,2.4741,1.7902,1.4264,1.4191,1.1843,1.1088,1.1807,1.1849,1.2713,1.4583,2.2518,2.6077,2.6548,3.3698,3.8283,4.083,4.1762,4.3487,4.6113,5.1193,5.3056,5.2968,5.3004,5.2527,5.1589,4.9866,4.7313,4.4719,4.3931,4.316,4.2433,4.1838,4.1756,4.075,3.5813,3.2319,2.9227,2.5681,2.3625,2.2445,2.23,2.102,1.9929,0.0,0.0,0.0,0.0,0.0,0.0,0.0,0.0,0.0,0.0,0.0,0.0,0.0,0.0,0.0,0.0,3.7352,4.0337,0.0,4.6388,4.8886,5.381,5.4104,5.4448,5.5159,5.514,5.5907,5.7468,5.8303,5.9239,6.0307,6.0494,6.074,6.1011,6.126,6.1394,6.1396,6.1394,6.1433,6.1517,6.15,6.2053,6.289,6.2791,6.3735,6.525,6.5886,6.6118,6.6067,1.1672,1.1744,1.2182,1.322,1.4873,1.7104,2.0173,2.1417,2.305,2.5901,2.7187,2.8698,3.1063,3.3736,3.6591,3.9646,4.1848,4.1109,3.6432,3.5683,3.3283,2.8491,2.4183,2.2786,2.4705,1.9866,1.6622,1.509,1.3757,1.2676,1.1916,1.2423,1.325,1.4626,2.2093,2.6991,0.0,0.0,0.0,0.0,4.2796,4.4682,4.7928,4.97,4.995,4.9597,5.1886,5.2601,5.2382,5.177,4.9862,4.7936,4.903,4.6152,4.2721,4.4573,4.2824,4.0065,3.906,3.9136,3.7758,3.0704,3.0481,3.0452,2.4549,2.2357,2.1604,2.1598,0.0,0.0,0.0,0.0,0.0,0.0,0.0,0.0,0.0,0.0,0.0,0.0,0.0,0.0,0.0,0.0,0.0,0.0,4.6684,0.0,5.4005,5.4053,5.4409,5.5449,5.5364,5.618,5.7963,5.8745,5.9725,6.0843,6.0836,6.1018,6.1337,6.1388,6.1408,6.1466,6.1462,6.1461,6.1513,6.1562,6.1718,6.1932,6.2401,6.2839,6.3416,6.4745,6.555,6.5982,1.1893,1.1946,1.2247,1.3032,1.5043,1.7408,1.9957,2.1314,2.3384,2.7128,2.8712,3.0836,3.4326,3.6386,3.8643,4.1454,4.3221,4.2207,3.7521,3.8508,3.711,3.2268,2.9368,2.8639,3.0315,2.4554,2.0661,1.8955,1.6088,1.4153,1.3183,1.3147,1.3835,1.5393,2.0572,2.6358,3.2358,3.5395,4.0224,0.0,4.3551,4.4441,4.7102,4.7362,4.7666,4.8345,5.1452,5.24,5.2308,5.2599,5.1297,4.9877,5.1821,4.9141,4.5857,4.8428,4.6636,4.3792,4.3576,4.395,4.2755,3.5776,3.5522,3.5166,2.8206,2.5793,2.478,2.3867,0.0,0.0,0.0,0.0,0.0,0.0,0.0,0.0,0.0,0.0,0.0,0.0,0.0,0.0,0.0,0.0,0.0,0.0,0.0,0.0,0.0,5.318,5.4238,5.5588,5.5572,5.6401,5.8143,5.8995,5.9973,6.1048,6.1011,6.1142,6.1478,6.1408,6.1401,6.1453,6.15,6.1509,6.151,6.1555,6.1552,6.1481,6.1894,6.2322,6.2917,6.4237,6.5223,6.5872,1.1239,1.1692,1.2638,1.4112,1.611,1.8133,2.0003,2.0724,2.2912,2.799,2.9299,3.132,3.5422,3.9338,4.1649,4.1627,4.5983,4.5976,3.9519,4.2586,4.334,4.0319,3.7508,3.7562,4.0956,3.1369,2.5978,2.5262,1.8658,1.5447,1.5451,1.3902,1.4421,1.6784,1.8371,2.4355,3.332,3.4957,4.0302,4.7385,4.3973,4.3052,4.3863,4.4761,4.6693,4.922,5.171,5.2064,5.1466,5.2226,5.1534,5.0596,5.1988,5.1806,5.1417,5.3016,5.287,5.1639,4.9167,4.6876,4.4361,4.0779,3.8737,3.6659,3.3317,3.1337,2.9575,2.721,2.4707,0.0,0.0,0.0,0.0,0.0,0.0,0.0,0.0,0.0,0.0,0.0,0.0,0.0,0.0,0.0,0.0,0.0,0.0,0.0,0.0,5.1577,5.3735,5.5654,5.5817,5.6589,5.8105,5.9067,6.0022,6.102,6.102,6.1148,6.1381,6.1419,6.1412,6.1388,6.1489,6.1506,6.149,6.16,6.1575,6.1476,6.1285,6.2175,6.367,6.4405,6.5167,6.5807,1.2713,1.3567,1.4927,1.6398,1.7117,1.8369,2.0991,2.1982,2.4825,3.1523,3.2989,3.5625,4.1509,4.4014,4.5849,4.734,5.0069,4.9769,4.5181,4.6256,4.5791,4.2828,3.9373,3.8768,4.1379,3.2488,2.7272,2.6089,2.0047,1.6548,1.5488,1.4481,1.4958,1.6784,1.8371,2.2755,2.9109,3.127,3.6387,4.3162,4.3858,4.4339,4.4895,4.7003,4.8265,4.922,5.1633,5.2312,5.2087,5.2304,5.2236,5.2266,5.292,5.2772,5.2451,5.316,5.3208,5.2802,5.1601,5.1201,5.0011,4.5477,4.4005,4.2761,3.9423,3.7445,3.6518,3.7095,3.4311,3.1202,2.9456,2.6757,0.0,0.0,0.0,0.0,0.0,0.0,0.0,0.0,0.0,0.0,0.0,0.0,0.0,0.0,0.0,0.0,0.0,0.0,5.1417,5.5847,5.6575,5.7498,5.8665,6.0187,6.1094,6.1362,6.1342,6.1362,6.1453,6.1401,6.1394,6.1396,6.1456,6.1512,6.1495,6.1638,6.1513,6.1285,6.1337,6.2222,6.3681,6.5074,6.5692,6.5872,1.4122,1.5259,1.6707,1.8153,2.0117,2.1936,2.3209,2.34,2.5982,3.3189,3.4755,3.749,4.3579,4.6224,4.8183,4.9659,5.1387,5.0954,4.7597,4.9608,4.951,4.6327,4.522,4.4983,4.56,3.8581,3.3299,3.0012,2.4219,1.9741,1.6493,1.5343,1.5522,1.6798,1.8387,2.2231,2.784,3.348,3.8026,4.1715,4.4396,4.5945,0.0,4.8222,4.972,5.1199,5.2686,5.2885,5.2519,5.337,5.3299,5.3039,5.3973,5.3833,5.3414,5.3844,5.3924,5.3795,5.3352,5.3273,5.2575,4.9853,4.8821,4.755,4.3904,4.2109,4.1101,4.062,3.8115,3.5627,3.4466,3.0866,0.0,0.0,0.0,0.0,0.0,0.0,0.0,0.0,0.0,0.0,0.0,0.0,0.0,0.0,0.0,0.0,0.0,0.0,0.0,5.4382,5.5346,5.6777,5.8871,5.9126,5.9976,6.146,6.1376,6.1349,6.1356,6.1349,6.1356,6.135,6.1474,6.1525,6.1532,6.1679,6.1534,6.131,6.1684,6.2543,6.3685,6.4914,6.5601,6.5897,1.5856,1.6818,1.8166,1.9896,2.3809,2.669,2.6657,2.5949,2.7861,3.4678,3.6275,3.8706,4.392,4.7299,4.9407,5.0056,5.1331,5.1074,4.8563,5.2376,5.3315,5.0162,5.2047,5.2491,5.0986,4.5863,4.0406,3.4695,2.9085,2.3474,1.794,1.6501,1.6282,1.7226,1.8677,2.2626,0.0,3.7603,4.1521,4.2084,4.5606,4.7663,4.8742,4.9445,5.1433,5.3852,5.4385,5.3835,5.3103,5.4838,5.4554,5.364,5.4951,5.4854,5.4308,5.4657,5.4673,5.4522,5.4522,5.4058,5.3503,5.3391,5.2886,5.1474,4.7828,4.6351,4.496,4.2183,4.0166,3.9022,3.9194,3.4301,0.0,0.0,0.0,0.0,0.0,0.0,0.0,0.0,0.0,0.0,0.0,0.0,0.0,0.0,0.0,0.0,0.0,0.0,0.0,5.2738,5.3804,5.5633,5.8387,5.7336,5.8168,6.089,6.1158,6.126,6.1205,6.1274,6.1317,6.135,6.151,6.1601,6.1605,6.1677,6.158,6.1481,6.2159,6.2907,6.3719,6.4458,6.5234,6.5947,1.8737,1.8571,1.9366,2.2659,2.5513,2.8561,3.214,3.2786,3.4763,4.0146,4.1312,4.3186,4.7255,4.98,5.1001,5.0522,5.229,5.2741,5.113,5.3396,5.417,5.2786,5.3046,5.2747,5.1793,4.6156,4.0406,3.4695,2.9551,2.4216,1.8858,1.7923,1.8016,1.9051,1.9996,2.4524,3.1637,3.524,3.9058,4.3178,4.7906,4.9533,4.9512,5.3302,5.447,5.4349,5.5984,5.5794,5.4834,5.5412,5.5639,5.5572,5.5304,5.5358,5.5358,5.4748,5.4625,5.4657,5.4657,5.5007,5.5166,5.4451,5.4714,5.4752,5.3338,5.2385,5.1692,5.1215,4.9253,4.6807,4.4171,3.6652,3.0906,0.0,0.0,0.0,0.0,0.0,0.0,0.0,0.0,0.0,0.0,0.0,0.0,0.0,0.0,0.0,0.0,0.0,0.0,0.0,5.6229,5.6651,5.5868,5.823,5.9002,5.8219,6.0174,6.1197,6.1289,6.1303,6.1369,6.1471,6.1573,6.1601,6.1605,6.1677,6.1626,6.1526,6.2144,6.2954,6.3851,6.4571,6.541,6.6102,2.0042,2.0207,2.1396,2.5179,2.8705,3.2484,3.6738,3.9185,4.1002,4.2388,4.3098,4.4806,4.8132,5.0413,5.1694,5.1728,5.2467,5.2661,5.1992,5.3824,5.4532,5.3626,5.4067,5.3719,5.2432,4.922,4.3688,3.5799,3.3023,2.7742,2.029,1.95,1.9497,2.0314,2.3555,2.7951,3.3219,3.7673,4.1684,4.5535,5.0105,5.1748,5.1811,5.4919,5.571,5.5281,5.6388,5.6665,5.6552,5.7122,5.6857,5.6235,5.6145,5.565,5.5003,5.4602,5.4806,5.5183,5.5183,5.5751,5.6281,5.5867,5.6055,5.6131,5.5317,5.4522,5.3984,5.4063,5.2772,5.0426,4.6379,4.0279,3.6013,3.6411,0.0,0.0,0.0,0.0,0.0,0.0,0.0,0.0,0.0,0.0,0.0,0.0,0.0,0.0,0.0,0.0,0.0,0.0,0.0,0.0,5.7045,5.7295,5.807,5.9381,6.0493,6.1122,6.1244,6.125,6.1343,6.1495,6.1615,6.164,6.1647,6.1601,6.1579,6.1569,6.2295,6.3114,6.3992,6.4713,6.5528,6.6196,2.2355,2.2394,2.3768,2.8786,3.2311,3.599,4.051,4.4082,4.5771,4.4466,4.4836,4.6215,4.8714,5.057,5.1838,5.2418,5.2127,5.1936,5.1886,5.3563,5.4313,5.3798,5.4738,5.4588,5.3164,5.2302,4.7474,3.8378,3.693,3.1582,2.2669,2.1725,2.1979,2.3342,2.8106,3.2477,3.6655,4.1959,4.5918,4.8919,5.2338,5.3825,5.4166,5.5975,5.6439,5.6172,5.6668,5.7136,5.7603,5.8218,5.7507,5.6482,5.6642,5.5888,5.4914,5.4756,5.5286,5.5856,5.5856,5.6512,5.7112,5.6925,5.7037,5.6942,5.6148,5.5501,5.5018,5.472,5.408,5.2271,4.8082,4.4212,4.1453,4.0732,3.7662,0.0,0.0,0.0,0.0,0.0,0.0,0.0,0.0,0.0,0.0,0.0,0.0,0.0,0.0,0.0,0.0,0.0,0.0,5.3355,5.7154,5.6258,5.7297,6.0375,6.0842,6.1131,6.1267,6.1246,6.1384,6.1564,6.166,6.1686,6.166,6.1554,6.1601,6.1852,6.2645,6.3524,6.4379,6.5117,6.5791,6.6308,2.8148,2.5987,2.6312,3.5124,3.577,3.7017,4.2937,4.5879,4.7777,4.8677,4.8903,4.9403,5.0553,5.1019,5.1283,5.1351,5.1154,5.1009,5.0948,5.2131,5.3169,5.3947,5.453,5.4646,5.4246,5.3353,4.9841,4.3613,3.9661,3.4006,2.6893,2.531,2.679,3.0872,3.3136,3.8239,4.521,4.678,4.9799,5.3639,5.4689,5.5155,5.5451,5.7461,5.745,5.6575,5.7656,5.7579,5.6982,5.7039,5.6964,5.6701,5.5986,5.6174,5.6512,5.5723,5.6099,5.6774,5.6774,5.7375,5.7826,5.7075,5.745,5.7788,5.698,5.6899,5.6626,5.5169,5.4432,5.323,5.0681,4.7874,4.5552,4.4383,4.3092,0.0,0.0,0.0,0.0,0.0,0.0,0.0,0.0,0.0,0.0,0.0,0.0,0.0,0.0,0.0,0.0,5.1107,0.0,5.2303,5.1992,5.6344,5.8331,5.7931,6.0125,6.1279,6.1471,6.1476,6.1569,6.1674,6.1676,6.1663,6.1601,6.1545,6.1969,6.2769,6.3554,6.4394,6.527,6.6089,6.6415,6.6446,3.2085,3.1533,3.2615,3.8647,3.9815,4.1533,4.6372,4.8161,4.9439,5.0845,5.0544,5.0719,5.1967,5.1966,5.1958,5.2245,5.1743,5.1384,5.1408,5.3071,5.3733,5.3069,5.4484,5.4811,5.3899,5.3221,5.0247,4.4917,4.0673,3.576,3.0298,2.9619,3.1978,3.6906,3.9695,4.3215,4.7191,4.9718,5.2125,5.432,5.511,5.529,5.5249,5.7111,5.7104,5.6206,5.6647,5.6572,5.6148,5.559,5.5723,5.6043,5.5706,5.5818,5.6061,5.5706,5.6569,5.7638,5.7638,5.8201,5.8782,5.8672,5.8874,5.9076,5.89,5.8593,5.8139,5.7449,5.6066,5.4885,5.444,5.1126,4.9269,5.1858,4.9371,4.823,0.0,0.0,0.0,0.0,0.0,0.0,0.0,0.0,0.0,0.0,0.0,0.0,0.0,0.0,0.0,4.7303,0.0,5.3932,5.3476,5.7083,5.9435,6.0561,6.0994,6.1576,6.2274,6.1724,6.1576,6.1718,6.1718,6.169,6.1708,6.2097,6.2488,6.2925,6.4228,6.4947,6.5328,6.6128,6.6431,6.6414,3.6327,3.6256,3.7532,4.2551,4.339,4.4875,4.9325,5.0141,5.0819,5.2303,5.1732,5.1564,5.2537,5.2236,5.2162,5.2689,5.2448,5.2252,5.2155,5.3958,5.4461,5.322,5.4435,5.4758,5.3893,5.339,5.1297,4.7513,4.3334,3.9314,3.546,3.4302,3.6964,4.2791,4.5005,4.7467,5.007,5.235,5.3757,5.4472,5.502,5.5228,5.529,5.6494,5.6522,5.5918,5.5885,5.5647,5.53,5.4614,5.4934,5.5555,5.533,5.5593,5.5968,5.5968,5.7221,5.8588,5.8588,5.9053,5.9605,5.9868,5.9899,5.9969,6.015,5.9797,5.9471,5.9498,5.7881,5.6641,5.7289,5.4196,5.2398,5.4998,5.3065,5.1837,0.0,5.3913,0.0,0.0,4.4265,4.2316,4.4794,0.0,0.0,0.0,0.0,0.0,0.0,0.0,0.0,0.0,0.0,0.0,5.4998,5.7629,6.0067,6.2257,6.1623,6.1739,6.2469,6.1842,6.1598,6.1718,6.1718,6.1694,6.1675,6.2212,6.2714,6.3253,6.4364,6.5118,6.5646,6.6204,6.6389,6.6398,4.1519,3.9495,3.9752,4.7537,4.6211,4.5921,5.1422,5.1657,5.1726,5.3281,5.2773,5.2234,5.2102,5.1462,5.1294,5.2034,5.3075,5.3471,5.3006,5.4256,5.4992,5.4989,5.449,5.4367,5.4774,5.4236,5.3571,5.271,4.8561,4.5418,4.3175,3.9323,4.1561,4.8776,4.8274,5.0879,5.5576,5.5023,5.4783,5.4783,5.4705,5.5227,5.5993,5.595,5.5918,5.5902,5.5835,5.5208,5.4409,5.4409,5.4934,5.5443,5.4672,5.5535,5.6887,5.6887,5.8257,5.9772,5.9772,5.9969,6.0203,6.0165,6.0199,6.0179,6.0194,6.0349,6.0596,6.0902,5.964,5.85,5.8556,5.7137,5.483,5.1509,5.3073,5.3882,5.1483,5.4909,0.0,5.1759,4.7493,4.6601,5.0892,4.191,0.0,0.0,0.0,0.0,0.0,0.0,0.0,5.2335,5.2575,5.3475,5.5194,5.7805,5.9978,6.1696,6.1683,6.1718,6.1718,6.1718,6.1718,6.1718,6.1718,6.1638,6.1488,6.1527,6.2469,6.3962,6.3915,6.4955,6.6501,6.6411,6.6411,6.6406,4.5781,4.5221,4.5626,4.9123,4.9073,4.9206,5.1217,5.1736,5.199,5.2215,5.2109,5.2601,5.4036,5.3621,5.3727,5.5178,5.5331,5.5521,5.5947,5.6911,5.6914,5.573,5.6217,5.5846,5.4414,5.4132,5.3563,5.2658,4.8592,4.625,4.5564,4.4455,4.6819,5.1971,5.222,5.3278,5.4861,5.4859,5.4875,5.4875,5.486,5.5011,5.5254,5.5223,5.5284,5.5321,5.5114,5.4877,5.4645,5.4455,5.5082,5.5879,5.5631,5.6711,5.8067,5.8281,5.9162,6.0074,6.0074,6.0146,6.0259,6.0444,6.0457,6.0508,6.0634,6.0272,5.993,6.0071,5.9234,5.8684,5.9292,5.8538,5.7619,5.7134,5.6769,5.61,5.4703,5.3838,5.1944,4.8191,4.4536,4.3819,4.7571,4.2734,0.0,0.0,0.0,0.0,0.0,0.0,0.0,0.0,5.3358,5.5854,5.5195,5.8384,6.0866,6.2586,6.1993,6.1718,6.1718,6.1718,6.1718,6.1718,6.1718,6.2012,6.2577,6.3066,6.3953,6.5021,6.5411,6.5932,6.642,6.6358,6.634,6.6358,4.8244,4.8545,4.9018,4.9932,5.0495,5.0898,5.1182,5.1568,5.1922,5.2195,5.2563,5.3618,5.5742,5.5768,5.5997,5.6937,5.7193,5.7354,5.75,5.8494,5.8445,5.7,5.71,5.6577,5.5209,5.4653,5.4159,5.3636,5.1318,5.0028,4.9675,4.997,5.1584,5.428,5.4343,5.4656,5.512,5.4973,5.492,5.492,5.492,5.492,5.492,5.4875,5.4971,5.5127,5.5223,5.5344,5.5489,5.5625,5.633,5.7206,5.7295,5.8262,5.9331,5.9071,5.9662,6.0379,6.0379,6.0457,6.0556,6.0689,6.0739,6.0766,6.0827,6.0453,6.008,6.0134,5.9482,5.9089,5.9659,5.9051,5.8568,5.8838,5.8278,5.7203,5.5443,5.3789,5.1456,4.8008,4.5469,4.5212,4.8413,4.6397,4.6129,0.0,0.0,0.0,0.0,0.0,4.9062,5.0,5.5103,5.7438,5.6673,5.9156,6.1095,6.2501,6.1952,6.1718,6.1718,6.1718,6.1718,6.1718,6.1718,6.2164,6.3005,6.3421,6.4307,6.5381,6.5807,6.6118,6.6394,6.6331,6.6322,6.634,4.919,4.9593,5.0033,5.0067,5.064,5.1082,5.1217,5.1248,5.1709,5.2969,5.3817,5.5108,5.7171,5.7806,5.7933,5.7689,5.8683,5.888,5.7912,5.9159,5.9536,5.8608,5.7473,5.6842,5.6858,5.5726,5.5229,5.5418,5.5949,5.5743,5.4828,5.5249,5.5498,5.5576,5.4861,5.512,5.6057,5.5223,5.492,5.4996,5.492,5.4958,5.5057,5.4943,5.507,5.5361,5.6045,5.6453,5.6817,5.7544,5.8334,5.9063,5.9311,5.9996,6.0538,5.946,5.9906,6.0727,6.0727,6.0931,6.106,6.1012,6.099,6.0955,6.0843,6.0781,6.0843,6.0888,6.0245,5.9727,5.978,5.9016,5.8168,5.7497,5.7812,5.7126,5.4091,5.4251,5.3501,5.0365,4.9277,4.9822,5.244,5.197,5.2825,0.0,0.0,0.0,0.0,0.0,4.9843,5.645,5.7465,5.8324,5.9258,6.008,6.09,6.1718,6.1718,6.1718,6.1718,6.1718,6.172,6.1798,6.1798,6.2294,6.3083,6.3023,6.3939,6.5395,6.5334,6.5771,6.6406,6.632,6.6349,6.6367,4.9833,4.9526,4.9424,4.9999,4.998,5.0178,5.108,5.1459,5.2072,5.3333,5.4102,5.5559,5.8287,5.8595,5.9109,6.0396,5.9659,5.9294,5.9674,6.0003,5.9982,5.9461,5.9331,5.8657,5.7358,5.6688,5.6091,5.5536,5.608,5.5959,5.5193,5.548,5.53,5.471,5.479,5.4936,5.5185,5.4996,5.5299,5.583,5.5185,5.5678,5.6739,5.6118,5.6382,5.7073,5.6936,5.7186,5.7583,5.7449,5.8268,5.9311,5.9369,6.0156,6.0953,6.0681,6.0779,6.1002,6.1002,6.1041,6.1099,6.1039,6.0905,6.0854,6.0793,6.0781,6.0793,6.0804,6.0684,6.0602,6.0614,5.9952,5.9318,5.9156,5.6651,5.4485,5.3713,5.1713,4.9996,4.919,4.8917,4.9817,5.2433,5.2511,5.2745,5.3569,5.4242,5.4634,5.4625,5.3665,5.4484,5.7428,5.8363,5.9534,6.1054,6.1288,6.1483,6.1718,6.1718,6.1718,6.1718,6.1718,6.2076,6.2672,6.2672,6.3544,6.4961,6.4875,6.5481,6.643,6.6308,6.634,6.6457,6.6415,6.6364,6.6322,4.9476,4.9673,4.9837,4.9567,4.9862,5.0419,5.1049,5.1877,5.2944,5.4449,5.5584,5.7078,5.9406,5.9767,6.0189,6.1115,6.0572,6.0324,6.0648,6.0683,6.0568,6.0333,6.0123,5.9602,5.8801,5.8178,5.788,5.7884,5.8572,5.8539,5.7803,5.814,5.7791,5.6927,5.7094,5.6967,5.6626,5.6626,5.6664,5.6702,5.6247,5.6588,5.7346,5.6891,5.7133,5.7739,5.7886,5.8276,5.8688,5.8872,5.9482,6.0187,6.0187,6.0606,6.1118,6.1118,6.1118,6.1118,6.1118,6.106,6.106,6.0987,6.0888,6.0781,6.0781,6.0781,6.0781,6.0781,6.0843,6.0827,6.0827,6.0514,6.0106,5.9804,5.6875,5.4575,5.4305,5.1767,5.0377,5.162,5.1776,5.2633,5.4864,5.5098,5.5059,5.5018,5.5454,5.5923,5.6302,5.6776,5.7438,5.8363,5.9222,6.0159,6.1095,6.1483,6.1718,6.1718,6.2115,6.2275,6.2315,6.2709,6.3144,6.3578,6.3578,6.4366,6.5584,6.5543,6.6001,6.6772,6.6677,6.6624,6.6579,6.6464,6.6415,6.6381,4.8885,4.9718,5.0252,4.9108,4.9949,5.0881,5.1154,5.244,5.3983,5.5847,5.7406,5.8911,6.0367,6.0876,6.1013,6.0873,6.1212,6.1315,6.1003,6.0974,6.0974,6.0974,6.0331,6.0089,6.0308,5.9754,5.9863,6.0595,6.1519,6.1615,6.0873,6.1169,6.0817,5.9902,5.9902,5.943,5.8726,5.8726,5.8256,5.7573,5.746,5.7535,5.7763,5.7649,5.7779,5.8134,5.884,5.937,5.9843,6.0519,6.092,6.1118,6.1118,6.1118,6.1118,6.1118,6.1118,6.1118,6.1118,6.1032,6.0962,6.0933,6.0866,6.0781,6.0781,6.0781,6.0781,6.0781,6.0781,6.0793,6.0827,6.0839,6.0503,5.9585,5.7155,5.5246,5.4777,5.271,5.2227,5.4989,5.5651,5.6469,5.7921,5.8077,5.8075,5.7989,5.8105,5.8531,5.9261,5.9414,5.9493,5.9493,6.008,6.0471,6.0588,6.1722,6.2154,6.1918,6.2789,6.3185,6.3224,6.3972,6.4366,6.4485,6.4485,6.4995,6.578,6.5739,6.6162,6.6818,6.6748,6.6727,6.6705,6.6573,6.6503,6.6461,4.9422,4.9152,4.9016,4.9386,4.9654,5.0256,5.1496,5.3257,5.5015,5.6596,5.8446,5.9964,6.0902,6.1051,6.1087,6.1062,6.111,6.0954,6.0475,6.0403,6.0403,6.0403,6.0296,6.0252,6.0308,6.0952,6.1051,6.0512,6.1789,6.1966,6.1148,6.1251,6.0833,5.9982,5.9918,5.943,5.8726,5.8726,5.8613,5.8407,5.7687,5.8256,5.943,5.8748,5.8932,5.957,5.9642,5.9983,6.0354,6.0457,6.075,6.1118,6.1118,6.1118,6.1118,6.1118,6.1118,6.1118,6.1118,6.1041,6.0987,6.0922,6.0866,6.0781,6.0781,6.0781,6.0781,6.0781,6.0781,6.085,6.0953,6.0954,6.0276,5.8117,5.5118,5.2986,5.2933,5.2005,5.2351,5.499,5.7213,5.8617,5.8897,5.8897,5.8895,5.8888,5.9589,6.0054,6.0198,6.09,6.1288,6.1288,6.0705,6.0744,6.1483,6.3808,6.4242,6.2828,6.3697,6.409,6.409,6.4248,6.4681,6.5388,6.5388,6.5897,6.6719,6.6679,6.6757,6.6874,6.6873,6.6826,6.6761,6.6624,6.6561,6.6461,4.8827,4.9159,4.9525,4.9458,5.0126,5.0995,5.2098,5.434,5.6286,5.7363,5.9264,6.0701,6.1058,6.1093,6.1093,6.1093,6.1093,6.0974,6.0733,6.0726,6.0726,6.0726,6.0439,6.0447,6.0701,6.1423,6.1957,6.2175,6.3045,6.3293,6.2914,6.3023,6.2869,6.2473,6.205,6.1439,6.0643,6.0189,5.975,5.9333,5.89,5.9203,5.9864,5.9468,5.9598,5.9885,5.9836,6.0053,6.0349,6.043,6.0669,6.0962,6.1051,6.1118,6.1118,6.1118,6.1118,6.107,6.1041,6.1002,6.098,6.0933,6.0888,6.0827,6.0793,6.0781,6.0781,6.0781,6.0781,6.0861,6.0964,6.1002,6.0231,5.7896,5.6222,5.5268,5.5332,5.5044,5.5803,5.8432,5.9799,6.0306,5.9841,5.9803,5.98,5.9792,6.0181,6.0604,6.1095,6.1483,6.1718,6.1718,6.1766,6.2004,6.2393,6.4049,6.4481,6.3697,6.4563,6.4995,6.5034,6.5505,6.5936,6.6289,6.6289,6.6523,6.6914,6.6914,6.6914,6.6914,6.6914,6.6874,6.6828,6.67,6.6619,6.651,4.8133,4.9128,4.9959,4.956,5.086,5.2236,5.3,5.5561,5.7587,5.8083,5.987,6.1093,6.1093,6.1093,6.1093,6.1093,6.1093,6.1093,6.1093,6.1093,6.1051,6.0896,6.0431,6.0368,6.0887,6.1569,6.2364,6.3325,6.3984,6.4324,6.4326,6.4444,6.4558,6.4577,6.41,6.33,6.2349,6.1683,6.0866,5.9902,5.9902,5.9902,5.9902,5.9902,5.9902,5.9902,5.9902,6.0022,6.0223,6.043,6.0633,6.0828,6.1032,6.1118,6.1118,6.1118,6.1118,6.1109,6.1022,6.1002,6.0982,6.0955,6.0933,6.0922,6.0877,6.0816,6.0804,6.0804,6.0839,6.0899,6.103,6.1062,6.0366,5.8018,5.7654,5.7687,5.7787,5.7791,5.8774,6.1402,6.1714,6.1442,6.0781,6.0702,6.0701,6.0691,6.0885,6.1192,6.1681,6.1874,6.1993,6.1998,6.2867,6.3304,6.3304,6.4366,6.4799,6.4602,6.5505,6.5897,6.5936,6.6601,6.6914,6.6914,6.6914,6.6914,6.6914,6.6914,6.6914,6.6914,6.6914,6.6914,6.6874,6.6735,6.6688,6.6615,4.8001,4.863,4.9392,5.0021,5.1866,5.3517,5.4262,5.6863,5.8773,5.8835,6.0164,6.1093,6.1093,6.1093,6.1093,6.1093,6.1093,6.1093,6.1093,6.1093,6.089,6.036,5.9881,5.9862,6.0328,6.1397,6.2106,6.257,6.3749,6.4244,6.4104,6.4189,6.4348,6.4596,6.4595,6.3777,6.2387,6.2395,6.1446,5.9902,5.9902,5.9902,5.9902,5.9902,5.9902,5.9902,5.9902,6.0022,6.0223,6.043,6.0633,6.0828,6.1032,6.1118,6.1118,6.1118,6.1118,6.1109,6.1022,6.1002,6.0992,6.0997,6.0987,6.0987,6.0976,6.0944,6.09,6.09,6.0951,6.1039,6.1143,6.1355,6.0642,5.8192,5.7773,5.7777,5.7791,5.7785,5.8763,6.1396,6.1704,6.1663,6.1592,6.1593,6.1591,6.1582,6.2361,6.2473,6.1759,6.2462,6.2896,6.2908,6.3736,6.4209,6.4209,6.5858,6.6289,6.5505,6.6406,6.6797,6.6797,6.6875,6.6914,6.6914,6.6914,6.6914,6.6914,6.6914,6.6914,6.6914,6.6914,6.6914,6.6874,6.6735,6.6714,6.6664,4.8001,4.8597,4.9326,5.0088,5.1967,5.3653,5.4398,5.6999,5.8905,5.8905,6.02,6.1093,6.1093,6.1093,6.1093,6.1093,6.1093,6.1093,6.1093,6.1093,6.0854,6.0316,5.9862,6.0176,6.1471,6.1399,6.2079,6.3565,6.3851,6.391,6.3802,6.392,6.4067,6.4111,6.3427,6.2782,6.2176,6.1271,6.0487,5.9902,5.9902,5.989,5.9841,5.9869,5.9853,5.9841,5.9869,5.9918,5.9998,6.0188,6.0376,6.0596,6.0784,6.0972,6.1118,6.1118,6.1118,6.107,6.1051,6.1051,6.1041,6.1021,6.101,6.1,6.0997,6.0976,6.0955,6.0911,6.1002,6.11,6.1165,6.1379,6.0703,5.82,5.9143,5.9651,5.8018,5.9191,6.0602,6.1585,6.1704,6.1707,6.1708,6.1709,6.1707,6.1699,6.2517,6.2629,6.1759,6.1991,6.2705,6.3775,6.4129,6.4563,6.5113,6.6289,6.6719,6.6406,6.6758,6.6914,6.6914,6.6914,6.6914,6.6914,6.6914,6.6914,6.6914,6.6914,6.6914,6.6914,6.6914,6.6914,6.6875,6.6833,6.6781,6.6714,4.8001,4.8796,4.9624,5.0121,5.2539,5.4599,5.511,5.7704,5.9571,5.9571,6.0468,6.1093,6.1093,6.1093,6.1093,6.1093,6.1093,6.1093,6.1093,6.1093,6.0932,6.0562,6.0087,6.0513,6.196,6.1564,6.2175,6.3862,6.3958,6.391,6.3714,6.3851,6.3878,6.3862,6.2802,6.224,6.203,6.077,6.0096,5.9902,5.9902,5.9853,5.9824,5.9874,5.9857,5.9841,5.9874,5.9841,5.9824,6.0045,6.0208,6.0443,6.0645,6.086,6.1051,6.1051,6.108,6.1148,6.1399,6.1273,6.107,6.1032,6.1032,6.1022,6.101,6.1018,6.0976,6.0944,6.1022,6.1128,6.1172,6.1406,6.1006,5.9293,6.0549,6.1054,5.9261,6.0555,6.1692,6.1692,6.1697,6.1702,6.1702,6.1702,6.1699,6.1694,6.2512,6.2742,6.2149,6.2113,6.2789,6.4248,6.4563,6.5113,6.6014,6.6601,6.6914,6.6914,6.6914,6.6914,6.6914,6.6914,6.6914,6.6914,6.6914,6.6914,6.6914,6.6914,6.6913,6.6913,6.6913,6.6913,6.6914,6.6914,6.683,6.6772,4.8001,4.9193,5.022,5.022,5.382,5.6698,5.6698,5.9205,6.1093,6.1093,6.1093,6.1093,6.1093,6.1093,6.1093,6.1093,6.1093,6.1093,6.1093,6.1093,6.1093,6.1093,6.0597,6.0696,6.1515,6.1887,6.2447,6.3107,6.4004,6.4247,6.3878,6.3878,6.3878,6.3862,6.3144,6.2519,6.2068,6.1306,6.0577,5.9902,5.9885,5.9885,5.9885,5.9824,5.9841,5.9885,5.9824,5.9791,5.9824,6.0045,6.0246,6.043,6.0645,6.0828,6.1002,6.1002,6.1,6.1201,6.2074,6.1657,6.1018,6.109,6.1118,6.1118,6.1118,6.1031,6.0997,6.0997,6.1131,6.1193,6.1193,6.1465,6.1718,6.1718,6.1718,6.1718,6.1718,6.1718,6.1718,6.1718,6.1718,6.1718,6.1718,6.1718,6.1718,6.1718,6.254,6.3008,6.3008,6.3021,6.3421,6.4287,6.5152,6.6014,6.6875,6.6914,6.6914,6.6914,6.6914,6.6914,6.6914,6.6914,6.6914,6.6914,6.6914,6.6914,6.6911,6.6911,6.6908,6.6902,6.6902,6.6907,6.6911,6.6911,6.6911,6.6911,4.8763,4.9558,5.0386,5.0883,5.3719,5.6109,5.6629,5.9205,6.1093,6.1093,6.1093,6.1093,6.1093,6.1093,6.1093,6.1093,6.1093,6.1093,6.1093,6.0505,6.0552,6.1487,6.119,6.1576,6.2818,6.268,6.3061,6.4025,6.4189,6.4128,6.3878,6.3878,6.383,6.3676,6.3014,6.2418,6.1845,6.1164,6.0492,5.9885,5.9753,5.9736,5.9807,5.9653,5.9688,5.9807,5.9685,5.965,5.965,5.9668,5.9831,6.0053,6.0482,6.0795,6.1108,6.1685,6.1857,6.1885,6.2165,6.2474,6.2629,6.2094,6.1494,6.101,6.1022,6.1089,6.1134,6.1134,6.1324,6.1466,6.1406,6.1584,6.1718,6.1718,6.1718,6.1718,6.1718,6.1718,6.1913,6.254,6.2071,6.2189,6.3399,6.2423,6.2228,6.3438,6.3759,6.4195,6.4789,6.4244,6.4327,6.5191,6.5466,6.6014,6.6875,6.6914,6.6914,6.6914,6.6914,6.6914,6.6914,6.6914,6.6914,6.6912,6.6912,6.6866,6.6761,6.6761,6.6759,6.6753,6.6753,6.6756,6.6763,6.6862,6.6857,6.6763,4.9558,5.0121,5.0754,5.116,5.3884,5.6173,5.6602,5.9183,6.1093,6.1093,6.1093,6.1093,6.1093,6.1093,6.1093,6.1093,6.1093,6.1211,6.1408,6.0863,6.1012,6.2209,6.2143,6.2472,6.328,6.319,6.3542,6.4385,6.4463,6.4348,6.4186,6.4186,6.4021,6.3683,6.2993,6.2483,6.2118,6.1374,6.0959,6.0736,6.0543,6.0597,6.0791,6.0397,6.0264,6.0248,5.9999,5.9737,5.9545,5.9492,5.9677,6.0053,6.0495,6.1037,6.161,6.2088,6.221,6.2265,6.2574,6.2563,6.2409,6.2271,6.1857,6.1383,6.1078,6.1032,6.1107,6.1139,6.1291,6.1461,6.1486,6.1598,6.1718,6.1718,6.1718,6.1718,6.1718,6.1718,6.1913,6.2423,6.2345,6.2501,6.3204,6.2935,6.3174,6.4234,6.4317,6.4517,6.5068,6.4915,6.5073,6.5584,6.5936,6.6367,6.6875,6.6914,6.6914,6.6914,6.6914,6.6914,6.6914,6.6914,6.6913,6.6911,6.6909,6.6815,6.6684,6.6684,6.6666,6.6638,6.6662,6.6716,6.673,6.6811,6.6809,6.6753,5.032,5.0952,5.1426,5.1224,5.4213,5.6643,5.65,5.9035,6.0986,6.0986,6.1058,6.1058,6.0956,6.1058,6.1058,6.0956,6.1028,6.1292,6.1842,6.1696,6.2013,6.3036,6.3141,6.3164,6.3201,6.352,6.3925,6.4385,6.4745,6.4781,6.4596,6.4596,6.4346,6.3883,6.3152,6.2778,6.2666,6.1919,6.1803,6.2051,6.1864,6.2014,6.2284,6.1596,6.1186,6.0949,6.0473,5.9966,5.9512,5.9569,5.9847,6.0259,6.0737,6.1538,6.2305,6.2397,6.2381,6.2452,6.3172,6.2213,6.1177,6.189,6.2139,6.1979,6.118,6.0976,6.0951,6.1104,6.1182,6.1304,6.1486,6.1602,6.1718,6.1718,6.1718,6.1718,6.1718,6.1718,6.1718,6.1796,6.254,6.2735,6.211,6.3566,6.4514,6.4405,6.4483,6.4522,6.4524,6.527,6.5702,6.5702,6.6484,6.6914,6.6914,6.6914,6.6914,6.6914,6.6914,6.6914,6.6914,6.6912,6.6911,6.6871,6.6905,6.6802,6.6701,6.6697,6.661,6.6528,6.6639,6.6677,6.6701,6.6756,6.6807,6.6763,5.1048,5.2065,5.2741,5.2099,5.4529,5.6405,5.5753,5.8219,6.0165,6.0165,6.0701,6.082,6.006,6.0677,6.0784,6.006,6.0522,6.111,6.1712,6.094,6.1218,6.2929,6.2339,6.2572,6.3946,6.4229,6.4366,6.4249,6.467,6.4781,6.4596,6.4596,6.4424,6.4128,6.3776,6.3385,6.2928,6.2741,6.235,6.1844,6.1825,6.194,6.203,6.0957,6.0717,6.0873,5.989,5.9515,5.9569,6.0172,6.0291,6.0446,6.1822,6.2285,6.2527,6.378,6.3658,6.3172,6.3279,6.3063,6.2474,6.1381,6.1624,6.1917,6.1114,6.1041,6.1159,6.1218,6.1427,6.1605,6.166,6.1671,6.1718,6.1718,6.1718,6.1718,6.1718,6.1718,6.1952,6.2657,6.2891,6.3442,6.4622,6.5725,6.6044,6.5387,6.5934,6.6325,6.6327,6.6523,6.6601,6.6601,6.6797,6.6914,6.6914,6.6913,6.6913,6.6914,6.6914,6.6914,6.6912,6.6911,6.6868,6.6818,6.6817,6.6787,6.6677,6.6574,6.6574,6.6644,6.6558,6.654,6.6569,6.673,6.6713,6.659,5.1765,5.2908,5.3703,5.3235,5.4744,5.6118,5.641,5.811,5.9458,5.9763,6.0155,6.006,5.913,5.9473,5.9746,5.9681,6.0356,6.1133,6.2032,6.1417,6.1756,6.3336,6.2859,6.2983,6.3878,6.4307,6.4521,6.4577,6.4906,6.4958,6.4817,6.4817,6.4652,6.4405,6.4287,6.3923,6.3409,6.3409,6.3185,6.279,6.2687,6.2646,6.2504,6.1582,6.1107,6.0823,6.064,6.043,6.0368,6.0943,6.1031,6.1058,6.2313,6.313,6.3727,6.4536,6.4424,6.395,6.346,6.3012,6.2435,6.1127,6.1127,6.137,6.0943,6.0993,6.1143,6.1239,6.1432,6.1605,6.1674,6.1718,6.1718,6.1718,6.1718,6.1718,6.1718,6.1718,6.1874,6.2345,6.3091,6.4312,6.6043,6.6242,6.6246,6.621,6.664,6.6914,6.6914,6.6914,6.6914,6.6914,6.6914,6.6914,6.6913,6.6912,6.6911,6.6911,6.6911,6.6911,6.6908,6.6866,6.6821,6.6811,6.6807,6.6775,6.6707,6.6546,6.6504,6.6543,6.6489,6.6461,6.6482,6.6595,6.6615,6.6618,5.2194,5.3249,5.4113,5.3964,5.4729,5.5729,5.6921,5.7868,5.863,5.9153,5.9367,5.9094,5.8166,5.8231,5.8609,5.9402,6.0345,6.1265,6.2183,6.2188,6.2682,6.3736,6.3669,6.3624,6.3714,6.4186,6.4577,6.4903,6.5095,6.5128,6.4989,6.4989,6.4888,6.4652,6.4615,6.4366,6.4004,6.4004,6.3963,6.3878,6.372,6.3451,6.3066,6.2407,6.1545,6.0772,6.1279,6.1306,6.1178,6.1657,6.1801,6.1945,6.2882,6.3988,6.5005,6.5016,6.4828,6.4381,6.3561,6.2716,6.1908,6.1012,6.0896,6.0973,6.0819,6.0913,6.1053,6.1165,6.139,6.1576,6.1671,6.1718,6.1718,6.1718,6.1718,6.1718,6.1718,6.1718,6.1759,6.1918,6.3453,6.5144,6.6754,6.6248,6.6132,6.6836,6.6914,6.6914,6.6914,6.6914,6.6914,6.6914,6.6914,6.6913,6.6911,6.6871,6.6868,6.6862,6.686,6.686,6.6862,6.6815,6.6811,6.6809,6.68,6.6775,6.6724,6.6552,6.6464,6.6462,6.6422,6.6414,6.6415,6.6491,6.6618,6.6707,5.1734,5.2507,5.3102,5.2858,5.407,5.5092,5.5178,5.6383,5.7339,5.7446,5.8048,5.8131,5.7176,5.7789,5.8338,5.8474,6.0288,6.1304,6.1147,6.204,6.2977,6.3758,6.3669,6.378,6.4203,6.4367,6.4483,6.4482,6.4976,6.5128,6.4989,6.4989,6.4958,6.4835,6.4671,6.4577,6.452,6.452,6.4267,6.3899,6.3979,6.3576,6.283,6.1831,6.112,6.0603,5.989,6.0295,6.1178,6.1657,6.2309,6.3194,6.4547,6.4975,6.5131,6.5726,6.4861,6.361,6.3426,6.2752,6.1908,6.1012,6.1358,6.1716,6.0973,6.0993,6.1165,6.1186,6.1451,6.1671,6.1718,6.1718,6.1718,6.1718,6.1718,6.1718,6.1718,6.1718,6.1996,6.2711,6.4366,6.5817,6.6794,6.6796,6.6758,6.6875,6.6914,6.6914,6.6914,6.6914,6.6914,6.6914,6.6913,6.6912,6.6911,6.6823,6.6815,6.6813,6.6805,6.6807,6.6813,6.6813,6.6807,6.6798,6.6798,6.6792,6.6781,6.6579,6.6546,6.6624,6.6485,6.6431,6.6497,6.6629,6.6663,6.6707,5.1789,5.2741,5.3651,5.3915,5.4138,5.4756,5.5929,5.629,5.658,5.6917,5.7306,5.7141,5.6223,5.7323,5.8154,5.8154,6.0094,6.142,6.1577,6.2285,6.3001,6.3647,6.3624,6.3691,6.391,6.4289,6.4502,6.4445,6.4868,6.5095,6.5111,6.492,6.4833,6.4888,6.4799,6.4708,6.4596,6.4596,6.4326,6.3899,6.3979,6.343,6.2503,6.1703,6.1005,6.0453,6.0845,6.1869,6.3059,6.3376,6.3679,6.4103,6.502,6.5474,6.5634,6.5423,6.4839,6.3996,6.2968,6.2382,6.1908,6.1012,6.1089,6.1281,6.0896,6.102,6.1186,6.1186,6.1461,6.1718,6.1718,6.1718,6.1718,6.1718,6.1718,6.1718,6.1718,6.2115,6.2947,6.4288,6.4681,6.5426,6.6757,6.6914,6.6914,6.6914,6.6914,6.6914,6.6914,6.6914,6.6914,6.6914,6.6913,6.691,6.6907,6.6818,6.6809,6.6802,6.6798,6.68,6.6802,6.6802,6.68,6.6795,6.6795,6.6795,6.679,6.6585,6.6528,6.6585,6.6359,6.6329,6.6359,6.6482,6.6561,6.6602]}]]